[[{"header":{"parameterUnit":"m.s-1","parameterCategory":1,"la1":31.0,"la2":29.5877,"lo1":-88.7671,"lo2":-86.6584,"dy":0.0162,"dx":0.0185,"nx":115,"ny":88,"refTime":"2024-09-13T12:00:00:Z","depth":0,"parameterNumber":2,"parameterNumberName":"U-component_of_WINDS"},"data":[0.0,0.0,0.0,0.0,0.0,0.0,0.0,0.0,0.0,0.0,0.0,0.0,0.0,0.0,0.0,0.0,0.0,0.0,0.0,0.0,0.0,0.0,0.0,0.0,0.0,0.0,0.0,0.0,0.0,0.0,0.0,0.0,0.0,0.0,0.0,0.0,0.0,0.0,0.0,0.0,0.0,0.0,0.0,0.0,0.0,0.0,0.0,0.0,0.0,0.0,0.0,0.0,0.0,0.0,0.0,0.0,0.0,0.0,0.0,0.0,0.0,0.0,0.0,0.0,0.0,0.0,0.0,0.0,0.0,0.0,0.0,0.0,0.0,0.0,0.0,0.0,0.0,0.0,0.0,0.0,0.0,0.0,0.0,0.0,0.0,0.0,0.0,0.0,0.0,0.0,0.0,0.0,0.0,0.0,0.0,0.0,0.0,0.0,0.0,0.0,0.0,0.0,0.0,0.0,0.0,0.0,0.0,0.0,0.0,0.0,0.0,0.0,0.0,0.0,0.0,0.0,0.0,0.0,0.0,0.0,0.0,0.0,0.0,0.0,0.0,0.0,0.0,0.0,0.0,0.0,0.0,0.0,0.0,0.0,0.0,0.0,0.0,0.0,0.0,0.0,0.0,0.0,0.0,0.0,0.0,0.0,0.0,0.0,0.0,0.0,0.0,0.0,0.0,0.0,0.0,0.0,0.0,0.0,0.0,0.0,0.0,0.0,0.0,0.0,0.0,0.0,0.0,0.0,0.0,0.0,0.0,0.0,0.0,0.0,0.0,0.0,0.0,0.0,0.0,0.0,0.0,0.0,0.0,0.0,0.0,0.0,0.0,0.0,0.0,0.0,0.0,0.0,0.0,0.0,0.0,0.0,0.0,0.0,0.0,0.0,0.0,0.0,0.0,0.0,0.0,0.0,0.0,0.0,0.0,0.0,0.0,0.0,0.0,0.0,0.0,0.0,0.0,0.0,0.0,0.0,0.0,0.0,0.0,0.0,0.0,0.0,0.0,0.0,0.0,0.0,0.0,0.0,0.0,0.0,0.0,0.0,0.0,0.0,0.0,0.0,0.0,0.0,0.0,0.0,0.0,0.0,0.0,0.0,0.0,0.0,0.0,0.0,0.0,0.0,0.0,0.0,0.0,0.0,0.0,0.0,0.0,0.0,0.0,0.0,0.0,0.0,0.0,0.0,0.0,0.0,0.0,0.0,0.0,0.0,0.0,0.0,0.0,0.0,0.0,0.0,0.0,0.0,0.0,0.0,0.0,0.0,0.0,0.0,0.0,0.0,0.0,0.0,0.0,0.0,0.0,0.0,0.0,0.0,0.0,0.0,0.0,0.0,0.0,0.0,0.0,0.0,0.0,0.0,0.0,0.0,0.0,0.0,0.0,0.0,0.0,0.0,0.0,0.0,0.0,0.0,0.0,0.0,0.0,0.0,0.0,0.0,0.0,0.0,0.0,0.0,0.0,0.0,0.0,0.0,0.0,0.0,0.0,0.0,0.0,0.0,0.0,0.0,0.0,0.0,0.0,0.0,0.0,0.0,0.0,0.0,0.0,0.0,0.0,0.0,0.0,0.0,0.0,0.0,0.0,0.0,0.0,0.0,0.0,0.0,0.0,0.0,0.0,0.0,0.0,0.0,0.0,0.0,0.0,0.0,0.0,0.0,0.0,0.0,0.0,0.0,0.0,0.0,0.0,0.0,0.0,0.0,0.0,0.0,0.0,0.0,0.0,0.0,0.0,0.0,0.0,0.0,0.0,0.0,0.0,0.0,0.0,0.0,0.0,0.0,0.0,0.0,0.0,0.0,0.0,0.0,0.0,0.0,0.0,0.0,0.0,0.0,0.0,0.0,0.0,0.0,0.0,0.0,0.0,0.0,0.0,0.0,0.0,0.0,0.0,0.0,0.0,0.0,0.0,0.0,0.0,0.0,0.0,0.0,0.0,0.0,0.0,0.0,0.0,0.0,0.0,0.0,0.0,0.0,0.0,0.0,0.0,0.0,0.0,0.0,0.0,0.0,0.0,0.0,0.0,0.0,0.0,0.0,0.0,0.0,0.0,0.0,0.0,0.0,0.0,0.0,0.0,0.0,0.0,0.0,0.0,0.0,0.0,0.0,0.0,0.0,0.0,0.0,0.0,0.0,0.0,0.0,0.0,0.0,0.0,0.0,0.0,0.0,0.0,0.0,0.0,0.0,0.0,0.0,0.0,0.0,0.0,0.0,0.0,0.0,0.0,0.0,0.0,0.0,0.0,0.0,0.0,0.0,0.0,0.0,0.0,0.0,0.0,0.0,0.0,0.0,0.0,0.0,0.0,0.0,0.0,0.0,0.0,0.0,0.0,0.0,0.0,0.0,0.0,0.0,0.0,0.0,0.0,0.0,0.0,0.0,0.0,0.0,0.0,0.0,0.0,0.0,0.0,0.0,0.0,0.0,0.0,0.0,0.0,0.0,0.0,0.0,0.0,0.0,0.0,0.0,0.0,0.0,0.0,0.0,0.0,0.0,0.0,0.0,0.0,0.0,0.0,0.0,0.0,0.0,0.0,0.0,0.0,0.0,0.0,0.0,0.0,0.0,0.0,0.0,0.0,0.0,0.0,0.0,0.0,0.0,0.0,0.0,0.0,0.0,0.0,0.0,0.0,0.0,0.0,0.0,0.0,0.0,0.0,0.0,0.0,0.0,0.0,0.0,0.0,0.0,0.0,0.0,0.0,0.0,0.0,0.0,0.0,0.0,0.0,0.0,0.0,0.0,0.0,0.0,0.0,0.0,0.0,0.0,0.0,0.0,0.0,0.0,0.0,0.0,0.0,0.0,0.0,0.0,0.0,0.0,0.0,0.0,0.0,0.0,0.0,0.0,0.0,0.0,0.0,0.0,0.0,0.0,0.0,0.0,0.0,0.0,0.0,0.0,0.0,0.0,0.0,0.0,0.0,0.0,0.0,0.0,0.0,0.0,0.0,0.0,0.0,0.0,0.0,0.0,0.0,0.0,0.0,0.0,0.0,0.0,0.0,0.0,0.0,0.0,0.0,0.0,0.0,0.0,0.0,0.0,0.0,0.0,0.0,0.0,0.0,0.0,0.0,0.0,0.0,0.0,0.0,0.0,0.0,0.0,0.0,0.0,0.0,0.0,0.0,0.0,0.0,0.0,0.0,0.0,0.0,0.0,0.0,0.0,0.0,0.0,0.0,0.0,0.0,0.0,0.0,0.0,0.0,0.0,0.0,0.0,0.0,0.0,0.0,0.0,0.0,0.0,0.0,0.0,0.0,0.0,0.0,0.0,0.0,0.0,0.0,0.0,0.0,0.0,0.0,0.0,0.0,0.0,0.0,0.0,0.0,0.0,0.0,0.0,0.0,0.0,0.0,0.0,0.0,0.0,0.0,0.0,0.0,0.0,0.0,0.0,0.0,0.0,0.0,0.0,0.0,0.0,0.0,0.0,0.0,0.0,0.0,0.0,0.0,0.0,0.0,0.0,0.0,0.0,0.0,0.0,0.0,0.0,0.0,0.0,0.0,0.0,0.0,0.0,0.0,0.0,0.0,0.0,0.0,0.0,0.0,0.0,0.0,0.0,0.0,0.0,0.0,0.0,0.0,0.0,0.0,0.0,0.0,0.0,0.0,0.0,0.0,0.0,0.0,0.0,0.0,0.0,0.0,0.0,0.0,0.0,0.0,0.0,0.0,0.0,0.0,0.0,0.0,0.0,0.0,0.0,0.0,0.0,0.0,0.0,0.0,0.0,0.0,0.0,0.0,0.0,0.0,0.0,0.0,0.0,0.0,0.0,0.0,0.0,0.0,0.0,0.0,0.0,0.0,0.0,0.0,0.0,0.0,0.0,0.0,0.0,0.0,0.0,0.0,0.0,0.0,0.0,0.0,0.0,0.0,0.0,0.0,0.0,0.0,0.0,0.0,0.0,0.0,0.0,0.0,0.0,0.0,0.0,0.0,0.0,0.0,0.0,0.0,0.0,0.0,0.0,0.0,0.0,0.0,0.0,0.0,0.0,0.0,0.0,0.0,0.0,0.0,0.0,0.0,0.0,0.0,0.0,0.0,0.0,0.0,0.0,0.0,0.0,0.0,0.0,0.0,0.0,0.0,0.0,0.0,0.0,0.0,0.0,0.0,0.0,0.0,0.0,0.0,0.0,0.0,0.0,0.0,0.0,0.0,0.0,0.0,0.0,0.0,0.0,0.0,0.0,0.0,0.0,0.0,0.0,0.0,0.0,0.0,0.0,0.0,0.0,0.0,0.0,0.0,0.0,0.0,0.0,1.145,0.0,0.0,0.0,0.0,0.0,0.0,0.0,0.0,0.0,0.0,0.0,0.0,0.0,0.0,0.0,0.0,0.0,0.0,0.0,0.0,0.0,0.0,0.0,0.0,0.0,0.0,0.0,0.0,0.0,0.0,0.0,0.0,0.0,0.0,0.0,0.0,0.0,0.0,0.0,0.0,0.0,0.0,0.0,0.0,0.0,0.0,0.0,0.0,0.0,0.0,0.0,0.0,0.0,0.0,0.0,0.0,0.0,0.0,0.0,0.0,0.0,0.0,0.0,0.0,0.0,0.0,0.0,0.0,0.0,0.0,0.0,0.0,0.0,0.0,0.0,0.0,0.0,0.0,0.0,0.0,0.0,0.0,0.0,0.0,0.0,0.0,0.0,0.0,0.0,0.0,0.0,0.0,0.0,0.0,0.0,0.0,0.0,0.0,0.0,0.0,0.0,0.0,0.0,0.0,0.0,0.0,0.0,0.0,0.0,0.0,1.2646,1.2298,1.2305,1.2024,1.1456,0.0,0.0,0.0,0.0,0.0,0.0,0.0,0.0,0.0,0.0,0.0,0.0,0.0,0.0,0.0,0.0,0.0,0.0,0.0,0.0,0.0,0.0,0.0,0.0,0.0,0.0,0.0,0.0,0.0,0.0,0.0,0.0,0.0,0.0,0.0,0.0,0.0,0.0,0.0,0.0,0.0,0.0,0.0,0.0,0.0,0.0,0.0,0.0,0.0,0.0,0.0,0.0,0.0,0.0,0.0,0.0,0.0,0.0,0.0,0.0,0.0,0.0,0.0,0.0,0.0,0.0,0.0,0.0,0.0,0.0,0.0,0.0,0.0,0.0,0.0,0.0,0.0,0.0,0.0,0.0,0.0,0.0,0.0,0.0,0.0,0.0,0.0,0.0,0.0,0.0,0.0,0.0,0.0,0.0,0.0,0.0,0.0,0.0,0.0,0.0,0.0,0.0,0.0,0.0,0.0,0.0,0.0,0.0,0.0,0.0,0.0,0.0,1.2405,1.2124,1.155,0.0,0.0,0.0,0.0,0.0,0.0,0.0,0.0,0.0,0.0,0.0,0.0,0.0,0.0,0.0,0.0,0.0,0.0,0.0,0.0,0.0,0.0,0.0,0.0,0.0,0.0,0.0,0.0,0.0,0.0,0.0,0.0,0.0,0.0,0.0,0.0,0.0,0.0,0.0,0.0,0.0,0.0,0.0,0.0,0.0,0.0,0.0,0.0,0.0,0.0,0.0,0.0,0.0,0.0,0.0,0.0,0.0,0.0,0.0,0.0,0.0,0.0,0.0,0.0,0.0,0.0,0.0,0.0,0.0,0.0,0.0,0.0,0.0,0.0,0.0,0.0,0.0,0.0,0.0,0.0,0.0,0.0,0.0,0.0,0.0,0.0,0.0,0.0,0.0,0.0,0.0,0.0,0.0,0.0,0.0,0.0,0.0,0.0,0.0,0.0,0.0,0.0,0.0,0.0,0.0,0.0,0.0,0.0,0.0,0.0,1.2855,1.2761,1.2782,0.0,1.1877,0.0,0.0,0.0,0.0,0.0,0.0,0.0,0.0,0.0,0.0,0.0,0.0,0.0,0.0,0.0,0.0,0.0,0.0,0.0,0.0,0.0,0.0,0.0,0.0,0.0,0.0,0.0,0.0,0.0,0.0,0.0,0.0,0.0,0.0,0.0,0.0,0.0,0.0,0.0,0.0,0.0,0.0,0.0,0.0,0.0,0.0,0.0,0.0,0.0,0.0,0.0,0.0,0.0,0.0,0.0,0.0,0.0,0.0,0.0,0.0,0.0,0.0,0.0,0.0,0.0,0.0,0.0,0.0,0.0,0.0,0.0,0.0,0.0,0.0,0.0,0.0,0.0,0.0,0.0,0.0,0.0,0.0,0.0,0.0,0.0,0.0,0.0,0.0,0.0,0.0,0.0,0.0,0.0,0.0,0.0,0.0,0.0,0.0,0.0,0.0,0.0,0.0,0.0,0.0,0.0,0.0,0.0,0.0,0.0,0.0,1.2777,1.2472,1.2318,1.2031,0.0,0.0,0.0,0.0,0.0,0.0,0.0,0.0,0.0,0.0,0.0,0.0,0.0,0.0,0.0,0.0,0.0,0.0,0.0,0.0,0.0,0.0,0.0,0.0,0.0,0.0,0.0,0.0,0.0,0.0,0.0,0.0,0.0,0.0,0.0,0.0,0.0,0.0,0.0,0.0,0.0,0.0,0.0,0.0,0.0,0.0,0.0,0.0,0.0,0.0,0.0,0.0,0.0,0.0,0.0,0.0,0.0,0.0,0.0,0.0,0.0,0.0,0.0,0.0,0.0,0.0,0.0,0.0,0.0,0.0,0.0,0.0,0.0,0.0,0.0,0.0,0.0,0.0,0.0,0.0,0.0,0.0,0.0,0.0,0.0,0.0,0.0,0.0,0.0,0.0,0.0,0.0,0.0,0.0,0.0,0.0,0.0,0.0,0.0,0.0,0.0,0.0,0.0,0.0,0.0,0.0,0.0,0.0,0.0,0.0,1.2888,1.2756,1.2466,1.2218,1.1864,1.1323,0.0,0.0,0.0,0.0,0.0,0.0,0.0,0.0,0.0,0.0,0.0,0.0,0.0,0.0,0.0,0.0,0.0,0.0,0.0,0.0,0.0,0.0,0.0,0.0,0.0,0.0,0.0,0.0,0.0,0.0,0.0,0.0,0.0,0.0,0.0,0.0,0.0,0.0,0.0,0.0,0.0,0.0,0.0,0.0,0.0,0.0,0.0,0.0,0.0,0.0,0.0,0.0,0.0,0.0,0.0,0.0,0.0,0.0,0.0,0.0,0.0,0.0,0.0,0.0,0.0,0.0,0.0,0.0,0.0,0.0,0.0,0.0,0.0,0.0,0.0,0.0,0.0,0.0,0.0,0.0,0.0,0.0,0.0,0.0,0.0,0.0,0.0,0.0,0.0,0.0,0.0,0.0,0.0,0.0,0.0,0.0,0.0,0.0,0.0,0.0,0.0,0.0,0.0,0.0,0.0,0.0,0.0,0.0,1.3755,1.3208,1.2862,1.2782,1.2788,1.2244,0.0,0.0,0.0,0.0,0.0,0.0,0.0,0.0,0.0,0.0,0.0,0.0,0.0,0.0,0.0,0.0,0.0,0.0,0.0,0.0,0.0,0.0,0.0,0.0,0.0,0.0,0.0,0.0,0.0,0.0,0.0,0.0,0.0,0.0,0.0,0.0,0.0,0.0,0.0,0.0,0.0,0.0,0.0,0.0,0.0,0.0,0.0,0.0,0.0,0.0,0.0,0.0,0.0,0.0,0.0,0.0,0.0,0.0,0.0,0.0,0.0,0.0,0.0,0.0,0.0,0.0,0.0,0.0,0.0,0.0,0.0,0.0,0.0,0.0,0.0,0.0,0.0,0.0,0.0,0.0,0.0,0.0,0.0,0.0,0.0,0.0,0.0,0.0,0.0,0.0,0.0,0.0,0.0,0.0,0.0,0.0,0.0,0.0,0.0,0.0,0.0,0.0,0.0,0.0,0.0,0.0,0.0,0.0,0.0,1.3639,1.338,1.3383,1.3635,1.2769,1.1984,0.0,0.0,0.0,0.0,0.0,0.0,0.0,0.0,0.0,0.0,0.0,0.0,0.0,0.0,0.0,0.0,0.0,0.0,0.0,0.0,0.0,0.0,0.0,0.0,0.0,0.0,0.0,0.0,0.0,0.0,0.0,0.0,0.0,0.0,0.0,0.0,0.0,0.0,0.0,0.0,0.0,0.0,0.0,0.0,0.0,0.0,0.0,0.0,0.0,0.0,0.0,0.0,0.0,0.0,0.0,0.0,0.0,0.0,0.0,0.0,0.0,0.0,0.0,0.0,0.0,0.0,0.0,0.0,0.0,0.0,0.0,0.0,0.0,0.0,0.0,0.0,0.0,0.0,0.0,0.0,0.0,0.0,0.0,0.0,0.0,0.0,0.0,0.0,0.0,0.0,0.0,0.0,0.0,0.0,0.0,0.0,0.0,0.0,0.0,0.0,0.0,0.0,0.0,0.0,0.0,0.0,0.0,0.0,0.0,1.3847,0.0,1.4155,1.3965,1.3075,1.1973,0.0,0.0,0.0,0.0,0.0,0.0,0.0,0.0,0.0,0.0,0.0,0.0,0.0,0.0,0.0,0.0,0.0,0.0,0.0,0.0,0.0,0.0,0.0,0.0,0.0,0.0,0.0,0.0,0.0,0.0,0.0,0.0,0.0,0.0,0.0,0.0,0.0,0.0,0.0,0.0,0.0,0.0,0.0,0.0,0.0,0.0,0.0,0.0,0.0,0.0,0.0,0.0,0.0,0.0,0.0,0.0,0.0,0.0,0.0,0.0,0.0,0.0,0.0,0.0,0.0,0.0,0.0,0.0,0.0,0.0,0.0,0.0,0.0,0.0,0.0,0.0,0.0,0.0,0.0,0.0,0.0,0.0,0.0,0.0,0.0,0.0,0.0,0.0,0.0,0.0,0.0,0.0,0.0,0.0,0.0,0.0,0.0,0.0,0.0,0.0,0.0,0.0,0.0,0.0,0.0,0.0,0.0,0.0,1.326,1.4506,1.5346,1.5087,1.3659,1.3556,1.2337,0.0,0.0,0.0,0.0,0.0,0.0,0.0,0.0,0.0,0.0,0.0,0.0,0.0,0.0,0.0,0.0,0.0,0.0,0.0,0.0,0.0,0.0,0.0,0.0,0.0,0.0,0.0,0.0,0.0,0.0,0.0,0.0,0.0,0.0,0.0,0.0,0.0,0.0,0.0,0.0,0.0,0.0,0.0,0.0,0.0,0.0,0.0,0.0,0.0,0.0,0.0,0.0,0.0,0.0,0.0,0.0,0.0,0.0,0.0,0.0,0.0,0.0,0.0,0.0,0.0,0.0,0.0,0.0,0.0,0.0,0.0,0.0,0.0,0.0,0.0,0.0,0.0,0.0,0.0,0.0,0.0,0.0,0.0,0.0,0.0,0.0,0.0,0.0,0.0,0.0,0.0,0.0,0.0,0.0,0.0,0.0,0.0,0.0,0.0,0.0,0.0,0.0,0.0,0.0,0.0,0.0,0.0,0.0,0.0,1.4139,1.5471,1.5652,1.4699,1.3543,1.2699,0.0,0.0,0.0,0.0,0.0,0.0,0.0,0.0,0.0,0.0,0.0,0.0,0.0,0.0,0.0,0.0,0.0,0.0,0.0,0.0,0.0,0.0,0.0,0.0,0.0,0.0,0.0,0.0,0.0,0.0,0.0,0.0,0.0,0.0,0.0,0.0,0.0,0.0,0.0,0.0,0.0,0.0,0.0,0.0,0.0,0.0,0.0,0.0,0.0,0.0,0.0,0.0,0.0,0.0,0.0,0.0,0.0,0.0,0.0,0.0,0.0,0.0,0.0,0.0,0.0,0.0,0.0,0.0,0.0,0.0,0.0,0.0,0.0,0.0,0.0,0.0,0.0,0.0,0.0,0.0,0.0,0.0,0.0,0.0,0.0,0.0,0.0,0.0,0.0,0.0,0.0,0.0,0.0,0.0,0.0,0.0,0.0,0.0,0.0,0.0,0.0,0.0,0.0,0.0,0.0,0.0,0.0,0.0,0.0,1.4769,1.6428,1.6712,1.529,1.4215,1.324,1.2282,0.0,0.0,0.0,0.0,0.0,0.0,0.0,0.0,0.0,0.0,0.0,0.0,0.0,0.0,0.0,0.0,0.0,0.0,0.0,0.0,0.0,0.0,0.0,0.0,0.0,0.0,0.0,0.0,0.0,0.0,0.0,0.0,0.0,0.0,0.0,0.0,0.0,0.0,0.0,0.0,0.0,0.0,0.0,0.0,0.0,0.0,0.0,0.0,0.0,0.0,0.0,0.0,0.0,0.0,0.0,0.0,0.0,0.0,0.0,0.0,0.0,0.0,0.0,0.0,0.0,0.0,0.0,0.0,0.0,0.0,0.0,0.0,0.0,0.0,0.0,0.0,0.0,0.0,0.0,0.0,0.0,0.0,0.0,0.0,0.0,0.0,0.0,0.0,0.0,0.0,0.0,0.0,0.0,0.0,0.0,0.0,0.0,0.0,0.0,0.0,0.0,0.0,0.0,0.0,0.0,0.0,0.0,0.0,1.5972,1.8105,1.8106,1.5617,1.5421,1.3916,0.0,0.0,0.0,0.0,0.0,0.0,0.0,0.0,0.0,0.0,0.0,0.0,0.0,0.0,0.0,0.0,0.0,0.0,0.0,0.0,0.0,0.0,0.0,0.0,0.0,0.0,0.0,0.0,0.0,0.0,0.0,0.0,0.0,0.0,0.0,0.0,0.0,0.0,0.0,0.0,0.0,0.0,0.0,0.0,0.0,0.0,0.0,0.0,0.0,0.0,0.0,0.0,0.0,0.0,0.0,0.0,0.0,0.0,0.0,0.0,0.0,0.0,0.0,0.0,0.0,0.0,0.0,0.0,0.0,0.0,0.0,0.0,0.0,0.0,0.0,0.0,0.0,0.0,0.0,0.0,0.0,0.0,0.0,0.0,0.0,0.0,0.0,0.0,0.0,0.0,0.0,0.0,0.0,0.0,0.0,0.0,0.0,0.0,0.0,0.0,0.0,0.0,0.0,0.0,0.0,0.0,0.0,0.0,0.0,1.7523,1.8711,1.8617,1.7081,1.5675,1.4601,0.0,0.0,0.0,0.0,0.0,0.0,0.0,0.0,0.0,0.0,0.0,0.0,0.0,0.0,0.0,0.0,0.0,0.0,0.0,0.0,0.0,0.0,0.0,0.0,0.0,0.0,0.0,0.0,0.0,0.0,0.0,0.0,0.0,0.0,0.0,0.0,0.0,0.0,0.0,0.0,0.0,0.0,0.0,0.0,0.0,0.0,0.0,0.0,0.0,0.0,0.0,0.0,0.0,0.0,0.0,0.0,0.0,0.0,0.0,0.0,0.0,0.0,0.0,0.0,0.0,0.0,0.0,0.0,0.0,0.0,0.0,0.0,0.0,0.0,0.0,0.0,0.0,0.0,0.0,0.0,0.0,0.0,0.0,0.0,0.0,0.0,0.0,0.0,0.0,0.0,0.0,0.0,0.0,0.0,0.0,0.0,0.0,0.0,0.0,0.0,0.0,0.0,0.0,0.0,0.0,0.0,0.0,0.0,1.777,1.8357,1.8825,1.8783,1.8319,1.643,1.4836,0.0,0.0,0.0,0.0,0.0,0.0,0.0,0.0,0.0,0.0,0.0,0.0,0.0,0.0,0.0,0.0,0.0,0.0,0.0,0.0,0.0,0.0,0.0,0.0,0.0,0.0,0.0,0.0,0.0,0.0,0.0,0.0,0.0,0.0,0.0,0.0,0.0,0.0,0.0,0.0,0.0,0.0,0.0,0.0,0.0,0.0,0.0,0.0,0.0,0.0,0.0,0.0,0.0,0.0,0.0,0.0,0.0,0.0,0.0,0.0,0.0,0.0,0.0,0.0,0.0,0.0,0.0,0.0,0.0,0.0,0.0,0.0,0.0,0.0,0.0,0.0,0.0,0.0,0.0,0.0,0.0,0.0,0.0,0.0,0.0,0.0,0.0,0.0,0.0,0.0,0.0,0.0,0.0,0.0,0.0,0.0,0.0,0.0,0.0,0.0,0.0,0.0,0.0,0.0,0.0,0.0,0.0,0.0,1.7972,1.8696,1.8674,1.8761,1.9052,1.735,1.5065,0.0,0.0,0.0,0.0,0.0,0.0,0.0,0.0,0.0,0.0,0.0,0.0,0.0,0.0,0.0,0.0,0.0,0.0,0.0,0.0,0.0,0.0,0.0,0.0,0.0,0.0,0.0,0.0,0.0,0.0,0.0,0.0,0.0,0.0,0.0,0.0,0.0,0.0,0.0,0.0,0.0,0.0,0.0,0.0,0.0,0.0,0.0,0.0,0.0,0.0,0.0,0.0,0.0,0.0,0.0,0.0,0.0,0.0,0.0,0.0,0.0,0.0,0.0,0.0,0.0,0.0,0.0,0.0,0.0,0.0,0.0,0.0,0.0,0.0,0.0,0.0,0.0,0.0,0.0,0.0,0.0,0.0,0.0,0.0,0.0,0.0,0.0,0.0,0.0,0.0,0.0,0.0,0.0,0.0,0.0,0.0,0.0,0.0,0.0,0.0,0.0,0.0,0.0,0.0,0.0,0.0,0.0,0.0,1.854,1.8705,1.8372,1.8021,1.7813,1.7209,1.6121,0.0,0.0,0.0,0.0,0.0,0.0,0.0,0.0,0.0,0.0,0.0,0.0,0.0,0.0,0.0,0.0,0.0,0.0,0.0,0.0,0.0,0.0,0.0,0.0,0.0,0.0,0.0,0.0,0.0,0.0,0.0,0.0,0.0,0.0,0.0,0.0,0.0,0.0,0.0,0.0,0.0,0.0,0.0,0.0,0.0,0.0,0.0,0.0,0.9894,0.0,0.0,0.0,0.0,0.0,0.0,0.0,0.0,0.0,0.0,0.0,0.0,0.0,0.0,0.0,0.0,0.0,0.0,0.0,0.0,0.0,0.0,0.0,0.0,0.0,0.0,0.0,0.0,0.0,0.0,0.0,0.0,0.0,0.0,0.0,0.0,0.0,0.0,0.0,0.0,0.0,0.0,0.0,0.0,0.0,0.0,0.0,0.0,0.0,0.0,0.0,0.0,0.0,0.0,0.0,0.0,0.0,0.0,0.0,1.8806,1.8981,1.836,1.802,1.7985,1.7145,1.5987,0.0,0.0,0.0,0.0,0.0,0.0,0.0,0.0,0.0,0.0,0.0,0.0,0.0,0.0,0.0,0.0,0.0,0.0,0.0,0.0,0.0,0.0,0.0,0.0,0.0,0.0,0.0,0.0,0.0,0.0,0.0,0.0,0.0,0.0,0.0,0.0,0.0,0.0,0.0,0.0,0.0,0.0,0.0,0.0,0.0,0.0,0.0,0.0,0.0,0.0,0.0,0.0,0.0,0.0,0.0,0.0,0.0,0.0,0.0,0.0,0.0,0.0,0.0,0.0,0.0,0.0,0.0,0.0,0.0,0.0,0.0,0.0,0.0,0.0,0.0,0.0,0.0,0.0,0.0,0.0,0.0,0.0,0.0,0.0,0.0,0.0,0.0,0.0,0.0,0.0,0.0,0.0,0.0,0.0,0.0,0.0,0.0,0.0,0.0,0.0,0.0,0.0,0.0,0.0,0.0,0.0,0.0,1.8192,1.8907,1.9256,1.8434,1.8197,1.8595,1.7195,1.5402,1.3215,0.0,0.0,0.0,0.0,0.0,0.0,0.0,0.0,0.0,0.0,0.0,0.0,0.0,0.0,0.0,0.0,0.0,0.0,0.0,0.0,0.0,0.0,0.0,0.0,0.0,0.0,0.0,0.0,0.0,0.0,0.0,0.0,0.0,0.0,0.0,0.0,0.0,0.0,0.9384,0.9786,0.0,0.0,0.0,0.0,0.0,0.0,0.0,0.0,1.0291,0.0,0.0,0.0,0.0,0.0,0.0,0.0,0.0,0.0,0.0,0.0,0.0,0.0,0.0,0.0,0.0,0.0,0.0,0.0,0.0,0.0,0.0,0.0,0.0,0.0,0.0,0.0,0.0,0.0,0.0,0.0,0.0,0.0,0.0,0.0,0.0,0.0,0.0,0.0,0.0,0.0,0.0,0.0,0.0,0.0,0.0,0.0,0.0,0.0,0.0,0.0,0.0,0.0,0.0,0.0,0.0,1.8394,1.8614,1.8907,1.9283,1.8135,1.7714,1.8154,1.7243,1.5705,1.3549,0.0,0.0,0.0,0.0,0.0,0.0,0.0,0.0,0.0,0.0,0.0,0.0,0.0,0.0,0.0,0.0,0.0,0.0,0.0,0.0,0.0,0.0,0.0,0.0,0.0,0.0,0.0,0.0,0.0,0.0,0.0,0.0,0.0,0.0,0.0,0.0,0.0,0.0,0.0,1.0211,1.0419,0.0,0.0,0.0,0.0,0.0,0.0,0.0,0.0,1.039,0.0,0.0,0.0,0.0,0.0,0.0,0.0,0.0,0.0,0.0,0.0,0.0,0.0,0.0,0.0,0.0,0.0,0.0,0.0,0.0,0.0,0.0,0.0,0.0,0.0,0.0,0.0,0.0,0.0,0.0,0.0,0.0,0.0,0.0,0.0,0.0,0.0,0.0,0.0,0.0,0.0,0.0,0.0,0.0,0.0,0.0,0.0,0.0,0.0,0.0,0.0,0.0,0.0,0.0,0.0,1.7757,1.862,1.9017,1.899,1.8213,1.7752,1.7734,1.6595,1.5163,0.0,0.0,0.0,0.0,0.0,0.0,0.0,0.0,0.0,0.0,0.0,0.0,0.0,0.0,0.0,0.0,0.0,0.0,0.0,0.0,0.0,0.0,0.0,0.0,0.0,0.0,0.0,0.0,0.0,0.0,0.0,0.0,0.0,0.0,0.0,0.0,0.0,0.0,0.0,0.0,1.0291,1.0461,1.0579,0.0,0.0,0.0,0.0,0.0,0.0,1.0338,1.0343,0.0,0.0,0.0,0.0,0.0,0.0,0.0,0.0,0.0,0.0,0.0,0.0,0.0,0.0,0.0,0.0,0.0,0.0,0.0,0.0,0.0,0.0,0.0,0.0,0.0,0.0,0.0,0.0,0.0,0.0,0.0,0.0,0.0,0.0,0.0,0.0,0.0,0.0,0.0,0.0,0.0,0.0,0.0,0.0,0.0,0.0,0.0,0.0,0.0,0.0,0.0,0.0,0.0,0.0,0.0,1.7033,1.8344,1.8879,1.8561,1.8104,1.7696,1.7351,1.6096,1.4765,0.0,0.0,0.0,0.0,0.0,0.0,0.0,0.0,0.0,0.0,0.0,0.0,0.0,0.0,0.0,0.0,0.0,0.0,0.0,0.0,0.0,0.0,0.0,0.0,0.0,0.0,0.0,0.0,0.0,0.0,0.0,0.0,0.0,0.0,0.0,0.0,0.0,0.0,0.0,0.0,0.0,1.0551,1.0792,1.0584,0.0,0.0,0.0,0.0,1.0395,1.04,0.0,0.0,0.0,0.0,0.0,0.0,0.0,0.0,0.0,0.0,0.0,0.0,0.0,0.0,0.0,0.0,0.0,0.0,0.0,0.0,0.0,0.0,0.0,0.0,0.0,0.0,0.0,0.0,0.0,0.0,0.0,0.0,0.0,0.0,0.0,0.0,0.0,0.0,0.0,0.0,0.0,0.0,0.0,0.0,0.0,0.0,0.0,0.0,0.0,0.0,0.0,0.0,0.0,0.0,0.0,0.0,1.7388,1.7979,1.8219,1.8252,1.7497,1.7029,1.6991,1.6422,1.5223,0.0,0.0,0.0,0.0,0.0,0.0,0.0,0.0,0.0,0.0,0.0,0.0,0.0,0.0,0.0,0.0,0.0,0.0,0.0,0.0,0.0,0.0,0.0,0.0,0.0,0.0,0.0,0.0,0.0,0.0,0.0,0.0,0.0,0.0,0.0,0.0,0.0,0.0,0.0,0.0,0.0,1.0972,1.0655,1.0735,1.0754,0.0,0.0,1.0825,1.0825,1.0825,0.0,0.0,0.0,0.0,0.0,0.0,0.0,0.0,0.0,0.0,0.0,0.0,0.0,0.0,0.0,0.0,0.0,0.0,0.0,0.0,0.0,0.0,0.0,0.0,0.0,0.0,0.0,0.0,0.0,0.0,0.0,0.0,0.0,0.0,0.0,0.0,0.0,0.0,0.0,0.0,0.0,0.0,0.0,0.0,0.0,0.0,0.0,0.0,0.0,0.0,0.0,0.0,0.0,0.0,0.0,1.5985,1.6791,1.764,1.7917,1.7778,1.7183,1.6805,1.6564,1.5982,1.4748,0.0,0.0,0.0,0.0,0.0,0.0,0.0,0.0,0.0,0.0,0.0,0.0,0.0,0.0,0.0,0.0,0.0,0.0,0.0,0.0,0.0,0.0,0.0,0.0,0.0,0.0,0.0,0.0,0.0,0.0,0.0,0.0,0.0,0.0,0.0,0.0,0.0,0.0,0.0,0.0,0.0,0.0,1.0915,1.091,0.0,0.0,0.0,1.0853,1.0731,0.0,0.0,0.0,0.0,0.0,0.0,0.0,0.0,0.0,0.0,0.0,0.0,0.0,0.0,0.0,0.0,0.0,0.0,0.0,0.0,0.0,0.0,0.0,0.0,0.0,0.0,0.0,0.0,0.0,0.0,0.0,0.0,0.0,0.0,0.0,0.0,0.0,0.0,0.0,0.0,0.0,0.0,0.0,0.0,0.0,0.0,0.0,0.0,0.0,0.0,0.0,0.0,0.0,0.0,0.0,0.0,0.0,1.6277,1.733,1.7683,1.731,1.6792,1.643,1.6117,1.5553,0.0,0.0,0.0,0.0,0.0,0.0,0.0,0.0,0.0,0.0,0.0,0.0,0.0,0.0,0.0,0.0,0.0,0.0,0.0,0.0,0.0,0.0,0.0,0.0,0.0,0.0,0.0,0.769,0.0,0.0,0.0,0.0,0.0,0.0,0.0,0.0,0.0,0.0,0.0,0.0,0.0,0.0,1.0768,1.1075,1.1033,1.0972,0.0,0.0,1.0915,1.0754,1.0863,1.083,0.0,0.0,0.0,0.0,0.0,0.0,0.0,0.0,0.0,0.0,0.0,0.0,0.0,0.0,0.0,0.0,0.0,0.0,0.0,0.0,0.0,0.0,0.0,0.0,0.0,0.0,0.0,0.0,0.0,0.0,0.0,0.0,0.0,0.0,0.0,0.0,0.0,0.0,0.0,0.0,0.0,0.0,0.0,0.0,0.0,0.0,0.0,0.0,0.0,0.0,0.0,0.0,0.0,0.0,1.5649,1.6277,1.7092,1.7299,1.6926,1.6175,1.5742,1.5757,1.5369,1.4308,0.0,0.0,0.0,0.0,0.0,0.0,0.0,0.0,0.0,0.0,0.0,0.0,0.0,0.0,0.0,0.0,0.0,0.0,0.0,0.0,0.0,0.0,0.0,0.0,0.0,0.0,0.0,0.0,0.0,0.0,0.0,0.0,0.0,0.0,0.0,0.0,0.0,0.0,0.0,0.0,0.0,1.0882,1.091,1.1061,1.1175,0.0,1.1175,1.117,1.1151,1.1161,1.1028,1.0622,0.0,0.0,0.0,0.0,0.0,0.0,0.0,0.0,0.0,0.0,0.0,0.0,0.0,0.0,0.0,0.0,0.0,0.0,0.0,0.0,0.0,0.0,0.0,0.0,0.0,0.0,0.0,0.0,0.0,0.0,0.0,0.0,0.0,0.0,0.0,0.0,0.0,0.0,0.0,0.0,0.0,0.0,0.0,0.0,0.0,0.0,0.0,0.0,0.0,0.0,0.0,0.0,0.0,1.5502,1.5912,1.6839,1.7145,1.6774,1.6054,1.5687,1.5702,1.5154,1.3924,0.0,0.0,0.0,0.0,0.0,0.0,0.0,0.0,0.0,0.0,0.0,0.0,0.0,0.0,0.0,0.0,0.0,0.0,0.0,0.0,0.0,0.0,0.0,0.0,0.0,0.0,0.0,0.0,0.8042,0.8236,0.8732,0.0,0.0,0.0,0.0,0.0,0.0,0.0,0.0,0.0,0.0,1.108,1.108,1.126,0.0,0.0,1.1194,1.1194,1.1194,1.1194,1.1104,1.0816,1.0773,0.0,0.0,0.0,0.0,0.0,0.0,0.0,0.0,0.0,0.0,0.0,0.0,0.0,0.0,0.0,0.0,0.0,0.0,0.0,0.0,0.0,0.0,0.0,0.0,0.0,0.0,0.0,0.0,0.0,0.0,0.0,0.0,0.0,0.0,0.0,0.0,0.0,0.0,0.0,0.0,0.0,0.0,0.0,0.0,0.0,0.0,0.0,0.0,0.0,0.0,0.0,0.0,1.5348,1.5674,1.673,1.7096,1.6656,1.615,1.5785,1.5666,1.5118,1.3956,0.0,0.0,0.0,0.0,0.0,0.0,0.0,0.0,0.0,0.0,0.0,0.0,0.0,0.0,0.0,0.0,0.0,0.0,0.0,0.0,0.0,0.0,0.0,0.0,0.0,0.0,0.0,0.0,0.8514,0.8703,0.8992,0.0,0.0,0.0,0.0,0.0,0.0,0.0,0.0,0.0,0.0,1.1194,1.1194,1.1326,1.1368,1.1217,1.1194,1.1194,1.1194,1.1246,1.1203,1.0943,0.0,0.0,0.0,0.0,0.0,0.0,0.0,0.0,0.0,0.0,0.0,0.0,0.0,0.0,0.0,0.0,0.0,0.0,0.0,0.0,0.0,0.0,0.0,0.0,0.0,0.0,0.0,1.5742,0.0,0.0,1.446,0.0,0.0,0.0,0.0,0.0,0.0,0.0,0.0,0.0,0.0,0.0,0.0,0.0,0.0,0.0,0.0,0.0,0.0,0.0,0.0,0.0,0.0,1.5364,1.569,1.6746,1.7104,1.6746,1.6373,1.6023,1.569,1.5348,1.4449,1.3005,0.0,0.0,0.0,0.0,0.0,0.0,0.0,0.0,0.0,0.0,0.0,0.0,0.0,0.0,0.0,0.0,0.0,0.0,0.0,0.0,0.0,0.0,0.0,0.0,0.0,0.0,0.8475,0.877,0.9015,0.0,0.0,0.0,0.0,0.0,0.0,0.0,0.0,0.0,1.0891,1.1066,1.1198,1.1198,1.1203,1.1227,1.1208,1.1203,1.1203,1.1208,1.1373,1.1373,0.0,0.0,0.0,0.0,0.0,0.0,0.0,0.0,0.0,0.0,0.0,0.0,0.0,0.0,0.0,0.0,0.0,0.0,0.0,0.0,0.0,0.0,0.0,0.0,0.0,0.0,0.0,1.7704,1.7213,0.0,0.0,0.0,0.0,0.0,0.0,0.0,0.0,0.0,0.0,0.0,1.835,1.8323,0.0,0.0,0.0,0.0,0.0,0.0,0.0,0.0,0.0,0.0,0.0,0.0,1.592,1.6071,1.7072,1.7326,1.6754,1.6389,1.6031,1.5682,1.5356,1.4472,1.3028,0.0,0.0,0.0,0.0,0.0,0.0,0.0,0.0,0.0,0.0,0.0,0.0,0.0,0.0,0.0,0.0,0.0,0.0,0.0,0.0,0.0,0.0,0.0,0.0,0.0,0.9555,0.0,0.0,0.0,0.0,0.0,0.0,0.0,0.0,0.0,0.0,0.0,1.1094,1.1094,1.1387,1.1557,1.143,1.1524,1.1609,0.0,0.0,0.0,0.0,0.0,0.0,0.0,0.0,0.0,0.0,0.0,0.0,0.0,0.0,1.2847,1.2157,1.1803,1.189,1.2736,0.0,0.0,0.0,0.0,0.0,0.0,0.0,0.0,0.0,0.0,0.0,0.0,0.0,0.0,1.9277,1.8938,1.813,0.0,0.0,0.0,0.0,0.0,0.0,0.0,0.0,2.0454,2.0761,2.0328,2.0182,1.9519,0.0,1.8127,1.7324,0.0,0.0,0.0,0.0,0.0,0.0,0.0,0.0,1.6261,1.6428,1.7302,1.7437,1.677,1.6508,1.6222,1.5872,1.5302,1.4398,1.3023,1.1908,1.122,0.0,0.0,0.0,0.0,0.0,0.0,0.0,0.0,0.0,0.0,0.0,0.0,0.0,0.0,0.0,0.0,0.0,0.0,0.0,0.0,0.0,0.0,0.0,0.9742,0.0,0.0,0.0,0.0,0.0,0.0,0.0,0.0,0.0,1.1009,1.1307,1.1496,1.1425,1.1713,1.1855,1.1652,0.0,0.0,0.0,0.0,0.0,0.0,0.0,1.1722,1.134,1.128,1.145,1.1634,1.2616,1.324,1.3093,0.0,0.0,1.2805,1.2663,1.2894,1.3752,1.4024,1.4495,1.5559,1.5304,1.4934,0.0,0.0,0.0,0.0,1.9963,0.0,0.0,0.0,2.1048,2.1027,0.0,2.0402,0.0,0.0,0.0,0.0,1.9018,2.1281,0.0,0.0,2.3956,2.4172,2.2523,2.2431,2.1524,1.9974,1.9713,1.9267,1.8485,1.7269,0.0,0.0,0.0,0.0,0.0,0.0,1.642,1.6754,1.7421,1.7437,1.6762,1.673,1.6563,1.6206,1.5225,1.4136,1.3051,1.2585,1.1751,1.0469,1.0121,0.0,0.0,0.0,0.0,0.0,0.0,0.0,0.0,0.0,0.0,0.0,0.0,0.0,0.0,0.0,0.0,0.0,0.0,0.0,0.0,0.9455,0.0,0.0,0.0,0.0,0.0,0.0,0.0,0.0,0.0,1.1463,1.1283,1.1756,1.2063,1.186,0.0,0.0,0.0,0.0,1.1831,1.1737,1.1733,1.1812,1.2009,1.2196,1.2327,1.2351,0.0,0.0,1.2828,1.3291,1.3551,1.3164,1.3429,1.3688,1.3665,1.366,1.3972,1.4535,1.4591,1.5011,1.5893,1.5171,1.4071,2.3004,0.0,0.0,0.0,0.0,2.228,2.2841,2.3886,2.3198,2.2903,2.2859,2.2051,0.0,0.0,0.0,0.0,0.0,0.0,2.2698,2.287,2.3268,2.3173,2.2639,2.1783,2.1013,2.0234,2.0176,1.9988,1.9754,1.9076,1.7885,1.6162,0.0,0.0,0.0,0.0,1.7254,1.7159,1.7548,1.7437,1.6738,1.673,1.6563,1.6214,1.5225,1.4503,1.4165,1.3246,1.2383,1.1783,1.1132,0.0,0.0,0.0,0.0,0.0,0.0,0.0,0.0,0.0,0.0,0.0,0.0,0.0,0.0,0.0,0.0,0.0,0.0,0.0,0.9988,1.0341,1.081,0.0,0.0,0.0,0.0,0.0,0.0,0.0,0.0,0.0,1.2072,1.211,1.2172,0.0,0.0,1.212,1.2058,1.2049,1.1884,1.1379,1.1294,0.0,1.1368,1.142,1.1546,1.1816,1.2181,1.2416,1.2364,1.3095,1.3651,1.3528,1.3608,1.3688,1.3684,1.3118,1.314,1.3839,1.4137,1.4559,1.5505,1.6031,1.613,2.4713,2.3824,2.3292,2.3292,2.3783,2.3697,2.4208,2.5131,2.4552,2.441,2.4541,2.3777,2.3176,2.2622,2.2082,0.0,0.0,0.0,2.3726,2.397,2.3991,2.373,2.3086,2.2473,2.1793,2.1275,2.0826,2.0555,2.0555,2.015,1.9166,1.7647,0.0,0.0,1.7048,1.7525,1.7668,1.7493,1.7668,1.7429,1.6746,1.673,1.6563,1.6222,1.5492,1.4917,1.4475,1.3635,1.2975,1.2542,1.1786,1.1244,0.0,0.0,0.0,0.0,0.0,0.0,0.0,0.0,0.0,0.0,0.0,0.9408,0.8569,0.0,0.0,0.0,1.0132,1.0419,1.0926,1.1478,0.0,0.0,0.0,0.0,0.0,0.0,0.0,1.3592,1.3428,1.3317,1.3327,1.3054,1.2615,1.2436,1.2332,1.2261,1.2257,0.0,1.2084,1.166,1.135,1.1156,1.1219,1.09,1.0799,1.1149,1.1442,1.1627,1.1631,1.2118,1.2719,1.3084,1.332,1.3679,1.4038,1.343,1.3306,1.4267,1.4971,1.5682,1.6284,1.6569,1.6355,2.5895,2.5819,2.46,2.4164,2.4357,2.48,2.5066,2.5229,2.5229,2.548,2.5852,2.5437,2.4897,2.4292,2.3724,0.0,2.4335,2.4778,2.4952,2.4946,2.5464,2.502,2.3714,2.3627,2.3202,2.2539,2.1445,2.0898,2.0898,2.0499,2.0146,1.9761,1.8682,1.8156,1.8345,1.8001,1.7842,1.7811,1.7787,1.7437,1.6754,1.673,1.6498,1.6182,1.5822,1.518,1.4165,1.3864,1.3345,1.2723,1.2258,1.1866,1.1582,0.0,0.0,0.0,0.0,0.0,0.0,0.0,0.0,0.0,0.0,0.0,0.0,0.0,0.0,0.0,1.2118,0.0,1.22,1.2904,0.0,0.0,0.0,1.3718,1.3876,1.4155,1.4413,1.4773,0.0,0.0,1.4885,1.4244,1.3467,1.2687,1.2441,1.2436,1.2436,1.2432,1.2436,1.2223,1.1564,1.1186,1.1312,1.0807,1.0478,1.0899,1.0774,1.0876,1.1,1.0906,1.1265,1.1993,1.2706,1.3306,1.4147,1.4013,1.4371,1.5229,1.6419,1.7238,1.7114,1.6372,1.5693,2.5895,2.5874,2.5561,2.5474,2.5485,2.5594,2.5732,2.5732,2.5721,2.5786,2.5884,2.5786,2.5666,2.5474,2.5354,2.5365,2.5474,2.5594,2.5619,2.5391,2.468,2.379,2.2911,2.2041,2.1445,2.0925,2.0654,2.0464,2.0482,2.0666,2.0423,1.972,1.9637,1.9406,1.8864,1.8667,1.8438,1.8176,1.7906,1.7437,1.6762,1.673,1.6437,1.5868,1.5274,1.4615,1.3807,1.349,1.3199,1.3019,1.2699,1.2397,1.2131,1.1117,0.0,0.0,0.0,0.0,0.0,0.0,0.0,0.0,0.0,1.1694,1.0098,0.0,1.2326,0.0,1.3099,1.3438,1.3013,1.3333,0.0,0.0,1.4411,1.4479,1.5805,1.5142,1.4939,1.571,1.5462,1.5194,1.4907,1.4724,1.442,1.3795,1.2985,1.2436,1.2436,1.2436,1.211,1.1564,1.1236,1.1143,1.108,1.109,1.1368,1.2405,1.1431,1.0833,1.1545,1.1423,1.1277,1.1514,1.1877,1.2234,1.2595,1.3545,1.4505,1.4748,1.5332,1.5806,1.6048,1.6474,1.6634,2.6223,2.6212,2.5994,2.5895,2.5895,2.5895,2.5895,2.5895,2.5895,2.5895,2.5895,2.5895,2.5895,2.5895,2.5895,2.5895,2.5895,2.5895,2.5464,2.4775,2.4413,2.3617,2.2394,2.1774,2.1338,2.1087,2.0728,2.0632,2.0841,2.0993,2.078,2.0314,2.0342,2.0066,1.953,1.8996,1.8653,1.8303,1.7954,1.7588,1.7207,1.7191,1.6952,1.6392,1.5852,1.5106,1.4166,1.3751,1.3379,1.3115,1.2856,1.2699,1.2662,1.1884,1.131,0.0,0.0,0.0,0.0,0.0,0.0,0.0,0.0,0.0,0.0,0.0,1.3151,1.3042,1.3984,1.4536,1.4331,1.4862,1.5364,1.5969,1.5748,1.5946,1.6732,1.6273,1.6132,1.6646,1.6442,1.6229,1.5881,1.5607,1.5349,1.4972,1.4156,1.3312,1.2915,1.2767,1.2441,1.1345,1.0794,1.0241,0.9471,0.9553,0.9842,1.0405,1.0023,0.9816,1.0292,1.0718,1.1144,1.1627,1.2586,1.3426,1.3909,1.4981,1.5817,1.5935,1.6053,1.6284,1.6408,1.6915,1.7035,2.6704,2.6671,2.6256,2.6092,2.607,2.6081,2.6016,2.5895,2.5895,2.5895,2.5895,2.5895,2.5895,2.5895,2.5895,2.5895,2.5906,2.5961,2.5285,2.4054,2.4654,2.3961,2.2288,2.21,2.211,2.2039,2.141,2.1197,2.1578,2.1475,2.1343,2.1205,2.0878,2.0432,2.0071,1.9252,1.87,1.8303,1.8001,1.7811,1.7763,1.7763,1.7636,1.7288,1.6802,1.5958,1.4663,1.4236,1.3781,1.3169,1.297,1.297,1.3194,1.2681,1.2264,0.0,1.1664,0.0,0.0,0.0,0.0,0.0,0.0,0.0,0.0,1.3466,1.3945,1.3973,1.4972,1.5642,1.569,1.6619,1.705,1.6845,1.7237,1.743,1.7183,1.7346,1.7485,1.7485,1.7485,1.7382,1.7008,1.6615,1.6172,1.5908,1.5519,1.4825,1.3821,1.3391,1.2707,1.1463,1.046,0.9581,0.8387,0.7891,0.8037,0.8084,0.837,0.8441,0.8812,0.9798,1.0895,1.1976,1.3292,1.4733,1.5935,1.6649,1.7126,1.7003,1.7126,1.7244,1.7109,1.6862,1.6994,2.7184,2.7173,2.7086,2.7042,2.7042,2.7042,2.6605,2.5895,2.5895,2.5895,2.5895,2.5895,2.5895,2.5895,2.5895,2.5895,2.5928,2.631,2.6034,2.5155,2.5064,2.4605,2.3601,2.2982,2.2712,2.2722,2.2608,2.2362,2.1958,2.2259,2.1801,2.0749,2.0933,2.0696,1.9958,0.0,0.0,0.0,1.8224,1.8065,1.7787,1.7763,1.7478,1.6885,1.6067,0.0,1.4336,1.3818,1.3525,1.3441,1.3592,0.0,0.0,0.0,0.0,0.0,0.0,0.0,0.0,0.0,0.0,0.0,1.4274,1.4082,1.374,1.4987,1.5749,1.5839,1.6204,1.6598,1.6798,1.7219,1.7382,1.7358,1.7605,1.7696,1.7449,1.7455,1.7485,1.7485,1.7485,1.7388,1.7147,1.6978,1.6762,1.6547,1.647,1.6092,1.5322,1.3902,1.274,1.2151,1.1152,1.0366,1.0139,0.9325,0.912,0.9858,0.9103,0.8803,0.9404,0.9633,1.0054,1.1257,1.1981,1.2946,1.4143,1.5095,1.6172,1.593,1.6762,1.7238,1.6166,1.5897,1.5639,2.7676,2.7654,2.7413,2.7315,0.0,2.7315,2.7042,2.6605,2.6594,2.6594,2.6594,2.6594,2.6594,2.6594,2.6594,2.6594,2.6605,2.6856,2.6331,2.5334,2.5189,2.4375,2.3102,2.2744,2.2564,2.2573,2.2467,2.2451,2.2373,2.2556,2.2249,2.1576,2.1753,2.1362,2.0508,1.9814,1.9105,1.8565,1.8557,1.8478,1.8303,1.8287,1.8029,1.759,1.6504,0.0,0.0,0.0,0.0,0.0,0.0,0.0,0.0,0.0,0.0,1.3676,1.3574,1.3676,1.4069,1.4226,1.4479,1.4877,1.527,1.5318,1.4914,1.5753,1.6404,1.6664,1.6815,1.7056,1.743,1.7485,1.7533,1.766,1.7678,1.7624,1.7509,1.7485,1.7485,1.7485,1.7485,1.7424,1.7304,1.7286,1.7237,1.7111,1.7086,1.6683,1.5738,1.4842,1.3851,1.2301,1.0607,0.9599,0.9606,0.9332,0.9154,0.9603,0.9261,0.9136,0.9576,1.0726,1.174,1.2462,1.3536,1.4852,1.5451,1.6172,1.6526,1.6526,1.7003,1.7003,1.593,1.6048,1.6408,2.8167,2.8134,2.773,2.7566,2.7566,2.7566,2.7566,2.7555,2.7381,0.0,0.0,2.7315,2.7315,2.7315,2.7315,2.7315,2.7326,2.7403,2.67,2.5422,2.5493,2.4507,2.2754,2.2754,2.2667,2.259,2.2407,2.2556,2.2779,2.2681,2.2627,2.2526,2.2526,2.2138,2.1362,2.0313,1.966,1.9127,1.8891,1.8827,1.8827,1.8827,1.8692,1.8398,1.732,1.6444,1.5763,1.4701,1.392,1.3664,1.3701,1.3845,1.4099,1.4117,1.4316,1.4745,1.4787,1.4896,1.5161,1.5221,1.5288,1.5378,1.603,1.6332,1.6115,1.6344,1.6676,1.7123,1.7165,1.7352,1.7823,1.7684,1.7636,1.7853,1.7678,1.7539,1.7491,1.7485,1.7485,1.7485,1.7485,1.7485,1.7473,1.7467,1.7485,1.7479,1.7196,1.658,1.53,1.4687,1.37,1.1519,0.9903,0.8781,0.8687,0.9088,0.9087,0.9449,0.9796,0.9899,1.0172,1.1864,1.3545,1.3545,1.5575,1.6885,1.7361,1.7361,1.7485,1.7485,1.7485,1.7244,1.629,1.6767,1.7238,2.8648,2.8637,2.8571,2.8549,2.8549,2.8549,2.8538,2.8484,2.7676,2.7315,2.7315,2.7315,2.7315,2.7315,2.7315,2.7315,2.7337,2.7741,2.7474,2.667,2.7025,2.6445,2.4927,2.483,2.4547,2.3978,2.3934,2.3656,2.3258,2.3203,2.2929,2.2526,2.2526,2.2347,2.1889,2.1761,2.124,2.0408,1.9317,1.8827,1.8827,1.8827,1.8804,1.8656,1.7781,1.6872,1.6134,1.5272,1.4646,1.4183,1.4419,1.4666,1.4914,1.4926,1.4974,1.5046,1.5052,1.5167,1.5433,1.565,1.5982,1.6441,1.6785,1.696,1.6936,1.7165,1.7346,1.7424,1.7412,1.7545,1.7829,1.7829,1.7811,1.7871,1.7841,1.7732,1.7509,1.7485,1.7485,1.7485,1.7485,1.7485,1.7485,1.7479,1.7361,1.7244,1.629,1.5316,1.4035,1.2705,1.1351,1.0069,0.9494,0.9265,0.9298,1.0196,1.0646,1.1106,1.1862,1.195,1.1129,1.2466,1.367,1.367,1.51,1.629,1.7244,1.7485,1.7485,1.7485,1.7485,1.7361,1.712,1.7361,1.6885,2.885,2.885,2.885,2.885,2.885,2.885,2.885,2.8724,2.8298,2.8102,2.8102,2.8091,2.8091,2.8091,2.8091,2.8091,2.8102,2.832,2.805,2.7306,2.7495,2.6829,2.5392,2.5294,2.4913,2.4251,2.4161,2.4044,2.3845,2.3746,2.3637,2.3438,2.3129,2.2833,2.2667,2.2261,2.1778,2.1413,2.0325,1.9684,1.9391,1.9391,1.9391,1.9383,1.8555,1.7911,1.7523,1.6381,1.5674,1.5417,1.5059,1.4986,1.5101,1.5113,1.5173,1.5312,1.5457,1.565,1.591,1.6175,1.6495,1.6881,1.702,1.7159,1.7298,1.7412,1.7485,1.7485,1.7485,1.766,1.8034,1.7835,1.7781,1.8076,1.7853,1.7618,1.7515,1.7485,1.7485,1.7485,1.7485,1.7485,1.7485,1.6879,1.6526,1.6284,1.4857,1.3306,1.2706,1.1375,1.0439,1.0569,1.0094,0.9622,0.9615,1.0087,1.0472,1.0546,1.1025,1.1175,1.0895,1.2225,1.3545,1.3784,1.5219,1.6649,1.7485,1.7485,1.7485,1.7485,1.7485,1.7485,1.7485,1.7485,1.7003,2.885,2.885,2.885,2.885,2.885,2.885,2.885,2.885,2.885,2.885,2.885,2.885,2.885,2.885,2.885,2.885,2.885,2.885,2.8456,2.7872,2.7882,2.702,2.5674,2.5586,2.5099,2.4251,2.4161,2.4161,2.4161,2.4161,2.4161,2.4152,2.3737,2.3529,2.352,2.283,2.2386,2.2261,2.162,2.0915,2.0071,2.0071,2.0063,1.9868,1.9267,1.8882,1.8686,1.7392,1.6633,1.6498,1.5694,1.5252,1.536,1.5372,1.5487,1.5747,1.5958,1.6193,1.6447,1.6664,1.6899,1.7153,1.7183,1.7267,1.7455,1.7485,1.7485,1.7485,1.7545,1.7774,1.8131,1.7871,1.7768,1.8197,1.7811,1.7503,1.7485,1.7485,1.7485,1.7485,1.7485,1.7367,1.7003,1.6172,1.5332,1.4495,1.2946,1.1752,1.1269,1.0425,1.0304,1.0668,1.0425,0.9805,0.9819,1.0172,1.029,1.0183,1.0657,1.0891,1.1023,1.2225,1.3306,1.3545,1.4976,1.629,1.6879,1.7009,1.7126,1.7361,1.7485,1.7485,1.7485,1.7485,1.7361,2.885,2.885,2.885,2.885,2.885,2.885,2.885,2.885,2.885,2.885,2.885,2.885,2.885,2.885,2.885,2.885,2.885,2.885,2.8746,2.8653,2.8653,2.7882,2.638,2.638,2.5596,2.4369,2.4189,2.4198,2.4198,2.4161,2.4161,2.4161,2.4152,2.4053,2.4035,2.4007,2.3683,2.3176,2.3141,2.2296,2.071,2.0669,2.0362,1.9957,1.9876,1.947,1.8822,1.7896,1.723,1.676,1.5981,1.568,1.6085,1.6163,1.629,1.6543,1.6604,1.6742,1.6984,1.7044,1.7165,1.7412,1.7436,1.7443,1.7479,1.7485,1.7485,1.7521,1.7708,1.795,1.8233,1.8016,1.7968,1.8215,1.7829,1.7485,1.7485,1.7485,1.7485,1.7485,1.7485,1.7126,1.6172,1.5569,1.4495,1.2466,1.1868,1.1148,1.0304,1.0065,0.9822,0.994,0.9822,0.9822,0.994,1.0785,1.1027,1.139,1.2466,1.2225,1.1748,1.2225,1.3426,1.259,1.3306,1.4614,1.5569,1.5811,1.629,1.7244,1.7485,1.7485,1.7485,1.7361,1.7003,2.885,2.885,2.885,2.885,2.885,2.885,2.885,2.885,2.885,2.885,2.885,2.885,2.885,2.885,2.885,2.885,2.885,2.885,2.856,2.8081,2.8081,2.745,2.6251,2.6173,2.5714,2.4932,2.4638,2.4519,2.4482,2.4271,2.4161,2.4161,2.4161,2.4161,2.4161,2.4161,2.4053,2.3845,2.3845,2.3277,2.2322,2.1875,2.1478,2.098,2.098,2.068,2.0,1.8935,1.8081,1.7728,1.6617,1.606,1.6266,1.629,1.6416,1.6676,1.6851,1.7044,1.7304,1.7322,1.737,1.7479,1.7485,1.7485,1.7485,1.7485,1.7539,1.7702,1.7811,1.7986,1.8239,1.8191,1.8167,1.8227,1.7937,1.7654,1.7497,1.7485,1.7485,1.7485,1.7485,1.7003,1.5693,1.4262,1.2586,1.1027,1.0668,1.0425,0.9819,0.9819,0.9819,0.9819,0.9819,0.9819,0.9819,1.0179,1.0547,1.0664,1.1023,1.1023,1.1023,1.1627,1.223,1.1756,1.2706,1.3899,1.5451,1.5575,1.593,1.6885,1.7485,1.7485,1.7485,1.6885,1.6166,2.885,2.885,2.885,2.885,2.885,2.885,2.885,2.885,2.885,2.885,2.885,2.885,2.885,2.885,2.885,2.885,2.885,2.885,2.8466,2.7987,2.8104,2.7486,2.6338,2.6374,2.6082,2.5487,2.5078,2.495,2.4895,2.4528,2.4317,2.4317,2.4207,2.4161,2.4161,2.4161,2.4161,2.4161,2.4161,2.3954,2.352,2.3138,2.2627,2.2038,2.202,2.1824,2.1138,1.9761,1.8879,1.8464,1.7149,1.635,1.6495,1.6519,1.664,1.6893,1.7086,1.728,1.7473,1.7485,1.7485,1.7485,1.7485,1.7485,1.7485,1.7485,1.7563,1.7726,1.7895,1.8112,1.8354,1.8402,1.8372,1.8294,1.804,1.7768,1.7527,1.7485,1.7485,1.7485,1.7485,1.7009,1.5693,1.3784,1.1985,1.0785,1.0425,1.0065,0.994,0.9819,0.9819,0.9819,0.9819,0.9819,0.9819,0.9819,0.9819,0.9819,0.994,1.0061,0.9819,1.0664,1.1152,1.091,1.2105,1.2942,1.366,1.4257,1.5095,1.6048,1.6526,1.6526,1.6166,1.5569,1.5213,2.885,2.885,2.885,2.885,2.885,2.885,2.885,2.8943,2.885,2.885,2.885,2.885,2.885,2.885,2.885,2.885,2.885,2.885,2.8757,2.8592,2.9088,2.8572,2.717,2.7452,2.6861,2.5663,2.5494,2.5326,2.5289,2.495,2.4757,2.4739,2.44,2.4189,2.4189,2.4198,2.4161,2.4161,2.4161,2.4161,2.4152,2.4053,2.3555,2.2687,2.2852,2.2545,2.1722,2.0488,1.9483,1.8856,1.7386,1.6636,1.7086,1.7159,1.7268,1.7388,1.7443,1.7461,1.7479,1.7485,1.7485,1.7485,1.7485,1.7485,1.7485,1.7485,1.7515,1.7521,1.798,1.8354,1.8595,1.8656,1.8565,1.8336,1.8058,1.7793,1.7527,1.7497,1.7485,1.7479,1.7361,1.6767,1.5693,1.4495,1.2946,1.1868,1.1511,1.1027,1.0061,0.9819,0.9819,0.9819,0.9819,0.9819,0.9819,0.9819,0.9819,0.9819,0.9819,0.9819,0.9819,0.9819,0.9943,0.9943,1.0422,1.0902,1.1627,1.235,1.3186,1.4023,1.4619,1.4738,1.5688,1.4381,1.4262,2.9669,2.9669,2.9669,2.9669,2.9669,2.9669,2.9669,2.9669,2.9393,2.922,2.9209,2.8932,2.885,2.885,2.885,2.885,2.885,2.885,2.856,2.8092,2.8157,2.8059,2.7632,2.7209,2.7088,2.6873,2.6185,2.561,2.5372,2.5216,2.5161,2.5142,2.5014,2.4821,2.4601,2.4556,2.4436,2.4189,2.4161,2.4161,2.418,2.4161,2.4072,2.3913,2.3494,2.2978,2.257,2.1869,2.1094,2.0672,1.9654,1.909,1.8878,1.8505,1.7958,1.7584,1.7485,1.7485,1.7485,1.7485,1.7485,1.7485,1.7485,1.7485,1.7485,1.7491,1.7545,1.775,1.8058,1.8396,1.865,1.8831,1.8831,1.8565,1.83,1.8028,1.7774,1.7587,1.7485,1.7361,1.6885,1.6048,1.5451,1.378,1.223,1.1752,1.1031,1.0425,0.994,0.9819,0.9819,0.9819,0.9819,0.9819,0.9819,0.9819,0.9819,0.9819,0.9819,0.9819,0.9819,0.9819,0.9943,0.9943,0.9819,1.0183,1.1265,1.259,1.3071,1.3904,1.4381,1.4619,1.6048,1.45,1.4381,3.0216,3.0216,3.0216,3.0216,3.0216,3.0216,3.0216,3.0216,2.9852,2.976,2.9658,2.9393,2.922,2.9301,2.9312,2.922,2.922,2.8943,2.8542,2.8211,2.8359,2.846,2.8309,2.7941,2.779,2.7611,2.6719,2.6023,2.5757,2.5491,2.5445,2.5546,2.5335,2.5124,2.4986,2.4968,2.4812,2.4592,2.4546,2.4556,2.4546,2.4546,2.4675,2.4886,2.437,2.3826,2.3583,2.3084,2.2525,2.2024,2.1209,2.037,1.9601,1.8886,1.8181,1.7596,1.7485,1.7485,1.7485,1.7485,1.7485,1.7485,1.7485,1.7485,1.7485,1.7485,1.7612,1.7853,1.8131,1.8402,1.8662,1.8915,1.8963,1.8722,1.8523,1.8269,1.7925,1.772,1.7581,1.7379,1.6885,1.6166,1.5569,1.4018,1.2826,1.1872,1.091,1.0304,0.9943,0.9819,0.9819,0.9825,0.9876,0.9869,0.9866,0.9873,0.9856,0.9852,0.9822,0.9819,0.9819,0.9819,0.9819,0.9819,0.994,1.0301,1.1265,1.259,1.3545,1.4376,1.4376,1.4257,1.4738,1.45,1.4018,3.0216,3.0306,3.0216,3.0306,3.0397,3.0306,3.0306,3.0306,3.0216,3.0216,3.0216,3.0125,3.0034,3.0125,3.0034,3.0136,3.0011,2.9335,2.914,2.9431,2.9816,2.9882,2.9663,2.9858,2.9151,2.7833,2.698,2.6663,2.6444,2.5848,2.5665,2.5775,2.5317,2.5197,2.5381,2.5372,2.5362,2.528,2.5243,2.5289,2.5353,2.5271,2.5289,2.5372,2.5335,2.5041,2.4667,2.4205,2.372,2.2982,2.1788,2.0259,1.9252,1.8396,1.7713,1.7596,1.7485,1.7485,1.7485,1.7485,1.7485,1.7485,1.7485,1.7485,1.7485,1.7509,1.7624,1.7859,1.8155,1.842,1.8668,1.8915,1.8988,1.874,1.8668,1.8432,1.807,1.7883,1.7781,1.7593,1.7286,1.6891,1.5935,1.4862,1.3789,1.2139,1.1425,1.0959,1.0138,0.99,0.9852,0.9876,0.9964,1.0019,0.9975,0.9934,0.991,0.9886,0.9842,0.9819,0.9819,0.9819,0.9819,0.9819,0.9819,1.0061,1.0304,1.1507,1.223,1.2942,1.3181,1.3665,1.3784,1.3545,1.2586,3.1217,3.1217,3.1217,3.1217,3.1205,3.1217,3.1205,3.1205,3.0847,3.0668,3.0589,3.0306,3.0216,3.0216,3.0216,3.0399,3.0686,3.0125,2.9851,3.0088,3.0518,3.0644,3.0548,3.0497,2.9518,2.799,2.7511,2.7107,2.6645,2.6307,2.6289,2.6307,2.6133,2.5931,2.5775,2.5775,2.5665,2.5399,2.5372,2.5372,2.5372,2.5381,2.55,2.5738,2.5775,2.5788,2.5954,2.5613,2.5218,2.4792,2.437,2.3063,2.0887,2.0106,1.919,1.7707,1.7485,1.7485,1.7485,1.7485,1.7485,1.7485,1.7485,1.7485,1.7509,1.766,1.7787,1.7925,1.8281,1.8607,1.871,1.8921,1.9018,1.8963,1.8794,1.8644,1.8396,1.8094,1.7968,1.7859,1.6987,1.6142,1.5616,1.463,1.3147,1.2277,1.1321,1.0493,1.0346,1.0225,1.0137,1.0151,1.0195,1.0181,1.0134,1.0114,1.0114,1.0025,0.9937,0.9876,0.9859,0.9819,0.9819,0.9819,0.9819,0.994,1.0061,1.0664,1.1627,1.1868,1.235,1.2711,1.3071,1.259,1.1989,3.1661,3.1661,3.1661,3.1661,3.1661,3.1661,3.1661,3.1661,3.1383,3.1217,3.1116,3.0937,3.0769,3.0758,3.0758,3.0933,3.1202,3.0898,3.0863,3.0971,3.0894,3.1152,3.1319,3.1019,2.9921,2.8512,2.7931,2.7413,2.6573,2.6444,2.6435,2.6545,2.6435,2.6307,2.6197,2.6188,2.605,2.5848,2.5839,2.5821,2.5821,2.5821,2.5949,2.616,2.6188,2.6325,2.6554,2.6325,2.6199,2.5972,2.556,2.4078,2.2161,2.1586,2.0666,1.953,1.8629,1.8402,1.8292,1.783,1.7485,1.7491,1.7569,1.763,1.7678,1.7871,1.8046,1.8227,1.8475,1.8722,1.8837,1.8963,1.9066,1.9072,1.8939,1.8794,1.8662,1.83,1.8118,1.8033,1.7375,1.6563,1.5719,1.4978,1.3324,1.2947,1.174,1.0889,1.1006,1.0644,1.041,1.031,1.0331,1.0307,1.028,1.029,1.0321,1.0198,1.0056,0.9988,0.9944,0.9859,0.9819,1.0061,1.0183,1.0183,1.0422,1.1382,1.2225,1.2109,1.1752,1.2475,1.2831,1.259,1.1989,3.1661,3.1661,3.1661,3.1661,3.1661,3.1661,3.1661,3.1661,3.1661,3.1661,3.1661,3.1572,3.1584,3.1661,3.1572,3.1644,3.1721,3.1596,3.1842,3.2019,3.1657,3.1596,3.238,3.1739,3.0596,2.9398,2.8349,2.752,2.6772,2.6387,2.6197,2.6518,2.6289,2.6197,2.6463,2.6573,2.6527,2.6472,2.6509,2.6499,2.6499,2.6527,2.6536,2.6554,2.6545,2.6554,2.6573,2.6545,2.6554,2.6354,2.5322,2.4411,2.3407,2.2605,2.213,2.1571,2.0565,1.9924,1.9461,1.8361,1.7687,1.7742,1.7793,1.7901,1.7931,1.8155,1.8378,1.8571,1.8686,1.8819,1.9,1.9066,1.9072,1.9072,1.9042,1.8933,1.8734,1.8481,1.8384,1.8366,1.8207,1.7796,1.6516,1.6005,1.5241,1.4409,1.3044,1.2312,1.1984,1.1265,1.0583,1.0375,1.0466,1.0466,1.0449,1.0466,1.0477,1.0337,1.0185,1.008,0.9988,0.989,0.9822,1.0061,1.0304,1.0422,1.0664,1.1382,1.1623,1.1386,1.1627,1.235,1.235,1.1868,1.1627,3.1661,3.1661,3.1661,3.1661,3.1661,3.1661,3.1661,3.1661,3.1661,3.1661,3.1661,3.1661,3.1661,3.1661,3.1673,3.1877,3.2058,3.1829,3.2214,3.2911,3.2464,3.2677,3.3203,3.2532,3.1597,3.0546,2.9398,2.8349,2.7511,2.6868,2.6571,2.6582,2.6472,2.6454,2.6582,2.6591,2.6591,2.6591,2.6591,2.6591,2.6591,2.6591,2.6591,2.6591,2.6591,2.6591,2.6591,2.6591,2.6591,2.6582,2.6245,2.5331,2.4292,2.3838,2.3271,2.2251,2.1023,2.0224,2.0165,1.9174,1.8332,1.8415,1.8477,1.8185,1.8197,1.8426,1.8595,1.8716,1.8843,1.8988,1.906,1.9072,1.9072,1.9072,1.9072,1.9042,1.8939,1.8752,1.865,1.8788,1.7758,1.7055,1.6719,1.6045,1.5247,1.4721,1.3629,1.2636,1.2435,1.1449,1.0531,1.0585,1.0646,1.0639,1.0636,1.0649,1.0602,1.0466,1.031,1.0154,1.0036,0.9903,0.9849,0.994,1.0061,1.0061,1.0061,1.0301,1.0301,1.0664,1.0664,1.1023,1.0785,1.0422,1.0422,3.1661,3.1661,3.1661,3.1661,3.1661,3.1661,3.1661,3.1661,3.1661,3.1661,3.1661,3.1661,3.1661,3.1661,3.1673,3.1829,3.2082,3.1817,3.2286,3.3188,3.344,3.3517,3.3566,3.3086,3.251,3.1586,3.0742,2.9702,2.8764,2.7824,2.7413,2.7107,2.6791,2.6582,2.6582,2.6591,2.6591,2.6591,2.6591,2.6591,2.6591,2.6591,2.6591,2.6591,2.6591,2.6591,2.6591,2.6591,2.6591,2.6582,2.6582,2.6127,2.5432,2.5313,2.4863,2.3847,2.271,2.2063,2.2113,2.1035,2.0244,2.0147,1.9807,1.9413,1.9106,1.9062,1.8849,1.8879,1.9,1.9054,1.9072,1.9072,1.9072,1.9072,1.9072,1.9072,1.9072,1.8831,1.8831,1.8776,1.8312,1.7634,1.7805,1.6899,1.6271,1.5578,1.4594,1.3613,1.2763,1.163,1.0721,1.0721,1.0721,1.0694,1.0683,1.069,1.0609,1.0487,1.0259,1.0131,1.0022,0.9886,0.9856,0.9819,0.9819,0.9819,0.9819,0.9819,0.994,1.0061,0.9819,0.9819,0.9819,0.9819,0.9819,3.1661,3.1661,3.1661,3.1661,3.1661,3.1661,3.1661,3.1661,3.1661,3.1661,3.1661,3.1661,3.1661,3.1661,3.1661,3.1685,3.1697,3.1685,3.2358,3.3284,3.4054,3.428,3.3632,3.3777,3.33,3.2387,3.2174,3.1257,3.011,2.9262,2.8638,2.8232,2.7628,2.6999,2.7098,2.6999,2.68,2.6582,2.6591,2.6591,2.6591,2.6591,2.6591,2.6591,2.6591,2.6591,2.6591,2.6591,2.6591,2.6591,2.6591,2.6582,2.6473,2.6582,2.6473,2.6044,2.4949,2.4336,2.4636,2.327,2.2591,2.2348,2.1652,2.1026,2.0362,1.9796,1.9285,1.9285,1.9194,1.9328,1.9328,1.92,1.92,1.9316,1.931,1.9158,1.9158,1.8867,1.8819,1.903,1.906,1.9066,1.9072,1.8944,1.853,1.7118,1.5739,1.434,1.3193,1.1762,1.1111,1.0721,1.0721,1.0717,1.0714,1.0717,1.0595,1.046,1.0168,0.9995,0.9927,0.9842,0.9832,0.9819,0.9819,0.9819,0.9819,0.9819,0.9819,0.9819,0.9819,0.9819,0.9819,0.9819,0.9819,3.1661,3.1661,3.1661,3.1661,3.1661,3.1661,3.1661,3.1661,3.1661,3.1661,3.1661,3.1661,3.1661,3.1661,3.1661,3.1661,3.1673,3.1745,3.2262,3.332,3.4354,3.4642,3.4352,3.4201,3.3819,3.3312,3.2488,3.1869,3.1348,3.0721,3.0193,2.9995,2.9577,2.9262,2.8213,2.8019,2.7609,2.6791,2.6591,2.6591,2.6591,2.6591,2.6591,2.6591,2.6591,2.6591,2.6591,2.6591,2.6591,2.6591,2.6591,2.6591,2.6591,2.6609,2.6628,2.6473,2.5887,2.536,2.5366,2.4691,2.3933,2.3954,2.2958,2.1846,2.1603,2.053,1.9973,1.9851,1.9851,1.9851,1.9851,1.959,1.959,1.968,1.9682,1.9638,1.9782,1.9394,1.9115,1.9176,1.92,1.9072,1.9072,1.92,1.881,1.8285,1.6856,1.5168,1.3595,1.2018,1.1362,1.0833,1.0673,1.0663,1.0639,1.0609,1.0483,1.0365,1.011,0.9917,0.9849,0.9819,0.9819,0.9819,0.9819,0.9819,0.9819,0.9819,0.9819,0.9819,0.9819,0.9819,0.9819,0.9819,0.9819,3.1849,3.1849,3.1749,3.1661,3.1661,3.1661,3.1661,3.1661,3.1661,3.1661,3.1661,3.1661,3.1661,3.1661,3.1661,3.1661,3.1745,3.1973,3.2491,3.332,3.4114,3.4571,3.4811,3.4543,3.4335,3.4237,3.3709,3.3201,3.2789,3.2162,3.1542,3.1235,3.103,2.9891,2.8946,2.8734,2.7912,2.6999,2.6691,2.6591,2.6591,2.6591,2.6591,2.6591,2.6591,2.6591,2.6591,2.6591,2.6591,2.6591,2.6591,2.6591,2.6637,2.6756,2.6848,2.6811,2.6776,2.669,2.6705,2.6463,2.6219,2.6106,2.4909,2.417,2.3311,2.2076,2.1089,2.0843,2.0475,2.0113,2.0113,1.9979,1.9973,1.9954,1.9973,1.9954,2.0049,1.9611,1.946,1.954,1.9596,1.959,1.959,1.9444,1.8792,1.8262,1.7602,1.5784,1.3548,1.2239,1.1589,1.1052,1.0754,1.0592,1.0558,1.048,1.0344,1.0219,1.0056,0.9914,0.9829,0.9819,0.9819,0.9819,0.9819,0.9819,0.9819,0.9819,0.9819,0.9819,0.9819,0.9819,0.9819,0.9819,0.9819,3.2276,3.2276,3.2164,3.2077,3.2089,3.2001,3.1925,3.1837,3.1749,3.1661,3.1661,3.1661,3.1661,3.1661,3.1661,3.1661,3.1805,3.2226,3.2755,3.332,3.3849,3.4378,3.4715,3.4726,3.4726,3.4823,3.4617,3.4323,3.3918,3.3499,3.2978,3.2465,3.1847,3.0916,2.9797,2.9157,2.8426,2.7314,2.6899,2.68,2.6691,2.6691,2.6691,2.6591,2.6591,2.6591,2.6591,2.6591,2.6591,2.6591,2.6591,2.6591,2.6683,2.694,2.7233,2.7251,2.7523,2.787,2.8019,2.8219,2.8183,2.8122,2.7013,2.6269,2.5277,2.3675,2.2452,2.1706,2.1215,2.0234,2.0234,2.0234,2.0234,2.0234,2.0234,2.0234,2.0189,1.9997,2.0055,1.9922,1.9985,1.9851,1.9941,1.9789,1.9012,1.8221,1.7552,1.6508,1.4276,1.2421,1.162,1.0992,1.0699,1.0555,1.0524,1.0337,1.0202,1.0131,0.9992,0.99,0.9819,0.9819,0.9819,0.9819,0.9819,0.9819,0.9819,0.9819,0.9819,0.9819,0.9819,0.9819,0.9819,0.9819,0.9819,3.3433,3.342,3.3733,3.3901,3.3733,3.2932,3.2624,3.245,3.2001,3.1749,3.1749,3.1749,3.1761,3.1761,3.1661,3.1661,3.1793,3.225,3.2779,3.3296,3.3801,3.4318,3.4739,3.4823,3.4823,3.4823,3.4823,3.4726,3.4628,3.4519,3.4103,3.4213,3.4005,3.2867,3.1224,3.0596,2.9567,2.8038,2.753,2.7323,2.7206,2.689,2.6791,2.6691,2.6591,2.6591,2.6591,2.6591,2.6591,2.6591,2.6591,2.6591,2.671,2.7004,2.7334,2.7636,2.804,2.8361,2.8462,2.87,2.8865,2.8609,2.7744,2.7013,2.6277,2.4548,2.3318,2.2459,2.1594,2.0729,2.0856,2.0602,2.0736,2.0862,2.0856,2.0856,2.0843,2.0803,2.0504,2.0348,2.024,2.0195,2.0112,2.0136,1.9525,1.8566,1.7742,1.6926,1.5317,1.3054,1.1324,1.0851,1.0507,1.0504,1.0497,1.0253,1.007,1.0059,0.9964,0.9876,0.9819,0.9819,0.9819,0.9819,0.9819,0.9819,0.9819,0.9819,0.9819,0.9819,0.9819,0.9819,0.9819,0.9819,0.9819,3.4568,3.4568,3.465,3.4637,3.4568,3.4165,3.3843,3.3771,3.3079,3.2747,3.2587,3.2176,3.1849,3.1849,3.1761,3.1661,3.1805,3.2238,3.2779,3.3296,3.3801,3.4318,3.4787,3.4823,3.4823,3.4823,3.4823,3.4823,3.4823,3.4726,3.4823,3.4726,3.4823,3.3895,3.2566,3.1938,3.1008,2.9472,2.8658,2.8252,2.7931,2.7511,2.6999,2.6899,2.6691,2.6591,2.6591,2.6591,2.6591,2.6591,2.6591,2.6701,2.6921,2.7233,2.7554,2.782,2.8333,2.8691,2.8691,2.8893,2.8966,2.8975,2.8361,2.8122,2.7633,2.6269,2.4548,2.3201,2.2709,2.1601,2.1109,2.0982,2.0989,2.0982,2.1102,2.1102,2.1102,2.1102,2.0856,2.0583,2.0459,2.0506,2.0434,2.0185,1.9892,1.9154,1.8066,1.7043,1.606,1.4215,1.2103,1.118,1.0851,1.0405,1.0368,1.0154,0.9992,0.9975,0.9937,0.9852,0.9819,0.9819,0.9819,0.9819,0.9819,0.9819,0.9819,0.9819,0.9819,0.9819,0.9819,0.9819,0.9819,0.9819,0.9819,3.5628,3.5628,3.5548,3.5561,3.548,3.5237,3.5156,3.5061,3.4332,3.3914,3.383,3.3091,3.2599,3.2438,3.2089,3.1849,3.1809,3.2238,3.2779,3.3308,3.3801,3.4318,3.4703,3.4823,3.4823,3.4823,3.4823,3.4823,3.4823,3.4823,3.4823,3.4823,3.4823,3.4225,3.3289,3.2778,3.2151,3.1235,3.0214,2.9597,2.9177,2.8242,2.7413,2.7196,2.689,2.6691,2.6591,2.6591,2.6591,2.6591,2.6609,2.6719,2.7059,2.7499,2.7746,2.7884,2.8544,2.8893,2.8975,2.8966,2.8984,2.8984,2.8984,2.8984,2.8618,2.7383,2.5782,2.3814,2.2952,2.2341,2.1355,2.1102,2.1109,2.1109,2.1102,2.1102,2.1102,2.1102,2.1102,2.0883,2.0808,2.0728,2.0584,2.0245,1.9932,1.9414,1.8343,1.7743,1.6631,1.5372,1.3586,1.2059,1.1188,1.0448,1.0215,1.0049,0.9941,0.9927,0.9893,0.9832,0.9819,0.9819,0.9822,0.9825,0.9819,0.9819,0.9819,0.9819,0.9819,0.9819,0.9819,0.9819,0.9819,0.9819,0.9819,3.6688,3.6766,3.712,3.7289,3.712,3.6308,3.5896,3.5816,3.5237,3.4815,3.4897,3.465,3.4236,3.383,3.3031,3.2351,3.2208,3.2478,3.3046,3.3671,3.398,3.4378,3.4763,3.4811,3.4823,3.4823,3.4823,3.4823,3.4823,3.4823,3.4823,3.4823,3.4714,3.4323,3.3511,3.34,3.2577,3.1768,3.137,3.1143,3.0618,2.9482,2.8648,2.8232,2.7501,2.6791,2.6582,2.6591,2.6591,2.6591,2.6591,2.6609,2.6774,2.738,2.7682,2.7985,2.8443,2.8984,2.8975,2.8984,2.8984,2.8984,2.8984,2.8984,2.8737,2.7882,2.6156,2.3442,2.3201,2.2709,2.1727,2.1109,2.1102,2.1102,2.1102,2.1102,2.1102,2.1102,2.1102,2.1015,2.0842,2.0742,2.0681,2.0227,1.9727,1.9231,1.8785,1.8094,1.728,1.6111,1.4475,1.2702,1.1385,1.0644,1.0392,1.0088,1.0019,0.9883,0.9886,0.9846,0.9832,0.9836,0.9832,0.9832,0.9825,0.9822,0.9819,0.9819,0.9819,0.9819,0.9819,0.9819,0.9819,0.9819,0.9819,3.7987,3.7644,3.781,3.7901,3.7901,3.7414,3.7246,3.7092,3.6439,3.6042,3.5949,3.5386,3.4979,3.465,3.4165,3.4095,3.3989,3.3808,3.4161,3.4404,3.4542,3.4583,3.4763,3.4823,3.4823,3.4823,3.4823,3.4823,3.4823,3.4823,3.4823,3.4823,3.4823,3.4628,3.4017,3.4115,3.3906,3.34,3.2801,3.2174,3.1246,3.0099,2.9177,2.886,2.7716,2.6989,2.6682,2.6591,2.6591,2.6591,2.6591,2.6591,2.6701,2.7105,2.7499,2.7811,2.8297,2.8718,2.8929,2.8975,2.8984,2.8984,2.8984,2.8984,2.8865,2.837,2.7383,2.5538,2.4556,2.3574,2.2341,2.1601,2.1229,2.1102,2.1229,2.1102,2.1102,2.1102,2.1082,2.0982,2.0882,2.0782,2.0635,2.0261,1.994,1.9635,1.9341,1.9018,1.8049,1.6915,1.5077,1.311,1.1853,1.0832,1.0575,1.0425,1.0236,1.0114,0.9978,0.993,0.9869,0.9856,0.989,0.9859,0.9829,0.9825,0.9822,0.9822,0.9825,0.9822,0.9819,0.9832,0.9842,0.9819,0.9819,3.8652,3.8217,3.8202,3.8202,3.8202,3.8202,3.8202,3.8127,3.7477,3.7246,3.7,3.6281,3.5722,3.5386,3.5251,3.5179,3.5495,3.5015,3.5251,3.5382,3.5174,3.4932,3.4981,3.5017,3.503,3.492,3.492,3.492,3.4823,3.4823,3.4823,3.4823,3.4823,3.4726,3.4823,3.4714,3.4519,3.4519,3.3918,3.3201,3.2476,3.1235,3.0525,2.9692,2.8648,2.7511,2.7098,2.6899,2.68,2.6591,2.6691,2.6682,2.6655,2.6995,2.7398,2.7756,2.8223,2.8608,2.8856,2.8984,2.8984,2.8984,2.8984,2.8984,2.8984,2.8984,2.837,2.6771,2.6034,2.4925,2.369,2.2466,2.1971,2.1601,2.1355,2.1229,2.1102,2.1102,2.1102,2.1056,2.0949,2.0808,2.0615,2.0301,2.008,1.996,1.9913,1.9843,1.8659,1.7357,1.5342,1.3302,1.1992,1.108,1.0926,1.0681,1.0479,1.0358,1.0228,1.0019,0.9961,0.9981,1.0039,0.9978,0.9886,0.9842,0.9846,0.9839,0.9836,0.9873,0.99,0.9876,0.9866,0.9839,0.9819,3.8246,3.8202,3.8202,3.8202,3.8202,3.8202,3.8202,3.8202,3.8127,3.8052,3.7886,3.7596,3.695,3.6545,3.6136,3.5857,3.5221,3.4743,3.5192,3.5328,3.5027,3.5219,3.5334,3.5375,3.5281,3.5101,3.4969,3.4921,3.4823,3.4799,3.4811,3.4823,3.4823,3.4823,3.4823,3.4823,3.4823,3.4823,3.4519,3.4519,3.4005,3.3189,3.2476,3.1938,3.0504,2.9061,2.8416,2.7824,2.7107,2.68,2.6899,2.689,2.6755,2.7087,2.7474,2.7746,2.8168,2.8563,2.8865,2.8984,2.8984,2.8984,2.8984,2.8984,2.8984,2.8984,2.837,2.7383,2.6771,2.6034,2.4802,2.3822,2.2709,2.1971,2.1475,2.1229,2.1102,2.1102,2.1102,2.1102,2.1029,2.0909,2.0775,2.0508,2.0347,2.0234,2.0225,2.0152,1.8453,1.7044,1.5129,1.3337,1.2151,1.1355,1.1185,1.0945,1.0845,1.0649,1.0521,1.0312,1.0056,1.0107,1.0205,1.011,1.0025,0.9947,0.9893,0.9941,0.9975,0.9981,0.9968,0.9893,0.9866,0.9852,0.9832,3.858,3.8202,3.8202,3.8202,3.8202,3.8202,3.8202,3.8202,3.8202,3.8202,3.8202,3.8066,3.7825,3.7567,3.7519,3.7487,3.7391,3.662,3.6683,3.665,3.6481,3.5724,3.5643,3.5366,3.5027,3.4723,3.4731,3.4832,3.4534,3.4812,3.4896,3.4823,3.4823,3.4823,3.4823,3.4823,3.4823,3.4823,3.4823,3.4823,3.4628,3.3808,3.3089,3.2655,3.1418,2.9995,2.9061,2.8658,2.7941,2.7431,2.7314,2.7107,2.6955,2.7188,2.7464,2.7746,2.8168,2.8572,2.8893,2.8984,2.8984,2.8984,2.8984,2.8984,2.8984,2.8984,2.8865,2.825,2.7513,2.665,2.5178,2.3822,2.2709,2.209,2.1601,2.1348,2.1229,2.1229,2.1102,2.1102,2.1096,2.1049,2.0915,2.0768,2.0635,2.0535,2.0557,2.019,1.8552,1.7087,1.5435,1.3904,1.2586,1.1775,1.16,1.1337,1.1084,1.0945,1.0816,1.0632,1.0433,1.031,1.0368,1.0266,1.0185,1.0134,1.0103,1.0107,1.011,1.0103,0.9992,0.9852,0.9846,0.9869,0.9842,3.8623,3.8217,3.8202,3.8202,3.8202,3.8202,3.8202,3.8202,3.8202,3.8202,3.8202,3.8202,3.8202,3.8202,3.8217,3.8301,3.8222,3.7648,3.7693,3.7414,3.6855,3.6307,3.5905,3.5581,3.5264,3.4607,3.4398,3.4482,3.4399,3.4822,3.4836,3.4763,3.4823,3.4823,3.4823,3.4823,3.4823,3.4823,3.4823,3.4823,3.4628,3.4115,3.3709,3.3388,3.2353,3.1429,3.0618,3.011,2.9187,2.8465,2.7941,2.7628,2.7455,2.7381,2.7567,2.7869,2.8159,2.8563,2.8865,2.8984,2.8984,2.8984,2.8984,2.8984,2.8984,2.8984,2.8865,2.8865,2.8002,2.7142,2.6034,2.5293,2.4556,2.4186,2.2584,2.1971,2.172,2.1594,2.1348,2.1102,2.1096,2.1096,2.1049,2.0915,2.0788,2.0722,2.071,2.0294,1.8969,1.7602,1.6141,1.459,1.3294,1.259,1.215,1.1773,1.1429,1.1241,1.1121,1.0886,1.0724,1.0725,1.0497,1.0392,1.0331,1.0321,1.0276,1.0219,1.0209,1.0212,1.009,0.9964,0.9897,0.9914,0.9846,3.8231,3.8202,3.8202,3.8202,3.8202,3.8202,3.8202,3.8202,3.8202,3.8202,3.8202,3.8202,3.8202,3.8202,3.8202,3.8289,3.8167,3.7571,3.7422,3.7606,3.7301,3.6946,3.6659,3.634,3.5765,3.5453,3.4958,3.4574,3.445,3.4478,3.4569,3.4667,3.4619,3.4751,3.4799,3.4823,3.4823,3.4823,3.4823,3.4823,3.4726,3.4617,3.4519,3.4213,3.3598,3.2778,3.2162,3.1655,3.0639,2.9503,2.9398,2.8764,2.7666,2.771,2.7902,2.786,2.8159,2.8563,2.8929,2.8966,2.8984,2.8984,2.8984,2.8984,2.8984,2.8984,2.8984,2.8984,2.8728,2.8728,2.8241,2.7504,2.6641,2.5415,2.369,2.2584,2.2341,2.1594,2.1222,2.1102,2.1102,2.1102,2.1102,2.1056,2.0922,2.0895,2.0995,2.041,1.9285,1.7865,1.655,1.5396,1.3842,1.2775,1.2215,1.2097,1.1785,1.1588,1.1446,1.1363,1.1113,1.1101,1.0833,1.0627,1.0613,1.0606,1.0517,1.0297,1.0307,1.031,1.0243,1.0137,1.0046,0.9937,0.9859,3.8202,3.8202,3.8202,3.8202,3.8202,3.8202,3.8202,3.8202,3.8202,3.8202,3.8202,3.8202,3.8202,3.8202,3.8202,3.8202,3.8127,3.8052,3.7964,3.7944,3.7615,3.7316,3.7063,3.6702,3.6225,3.5601,3.5063,3.4791,3.4717,3.4413,3.412,3.4096,3.4305,3.4511,3.4727,3.4823,3.4823,3.4823,3.4823,3.4823,3.4823,3.4823,3.4823,3.4835,3.4323,3.3796,3.3178,3.2789,3.1971,3.0845,3.0835,3.0005,2.8824,2.876,2.8641,2.8305,2.8275,2.8563,2.8865,2.8984,2.8984,2.8984,2.8984,2.8984,2.8984,2.8984,2.8984,2.9103,2.9094,2.8847,2.7975,2.7607,2.6754,2.5529,2.4178,2.3318,2.2584,2.172,2.1102,2.1102,2.1102,2.1102,2.1102,2.1102,2.1002,2.0942,2.1015,2.1056,2.0322,1.8396,1.67,1.5792,1.4496,1.3186,1.2288,1.2207,1.2186,1.1984,1.1857,1.1899,1.1639,1.1468,1.1197,1.1002,1.0882,1.0889,1.0671,1.0466,1.0426,1.0395,1.027,1.0134,0.9988,0.9897,0.9842,3.9145,3.9145,3.9145,3.8942,3.8679,3.8337,3.8202,3.8202,3.8202,3.8202,3.8202,3.8202,3.8202,3.8202,3.8202,3.8202,3.8202,3.8202,3.8202,3.8202,3.8217,3.7882,3.7471,3.7014,3.6605,3.5992,3.5559,3.5226,3.5312,3.4591,3.4202,3.3937,3.3772,3.4074,3.433,3.4571,3.4823,3.4823,3.4823,3.4823,3.4823,3.4823,3.4823,3.4823,3.4617,3.4421,3.3918,3.361,3.3312,3.2488,3.1869,3.1257,3.0235,2.9591,2.9223,2.8604,2.8564,2.8876,2.922,2.9213,2.9222,2.9222,2.9103,2.8984,2.8984,2.8984,2.8984,2.9103,2.9213,2.8838,2.8215,2.7975,2.7366,2.6017,2.4917,2.3938,2.2827,2.1846,2.1102,2.1102,2.1102,2.1102,2.1102,2.1102,2.1069,2.1042,2.1015,2.1056,2.0949,1.8878,1.7087,1.6095,1.4842,1.3315,1.2442,1.2357,1.2353,1.2389,1.2254,1.2129,1.2088,1.1765,1.1508,1.1247,1.109,1.0941,1.0816,1.0636,1.05,1.0348,1.0188,1.0053,0.9914,0.9859,0.9822,4.0883,4.0883,4.0883,4.0355,3.9576,3.8826,3.8412,3.8202,3.8202,3.8202,3.8202,3.8202,3.8202,3.8202,3.8202,3.8202,3.8202,3.8202,3.8202,3.8202,3.8202,3.8052,3.7886,3.7414,3.7169,3.6674,3.6232,3.594,3.6015,3.5142,3.4514,3.4049,3.3796,3.3832,3.3974,3.4209,3.4487,3.4475,3.4607,3.4607,3.4619,3.4775,3.4811,3.4823,3.4726,3.4726,3.4519,3.4519,3.4017,3.3511,3.3101,3.1655,3.0662,3.0017,2.9115,2.8699,2.8748,2.9238,2.9625,2.9456,2.9549,2.9422,2.9213,2.9103,2.8984,2.8984,2.8984,2.8984,2.9094,2.9094,2.8847,2.86,2.8361,2.7013,2.5668,2.4432,2.3076,2.2215,2.1348,2.1102,2.1102,2.1102,2.1102,2.1102,2.1102,2.1076,2.1042,2.1036,2.0657,1.8933,1.7418,1.6571,1.5192,1.334,1.2726,1.2603,1.2458,1.2475,1.2435,1.2295,1.225,1.2045,1.178,1.1512,1.1247,1.1097,1.0778,1.0571,1.0473,1.0314,1.0154,1.0046,0.9934,0.9859,0.9819,4.0883,4.0883,4.0883,4.0764,4.0492,4.0217,3.9403,3.8337,3.8202,3.8202,3.8202,3.8202,3.8202,3.8202,3.8202,3.8202,3.8202,3.8202,3.8202,3.8202,3.8202,3.8202,3.8127,3.7886,3.781,3.7491,3.7042,3.6549,3.6422,3.5669,3.4907,3.4412,3.3883,3.3736,3.3637,3.3666,3.3763,3.3849,3.4066,3.427,3.4426,3.4607,3.4703,3.4811,3.4823,3.4823,3.4823,3.4823,3.4519,3.4311,3.361,3.2588,3.2409,3.0662,2.912,2.8277,2.8568,2.8917,2.9401,2.938,2.9455,2.9644,2.9611,2.9331,2.9222,2.9066,2.9066,2.9094,2.9213,2.9331,2.9322,2.9085,2.86,2.7495,2.6147,2.4925,2.369,2.2459,2.172,2.1229,2.1229,2.1102,2.1102,2.1102,2.1096,2.1082,2.1056,2.1022,2.0498,1.8909,1.803,1.72,1.6002,1.4257,1.3164,1.2925,1.2677,1.2568,1.2653,1.2592,1.2397,1.2309,1.2045,1.1644,1.1247,1.0909,1.0555,1.051,1.0527,1.031,1.0148,1.0049,0.9958,0.988,0.9825,4.1981,4.1981,4.1981,4.1788,4.138,4.1033,4.0232,3.9275,3.8884,3.862,3.8202,3.8202,3.8202,3.8202,3.8202,3.8202,3.8202,3.8202,3.8202,3.8202,3.8202,3.8202,3.8202,3.8202,3.8127,3.7962,3.781,3.7429,3.7078,3.6056,3.508,3.4405,3.3929,3.3545,3.3236,3.3052,3.2998,3.3198,3.3377,3.3753,3.409,3.4354,3.4559,3.4787,3.4799,3.4823,3.4823,3.4823,3.4823,3.4823,3.4017,3.3312,3.2488,3.0349,2.909,2.843,2.8579,2.8981,2.9307,2.9289,2.9441,2.9479,2.9467,2.9169,2.9222,2.9179,2.9328,2.945,2.9568,2.9677,2.9677,2.9558,2.8701,2.7847,2.6624,2.5529,2.4186,2.2952,2.2097,2.1481,2.1235,2.1102,2.1102,2.1102,2.1089,2.1062,2.0969,2.0862,2.04,1.9422,1.8691,1.8122,1.6899,1.5411,1.4447,1.3913,1.3944,1.3842,1.3509,1.3443,1.2964,1.2309,1.1912,1.1516,1.1115,1.0785,1.0595,1.0633,1.0619,1.0399,1.0229,1.0168,1.0053,0.989,0.9846,4.3568,4.3492,4.3585,4.3035,4.2364,4.1577,4.11,4.0899,4.0178,3.9305,3.8679,3.8412,3.8486,3.856,3.8501,3.8277,3.8277,3.8202,3.8202,3.8202,3.8202,3.8202,3.8202,3.8202,3.8202,3.8202,3.8127,3.7962,3.772,3.6844,3.5816,3.4551,3.3933,3.3563,3.3195,3.2972,3.2771,3.2576,3.2932,3.3293,3.3693,3.3994,3.427,3.4655,3.4775,3.4823,3.4823,3.4823,3.4823,3.4823,3.4323,3.3511,3.1768,3.0453,2.9566,2.9192,2.9449,2.953,2.9707,2.9613,2.9366,2.9189,2.8916,2.8946,2.9212,2.9342,2.9442,2.9545,2.9662,2.9766,2.9804,2.9686,2.9066,2.8334,2.7246,2.5813,2.4139,2.2915,2.1936,2.1352,2.1202,2.1076,2.1102,2.1102,2.1102,2.1056,2.0995,2.0848,2.0499,1.9707,1.9191,1.8764,1.7845,1.6637,1.6177,1.5658,1.5624,1.5539,1.4768,1.4124,1.3613,1.2696,1.1648,1.1383,1.0982,1.085,1.0697,1.0707,1.0666,1.0517,1.0375,1.0317,1.0178,0.9995,0.9873,4.3645,4.3645,4.3645,4.3416,4.3312,4.308,4.2537,4.1965,4.1755,4.1131,4.0301,3.9984,3.9591,3.9233,3.9002,3.8723,3.8352,3.8277,3.8202,3.8202,3.8202,3.8202,3.8202,3.8202,3.8202,3.8202,3.8202,3.8202,3.7962,3.7553,3.7078,3.6294,3.548,3.4733,3.3746,3.3518,3.3043,3.2587,3.2442,3.2762,3.3162,3.3739,3.4162,3.4378,3.4499,3.4787,3.4823,3.4823,3.4823,3.4726,3.3918,3.2901,3.1575,3.1779,3.1516,3.1098,3.0674,3.0408,3.0099,2.9947,2.961,2.9414,2.9279,2.9327,2.9418,2.947,2.9467,2.9543,2.9638,2.977,2.9846,2.9728,2.9601,2.8756,2.8024,2.6148,2.4182,2.2963,2.1871,2.15,2.1121,2.1049,2.1076,2.1102,2.1102,2.1096,2.1082,2.0962,2.0695,2.0133,1.9322,1.8889,1.8674,1.7926,1.75,1.7207,1.7262,1.6426,1.5659,1.4889,1.4124,1.2824,1.1516,1.1251,1.0982,1.085,1.0721,1.0717,1.0656,1.0561,1.0504,1.0439,1.0348,1.0185,1.0022,4.3645,4.3645,4.3645,4.3645,4.3645,4.3645,4.3295,4.2912,4.2896,4.2632,4.1933,4.1115,4.0454,4.0109,3.9677,3.9277,3.8826,3.8412,3.8352,3.8202,3.8277,3.8202,3.8202,3.8202,3.8202,3.8202,3.8202,3.8202,3.8127,3.7644,3.7169,3.6936,3.6439,3.5775,3.4637,3.4249,3.37,3.3129,3.255,3.2409,3.2698,3.324,3.3825,3.4066,3.4463,3.4739,3.4823,3.4823,3.4823,3.4519,3.3808,3.3201,3.2387,3.2185,3.1982,3.1494,3.1023,3.0662,3.0348,2.9962,2.9527,2.9213,2.9033,2.8816,2.8855,2.8882,2.9295,2.9391,2.9536,2.9785,2.9785,2.967,2.9546,2.9078,2.8598,2.7544,2.5123,2.3104,2.227,2.1733,2.1472,2.1186,2.124,2.1102,2.1062,2.0875,2.0902,2.0681,2.0481,2.0381,1.9696,1.9235,1.9035,1.9056,1.8989,1.8763,1.8674,1.7729,1.6513,1.4749,1.3464,1.2297,1.1383,1.1118,1.085,1.085,1.0721,1.0721,1.0711,1.0646,1.0599,1.0555,1.0456,1.0371,1.0246,4.3645,4.3645,4.3645,4.3645,4.3645,4.3645,4.3568,4.3568,4.3568,4.3568,4.3279,4.1917,4.1299,4.0847,4.047,4.0069,3.9718,3.9361,3.8957,3.8546,3.8472,3.8412,3.8352,3.8202,3.8202,3.8202,3.8202,3.8202,3.8188,3.772,3.7323,3.6922,3.6439,3.5855,3.5548,3.5006,3.4371,3.3797,3.3129,3.2475,3.2653,3.2907,3.3401,3.3909,3.4414,3.4715,3.4787,3.4823,3.4823,3.4519,3.4115,3.3709,3.33,3.2989,3.2387,3.1982,3.1472,3.0774,2.9994,2.9414,2.8893,2.8476,2.8291,2.834,2.8437,2.8662,2.9082,2.9277,2.9414,2.96,2.9609,2.9609,2.9497,2.9346,2.8991,2.8474,2.5912,2.3583,2.2953,2.2348,2.1888,2.15,2.1146,2.1141,2.1047,2.0728,2.0501,2.0227,2.004,2.002,1.9674,1.9456,1.9376,1.9633,1.9905,1.9762,1.9486,1.9004,1.7678,1.5072,1.2935,1.2553,1.1905,1.0986,1.085,1.085,1.0721,1.0721,1.0711,1.07,1.0673,1.0629,1.0592,1.051,1.0466,4.3645,4.3645,4.3645,4.3645,4.3628,4.3628,4.3645,4.3628,4.3595,4.3645,4.3376,4.3306,4.274,4.1997,4.1641,4.1229,4.0659,4.0301,3.9984,3.9662,3.9247,3.8899,3.856,3.8352,3.8202,3.8202,3.8202,3.8202,3.8188,3.8037,3.7886,3.7796,3.781,3.7232,3.6517,3.5883,3.5074,3.4428,3.3615,3.2884,3.2535,3.2772,3.2943,3.3404,3.3909,3.4378,3.4679,3.4799,3.4823,3.4714,3.4617,3.4421,3.4213,3.3906,3.3511,3.2901,3.2387,3.1462,3.0742,3.0026,2.9523,2.8601,2.8495,2.8398,2.8457,2.8359,2.8643,2.873,2.8945,2.9355,2.9434,2.9434,2.9434,2.8993,2.8601,2.7772,2.6204,2.4719,2.3649,2.2994,2.2414,2.1725,2.106,2.0866,2.0839,2.0651,2.0368,2.0094,1.9833,1.974,1.9666,1.9613,1.9553,1.9653,1.984,2.0,1.9859,1.954,1.8829,1.6381,1.4549,1.346,1.2684,1.2157,1.1244,1.0982,1.085,1.0982,1.0717,1.0711,1.0714,1.0694,1.0666,1.0643,1.0588]},{"header":{"parameterUnit":"m.s-1","parameterCategory":1,"la1":31.0,"la2":29.5877,"lo1":-88.7671,"lo2":-86.6584,"dy":0.0162,"dx":0.0185,"nx":115,"ny":88,"refTime":"2024-09-13T12:00:00:Z","depth":0,"parameterNumber":3,"parameterNumberName":"V-component_of_WINDS"},"data":[0.0,0.0,0.0,0.0,0.0,0.0,0.0,0.0,0.0,0.0,0.0,0.0,0.0,0.0,0.0,0.0,0.0,0.0,0.0,0.0,0.0,0.0,0.0,0.0,0.0,0.0,0.0,0.0,0.0,0.0,0.0,0.0,0.0,0.0,0.0,0.0,0.0,0.0,0.0,0.0,0.0,0.0,0.0,0.0,0.0,0.0,0.0,0.0,0.0,0.0,0.0,0.0,0.0,0.0,0.0,0.0,0.0,0.0,0.0,0.0,0.0,0.0,0.0,0.0,0.0,0.0,0.0,0.0,0.0,0.0,0.0,0.0,0.0,0.0,0.0,0.0,0.0,0.0,0.0,0.0,0.0,0.0,0.0,0.0,0.0,0.0,0.0,0.0,0.0,0.0,0.0,0.0,0.0,0.0,0.0,0.0,0.0,0.0,0.0,0.0,0.0,0.0,0.0,0.0,0.0,0.0,0.0,0.0,0.0,0.0,0.0,0.0,0.0,0.0,0.0,0.0,0.0,0.0,0.0,0.0,0.0,0.0,0.0,0.0,0.0,0.0,0.0,0.0,0.0,0.0,0.0,0.0,0.0,0.0,0.0,0.0,0.0,0.0,0.0,0.0,0.0,0.0,0.0,0.0,0.0,0.0,0.0,0.0,0.0,0.0,0.0,0.0,0.0,0.0,0.0,0.0,0.0,0.0,0.0,0.0,0.0,0.0,0.0,0.0,0.0,0.0,0.0,0.0,0.0,0.0,0.0,0.0,0.0,0.0,0.0,0.0,0.0,0.0,0.0,0.0,0.0,0.0,0.0,0.0,0.0,0.0,0.0,0.0,0.0,0.0,0.0,0.0,0.0,0.0,0.0,0.0,0.0,0.0,0.0,0.0,0.0,0.0,0.0,0.0,0.0,0.0,0.0,0.0,0.0,0.0,0.0,0.0,0.0,0.0,0.0,0.0,0.0,0.0,0.0,0.0,0.0,0.0,0.0,0.0,0.0,0.0,0.0,0.0,0.0,0.0,0.0,0.0,0.0,0.0,0.0,0.0,0.0,0.0,0.0,0.0,0.0,0.0,0.0,0.0,0.0,0.0,0.0,0.0,0.0,0.0,0.0,0.0,0.0,0.0,0.0,0.0,0.0,0.0,0.0,0.0,0.0,0.0,0.0,0.0,0.0,0.0,0.0,0.0,0.0,0.0,0.0,0.0,0.0,0.0,0.0,0.0,0.0,0.0,0.0,0.0,0.0,0.0,0.0,0.0,0.0,0.0,0.0,0.0,0.0,0.0,0.0,0.0,0.0,0.0,0.0,0.0,0.0,0.0,0.0,0.0,0.0,0.0,0.0,0.0,0.0,0.0,0.0,0.0,0.0,0.0,0.0,0.0,0.0,0.0,0.0,0.0,0.0,0.0,0.0,0.0,0.0,0.0,0.0,0.0,0.0,0.0,0.0,0.0,0.0,0.0,0.0,0.0,0.0,0.0,0.0,0.0,0.0,0.0,0.0,0.0,0.0,0.0,0.0,0.0,0.0,0.0,0.0,0.0,0.0,0.0,0.0,0.0,0.0,0.0,0.0,0.0,0.0,0.0,0.0,0.0,0.0,0.0,0.0,0.0,0.0,0.0,0.0,0.0,0.0,0.0,0.0,0.0,0.0,0.0,0.0,0.0,0.0,0.0,0.0,0.0,0.0,0.0,0.0,0.0,0.0,0.0,0.0,0.0,0.0,0.0,0.0,0.0,0.0,0.0,0.0,0.0,0.0,0.0,0.0,0.0,0.0,0.0,0.0,0.0,0.0,0.0,0.0,0.0,0.0,0.0,0.0,0.0,0.0,0.0,0.0,0.0,0.0,0.0,0.0,0.0,0.0,0.0,0.0,0.0,0.0,0.0,0.0,0.0,0.0,0.0,0.0,0.0,0.0,0.0,0.0,0.0,0.0,0.0,0.0,0.0,0.0,0.0,0.0,0.0,0.0,0.0,0.0,0.0,0.0,0.0,0.0,0.0,0.0,0.0,0.0,0.0,0.0,0.0,0.0,0.0,0.0,0.0,0.0,0.0,0.0,0.0,0.0,0.0,0.0,0.0,0.0,0.0,0.0,0.0,0.0,0.0,0.0,0.0,0.0,0.0,0.0,0.0,0.0,0.0,0.0,0.0,0.0,0.0,0.0,0.0,0.0,0.0,0.0,0.0,0.0,0.0,0.0,0.0,0.0,0.0,0.0,0.0,0.0,0.0,0.0,0.0,0.0,0.0,0.0,0.0,0.0,0.0,0.0,0.0,0.0,0.0,0.0,0.0,0.0,0.0,0.0,0.0,0.0,0.0,0.0,0.0,0.0,0.0,0.0,0.0,0.0,0.0,0.0,0.0,0.0,0.0,0.0,0.0,0.0,0.0,0.0,0.0,0.0,0.0,0.0,0.0,0.0,0.0,0.0,0.0,0.0,0.0,0.0,0.0,0.0,0.0,0.0,0.0,0.0,0.0,0.0,0.0,0.0,0.0,0.0,0.0,0.0,0.0,0.0,0.0,0.0,0.0,0.0,0.0,0.0,0.0,0.0,0.0,0.0,0.0,0.0,0.0,0.0,0.0,0.0,0.0,0.0,0.0,0.0,0.0,0.0,0.0,0.0,0.0,0.0,0.0,0.0,0.0,0.0,0.0,0.0,0.0,0.0,0.0,0.0,0.0,0.0,0.0,0.0,0.0,0.0,0.0,0.0,0.0,0.0,0.0,0.0,0.0,0.0,0.0,0.0,0.0,0.0,0.0,0.0,0.0,0.0,0.0,0.0,0.0,0.0,0.0,0.0,0.0,0.0,0.0,0.0,0.0,0.0,0.0,0.0,0.0,0.0,0.0,0.0,0.0,0.0,0.0,0.0,0.0,0.0,0.0,0.0,0.0,0.0,0.0,0.0,0.0,0.0,0.0,0.0,0.0,0.0,0.0,0.0,0.0,0.0,0.0,0.0,0.0,0.0,0.0,0.0,0.0,0.0,0.0,0.0,0.0,0.0,0.0,0.0,0.0,0.0,0.0,0.0,0.0,0.0,0.0,0.0,0.0,0.0,0.0,0.0,0.0,0.0,0.0,0.0,0.0,0.0,0.0,0.0,0.0,0.0,0.0,0.0,0.0,0.0,0.0,0.0,0.0,0.0,0.0,0.0,0.0,0.0,0.0,0.0,0.0,0.0,0.0,0.0,0.0,0.0,0.0,0.0,0.0,0.0,0.0,0.0,0.0,0.0,0.0,0.0,0.0,0.0,0.0,0.0,0.0,0.0,0.0,0.0,0.0,0.0,0.0,0.0,0.0,0.0,0.0,0.0,0.0,0.0,0.0,0.0,0.0,0.0,0.0,0.0,0.0,0.0,0.0,0.0,0.0,0.0,0.0,0.0,0.0,0.0,0.0,0.0,0.0,0.0,0.0,0.0,0.0,0.0,0.0,0.0,0.0,0.0,0.0,0.0,0.0,0.0,0.0,0.0,0.0,0.0,0.0,0.0,0.0,0.0,0.0,0.0,0.0,0.0,0.0,0.0,0.0,0.0,0.0,0.0,0.0,0.0,0.0,0.0,0.0,0.0,0.0,0.0,0.0,0.0,0.0,0.0,0.0,0.0,0.0,0.0,0.0,0.0,0.0,0.0,0.0,0.0,0.0,0.0,0.0,0.0,0.0,0.0,0.0,0.0,0.0,0.0,0.0,0.0,0.0,0.0,0.0,0.0,0.0,0.0,0.0,0.0,0.0,0.0,0.0,0.0,0.0,0.0,0.0,0.0,0.0,0.0,0.0,0.0,0.0,0.0,0.0,0.0,0.0,0.0,0.0,0.0,0.0,0.0,0.0,0.0,0.0,0.0,0.0,0.0,0.0,0.0,0.0,0.0,0.0,0.0,0.0,0.0,0.0,0.0,0.0,0.0,0.0,0.0,0.0,0.0,0.0,0.0,0.0,0.0,0.0,0.0,0.0,0.0,0.0,0.0,0.0,0.0,0.0,0.0,0.0,0.0,0.0,0.0,0.0,0.0,0.0,0.0,0.0,0.0,0.0,0.0,0.0,0.0,0.0,0.0,0.0,0.0,0.0,0.0,0.0,0.0,0.0,0.0,0.0,0.0,0.0,0.0,0.0,0.0,0.0,0.0,0.0,0.0,0.0,0.0,0.0,0.0,0.0,0.0,0.0,0.0,0.0,0.0,0.0,0.0,0.0,0.0,0.0,0.0,0.0,0.0,0.0,0.0,0.0,0.0,0.0,0.0,0.0,0.0,0.0,0.0,0.0,0.0,0.0,3.1458,0.0,0.0,0.0,0.0,0.0,0.0,0.0,0.0,0.0,0.0,0.0,0.0,0.0,0.0,0.0,0.0,0.0,0.0,0.0,0.0,0.0,0.0,0.0,0.0,0.0,0.0,0.0,0.0,0.0,0.0,0.0,0.0,0.0,0.0,0.0,0.0,0.0,0.0,0.0,0.0,0.0,0.0,0.0,0.0,0.0,0.0,0.0,0.0,0.0,0.0,0.0,0.0,0.0,0.0,0.0,0.0,0.0,0.0,0.0,0.0,0.0,0.0,0.0,0.0,0.0,0.0,0.0,0.0,0.0,0.0,0.0,0.0,0.0,0.0,0.0,0.0,0.0,0.0,0.0,0.0,0.0,0.0,0.0,0.0,0.0,0.0,0.0,0.0,0.0,0.0,0.0,0.0,0.0,0.0,0.0,0.0,0.0,0.0,0.0,0.0,0.0,0.0,0.0,0.0,0.0,0.0,0.0,0.0,0.0,0.0,3.3159,3.3788,3.3807,3.3036,3.1476,0.0,0.0,0.0,0.0,0.0,0.0,0.0,0.0,0.0,0.0,0.0,0.0,0.0,0.0,0.0,0.0,0.0,0.0,0.0,0.0,0.0,0.0,0.0,0.0,0.0,0.0,0.0,0.0,0.0,0.0,0.0,0.0,0.0,0.0,0.0,0.0,0.0,0.0,0.0,0.0,0.0,0.0,0.0,0.0,0.0,0.0,0.0,0.0,0.0,0.0,0.0,0.0,0.0,0.0,0.0,0.0,0.0,0.0,0.0,0.0,0.0,0.0,0.0,0.0,0.0,0.0,0.0,0.0,0.0,0.0,0.0,0.0,0.0,0.0,0.0,0.0,0.0,0.0,0.0,0.0,0.0,0.0,0.0,0.0,0.0,0.0,0.0,0.0,0.0,0.0,0.0,0.0,0.0,0.0,0.0,0.0,0.0,0.0,0.0,0.0,0.0,0.0,0.0,0.0,0.0,0.0,0.0,0.0,0.0,0.0,0.0,0.0,3.4082,3.3311,3.1733,0.0,0.0,0.0,0.0,0.0,0.0,0.0,0.0,0.0,0.0,0.0,0.0,0.0,0.0,0.0,0.0,0.0,0.0,0.0,0.0,0.0,0.0,0.0,0.0,0.0,0.0,0.0,0.0,0.0,0.0,0.0,0.0,0.0,0.0,0.0,0.0,0.0,0.0,0.0,0.0,0.0,0.0,0.0,0.0,0.0,0.0,0.0,0.0,0.0,0.0,0.0,0.0,0.0,0.0,0.0,0.0,0.0,0.0,0.0,0.0,0.0,0.0,0.0,0.0,0.0,0.0,0.0,0.0,0.0,0.0,0.0,0.0,0.0,0.0,0.0,0.0,0.0,0.0,0.0,0.0,0.0,0.0,0.0,0.0,0.0,0.0,0.0,0.0,0.0,0.0,0.0,0.0,0.0,0.0,0.0,0.0,0.0,0.0,0.0,0.0,0.0,0.0,0.0,0.0,0.0,0.0,0.0,0.0,0.0,0.0,3.3057,3.4825,3.488,0.0,3.2632,0.0,0.0,0.0,0.0,0.0,0.0,0.0,0.0,0.0,0.0,0.0,0.0,0.0,0.0,0.0,0.0,0.0,0.0,0.0,0.0,0.0,0.0,0.0,0.0,0.0,0.0,0.0,0.0,0.0,0.0,0.0,0.0,0.0,0.0,0.0,0.0,0.0,0.0,0.0,0.0,0.0,0.0,0.0,0.0,0.0,0.0,0.0,0.0,0.0,0.0,0.0,0.0,0.0,0.0,0.0,0.0,0.0,0.0,0.0,0.0,0.0,0.0,0.0,0.0,0.0,0.0,0.0,0.0,0.0,0.0,0.0,0.0,0.0,0.0,0.0,0.0,0.0,0.0,0.0,0.0,0.0,0.0,0.0,0.0,0.0,0.0,0.0,0.0,0.0,0.0,0.0,0.0,0.0,0.0,0.0,0.0,0.0,0.0,0.0,0.0,0.0,0.0,0.0,0.0,0.0,0.0,0.0,0.0,0.0,0.0,3.2857,3.4266,3.3844,3.3054,0.0,0.0,0.0,0.0,0.0,0.0,0.0,0.0,0.0,0.0,0.0,0.0,0.0,0.0,0.0,0.0,0.0,0.0,0.0,0.0,0.0,0.0,0.0,0.0,0.0,0.0,0.0,0.0,0.0,0.0,0.0,0.0,0.0,0.0,0.0,0.0,0.0,0.0,0.0,0.0,0.0,0.0,0.0,0.0,0.0,0.0,0.0,0.0,0.0,0.0,0.0,0.0,0.0,0.0,0.0,0.0,0.0,0.0,0.0,0.0,0.0,0.0,0.0,0.0,0.0,0.0,0.0,0.0,0.0,0.0,0.0,0.0,0.0,0.0,0.0,0.0,0.0,0.0,0.0,0.0,0.0,0.0,0.0,0.0,0.0,0.0,0.0,0.0,0.0,0.0,0.0,0.0,0.0,0.0,0.0,0.0,0.0,0.0,0.0,0.0,0.0,0.0,0.0,0.0,0.0,0.0,0.0,0.0,0.0,0.0,3.2099,3.2802,3.4018,3.3568,3.2596,3.1109,0.0,0.0,0.0,0.0,0.0,0.0,0.0,0.0,0.0,0.0,0.0,0.0,0.0,0.0,0.0,0.0,0.0,0.0,0.0,0.0,0.0,0.0,0.0,0.0,0.0,0.0,0.0,0.0,0.0,0.0,0.0,0.0,0.0,0.0,0.0,0.0,0.0,0.0,0.0,0.0,0.0,0.0,0.0,0.0,0.0,0.0,0.0,0.0,0.0,0.0,0.0,0.0,0.0,0.0,0.0,0.0,0.0,0.0,0.0,0.0,0.0,0.0,0.0,0.0,0.0,0.0,0.0,0.0,0.0,0.0,0.0,0.0,0.0,0.0,0.0,0.0,0.0,0.0,0.0,0.0,0.0,0.0,0.0,0.0,0.0,0.0,0.0,0.0,0.0,0.0,0.0,0.0,0.0,0.0,0.0,0.0,0.0,0.0,0.0,0.0,0.0,0.0,0.0,0.0,0.0,0.0,0.0,0.0,3.4045,3.2897,3.3075,3.488,3.4899,3.3413,0.0,0.0,0.0,0.0,0.0,0.0,0.0,0.0,0.0,0.0,0.0,0.0,0.0,0.0,0.0,0.0,0.0,0.0,0.0,0.0,0.0,0.0,0.0,0.0,0.0,0.0,0.0,0.0,0.0,0.0,0.0,0.0,0.0,0.0,0.0,0.0,0.0,0.0,0.0,0.0,0.0,0.0,0.0,0.0,0.0,0.0,0.0,0.0,0.0,0.0,0.0,0.0,0.0,0.0,0.0,0.0,0.0,0.0,0.0,0.0,0.0,0.0,0.0,0.0,0.0,0.0,0.0,0.0,0.0,0.0,0.0,0.0,0.0,0.0,0.0,0.0,0.0,0.0,0.0,0.0,0.0,0.0,0.0,0.0,0.0,0.0,0.0,0.0,0.0,0.0,0.0,0.0,0.0,0.0,0.0,0.0,0.0,0.0,0.0,0.0,0.0,0.0,0.0,0.0,0.0,0.0,0.0,0.0,0.0,3.0101,3.0772,3.2509,3.5289,3.3049,3.1425,0.0,0.0,0.0,0.0,0.0,0.0,0.0,0.0,0.0,0.0,0.0,0.0,0.0,0.0,0.0,0.0,0.0,0.0,0.0,0.0,0.0,0.0,0.0,0.0,0.0,0.0,0.0,0.0,0.0,0.0,0.0,0.0,0.0,0.0,0.0,0.0,0.0,0.0,0.0,0.0,0.0,0.0,0.0,0.0,0.0,0.0,0.0,0.0,0.0,0.0,0.0,0.0,0.0,0.0,0.0,0.0,0.0,0.0,0.0,0.0,0.0,0.0,0.0,0.0,0.0,0.0,0.0,0.0,0.0,0.0,0.0,0.0,0.0,0.0,0.0,0.0,0.0,0.0,0.0,0.0,0.0,0.0,0.0,0.0,0.0,0.0,0.0,0.0,0.0,0.0,0.0,0.0,0.0,0.0,0.0,0.0,0.0,0.0,0.0,0.0,0.0,0.0,0.0,0.0,0.0,0.0,0.0,0.0,0.0,2.9359,0.0,3.2947,3.4782,3.2361,3.0592,0.0,0.0,0.0,0.0,0.0,0.0,0.0,0.0,0.0,0.0,0.0,0.0,0.0,0.0,0.0,0.0,0.0,0.0,0.0,0.0,0.0,0.0,0.0,0.0,0.0,0.0,0.0,0.0,0.0,0.0,0.0,0.0,0.0,0.0,0.0,0.0,0.0,0.0,0.0,0.0,0.0,0.0,0.0,0.0,0.0,0.0,0.0,0.0,0.0,0.0,0.0,0.0,0.0,0.0,0.0,0.0,0.0,0.0,0.0,0.0,0.0,0.0,0.0,0.0,0.0,0.0,0.0,0.0,0.0,0.0,0.0,0.0,0.0,0.0,0.0,0.0,0.0,0.0,0.0,0.0,0.0,0.0,0.0,0.0,0.0,0.0,0.0,0.0,0.0,0.0,0.0,0.0,0.0,0.0,0.0,0.0,0.0,0.0,0.0,0.0,0.0,0.0,0.0,0.0,0.0,0.0,0.0,0.0,2.9608,3.2581,3.4066,3.4288,3.3388,3.3135,3.112,0.0,0.0,0.0,0.0,0.0,0.0,0.0,0.0,0.0,0.0,0.0,0.0,0.0,0.0,0.0,0.0,0.0,0.0,0.0,0.0,0.0,0.0,0.0,0.0,0.0,0.0,0.0,0.0,0.0,0.0,0.0,0.0,0.0,0.0,0.0,0.0,0.0,0.0,0.0,0.0,0.0,0.0,0.0,0.0,0.0,0.0,0.0,0.0,0.0,0.0,0.0,0.0,0.0,0.0,0.0,0.0,0.0,0.0,0.0,0.0,0.0,0.0,0.0,0.0,0.0,0.0,0.0,0.0,0.0,0.0,0.0,0.0,0.0,0.0,0.0,0.0,0.0,0.0,0.0,0.0,0.0,0.0,0.0,0.0,0.0,0.0,0.0,0.0,0.0,0.0,0.0,0.0,0.0,0.0,0.0,0.0,0.0,0.0,0.0,0.0,0.0,0.0,0.0,0.0,0.0,0.0,0.0,0.0,0.0,3.015,3.1373,3.2632,3.3605,3.1148,2.9916,0.0,0.0,0.0,0.0,0.0,0.0,0.0,0.0,0.0,0.0,0.0,0.0,0.0,0.0,0.0,0.0,0.0,0.0,0.0,0.0,0.0,0.0,0.0,0.0,0.0,0.0,0.0,0.0,0.0,0.0,0.0,0.0,0.0,0.0,0.0,0.0,0.0,0.0,0.0,0.0,0.0,0.0,0.0,0.0,0.0,0.0,0.0,0.0,0.0,0.0,0.0,0.0,0.0,0.0,0.0,0.0,0.0,0.0,0.0,0.0,0.0,0.0,0.0,0.0,0.0,0.0,0.0,0.0,0.0,0.0,0.0,0.0,0.0,0.0,0.0,0.0,0.0,0.0,0.0,0.0,0.0,0.0,0.0,0.0,0.0,0.0,0.0,0.0,0.0,0.0,0.0,0.0,0.0,0.0,0.0,0.0,0.0,0.0,0.0,0.0,0.0,0.0,0.0,0.0,0.0,0.0,0.0,0.0,0.0,3.0282,3.1897,3.3155,3.3942,3.1555,3.0449,3.0785,0.0,0.0,0.0,0.0,0.0,0.0,0.0,0.0,0.0,0.0,0.0,0.0,0.0,0.0,0.0,0.0,0.0,0.0,0.0,0.0,0.0,0.0,0.0,0.0,0.0,0.0,0.0,0.0,0.0,0.0,0.0,0.0,0.0,0.0,0.0,0.0,0.0,0.0,0.0,0.0,0.0,0.0,0.0,0.0,0.0,0.0,0.0,0.0,0.0,0.0,0.0,0.0,0.0,0.0,0.0,0.0,0.0,0.0,0.0,0.0,0.0,0.0,0.0,0.0,0.0,0.0,0.0,0.0,0.0,0.0,0.0,0.0,0.0,0.0,0.0,0.0,0.0,0.0,0.0,0.0,0.0,0.0,0.0,0.0,0.0,0.0,0.0,0.0,0.0,0.0,0.0,0.0,0.0,0.0,0.0,0.0,0.0,0.0,0.0,0.0,0.0,0.0,0.0,0.0,0.0,0.0,0.0,0.0,3.2389,3.4966,3.5536,3.4072,3.3839,3.2391,0.0,0.0,0.0,0.0,0.0,0.0,0.0,0.0,0.0,0.0,0.0,0.0,0.0,0.0,0.0,0.0,0.0,0.0,0.0,0.0,0.0,0.0,0.0,0.0,0.0,0.0,0.0,0.0,0.0,0.0,0.0,0.0,0.0,0.0,0.0,0.0,0.0,0.0,0.0,0.0,0.0,0.0,0.0,0.0,0.0,0.0,0.0,0.0,0.0,0.0,0.0,0.0,0.0,0.0,0.0,0.0,0.0,0.0,0.0,0.0,0.0,0.0,0.0,0.0,0.0,0.0,0.0,0.0,0.0,0.0,0.0,0.0,0.0,0.0,0.0,0.0,0.0,0.0,0.0,0.0,0.0,0.0,0.0,0.0,0.0,0.0,0.0,0.0,0.0,0.0,0.0,0.0,0.0,0.0,0.0,0.0,0.0,0.0,0.0,0.0,0.0,0.0,0.0,0.0,0.0,0.0,0.0,0.0,0.0,3.3661,3.5376,3.5954,3.5217,3.3808,3.2602,0.0,0.0,0.0,0.0,0.0,0.0,0.0,0.0,0.0,0.0,0.0,0.0,0.0,0.0,0.0,0.0,0.0,0.0,0.0,0.0,0.0,0.0,0.0,0.0,0.0,0.0,0.0,0.0,0.0,0.0,0.0,0.0,0.0,0.0,0.0,0.0,0.0,0.0,0.0,0.0,0.0,0.0,0.0,0.0,0.0,0.0,0.0,0.0,0.0,0.0,0.0,0.0,0.0,0.0,0.0,0.0,0.0,0.0,0.0,0.0,0.0,0.0,0.0,0.0,0.0,0.0,0.0,0.0,0.0,0.0,0.0,0.0,0.0,0.0,0.0,0.0,0.0,0.0,0.0,0.0,0.0,0.0,0.0,0.0,0.0,0.0,0.0,0.0,0.0,0.0,0.0,0.0,0.0,0.0,0.0,0.0,0.0,0.0,0.0,0.0,0.0,0.0,0.0,0.0,0.0,0.0,0.0,0.0,3.3421,3.4525,3.5404,3.589,3.5953,3.4836,3.3716,0.0,0.0,0.0,0.0,0.0,0.0,0.0,0.0,0.0,0.0,0.0,0.0,0.0,0.0,0.0,0.0,0.0,0.0,0.0,0.0,0.0,0.0,0.0,0.0,0.0,0.0,0.0,0.0,0.0,0.0,0.0,0.0,0.0,0.0,0.0,0.0,0.0,0.0,0.0,0.0,0.0,0.0,0.0,0.0,0.0,0.0,0.0,0.0,0.0,0.0,0.0,0.0,0.0,0.0,0.0,0.0,0.0,0.0,0.0,0.0,0.0,0.0,0.0,0.0,0.0,0.0,0.0,0.0,0.0,0.0,0.0,0.0,0.0,0.0,0.0,0.0,0.0,0.0,0.0,0.0,0.0,0.0,0.0,0.0,0.0,0.0,0.0,0.0,0.0,0.0,0.0,0.0,0.0,0.0,0.0,0.0,0.0,0.0,0.0,0.0,0.0,0.0,0.0,0.0,0.0,0.0,0.0,0.0,3.38,3.5163,3.5307,3.5659,3.6212,3.6171,3.5065,0.0,0.0,0.0,0.0,0.0,0.0,0.0,0.0,0.0,0.0,0.0,0.0,0.0,0.0,0.0,0.0,0.0,0.0,0.0,0.0,0.0,0.0,0.0,0.0,0.0,0.0,0.0,0.0,0.0,0.0,0.0,0.0,0.0,0.0,0.0,0.0,0.0,0.0,0.0,0.0,0.0,0.0,0.0,0.0,0.0,0.0,0.0,0.0,0.0,0.0,0.0,0.0,0.0,0.0,0.0,0.0,0.0,0.0,0.0,0.0,0.0,0.0,0.0,0.0,0.0,0.0,0.0,0.0,0.0,0.0,0.0,0.0,0.0,0.0,0.0,0.0,0.0,0.0,0.0,0.0,0.0,0.0,0.0,0.0,0.0,0.0,0.0,0.0,0.0,0.0,0.0,0.0,0.0,0.0,0.0,0.0,0.0,0.0,0.0,0.0,0.0,0.0,0.0,0.0,0.0,0.0,0.0,0.0,3.4869,3.518,3.6058,3.6344,3.5924,3.5285,3.4571,0.0,0.0,0.0,0.0,0.0,0.0,0.0,0.0,0.0,0.0,0.0,0.0,0.0,0.0,0.0,0.0,0.0,0.0,0.0,0.0,0.0,0.0,0.0,0.0,0.0,0.0,0.0,0.0,0.0,0.0,0.0,0.0,0.0,0.0,0.0,0.0,0.0,0.0,0.0,0.0,0.0,0.0,0.0,0.0,0.0,0.0,0.0,0.0,3.9683,0.0,0.0,0.0,0.0,0.0,0.0,0.0,0.0,0.0,0.0,0.0,0.0,0.0,0.0,0.0,0.0,0.0,0.0,0.0,0.0,0.0,0.0,0.0,0.0,0.0,0.0,0.0,0.0,0.0,0.0,0.0,0.0,0.0,0.0,0.0,0.0,0.0,0.0,0.0,0.0,0.0,0.0,0.0,0.0,0.0,0.0,0.0,0.0,0.0,0.0,0.0,0.0,0.0,0.0,0.0,0.0,0.0,0.0,0.0,3.537,3.5697,3.5647,3.5558,3.5488,3.4576,3.3706,0.0,0.0,0.0,0.0,0.0,0.0,0.0,0.0,0.0,0.0,0.0,0.0,0.0,0.0,0.0,0.0,0.0,0.0,0.0,0.0,0.0,0.0,0.0,0.0,0.0,0.0,0.0,0.0,0.0,0.0,0.0,0.0,0.0,0.0,0.0,0.0,0.0,0.0,0.0,0.0,0.0,0.0,0.0,0.0,0.0,0.0,0.0,0.0,0.0,0.0,0.0,0.0,0.0,0.0,0.0,0.0,0.0,0.0,0.0,0.0,0.0,0.0,0.0,0.0,0.0,0.0,0.0,0.0,0.0,0.0,0.0,0.0,0.0,0.0,0.0,0.0,0.0,0.0,0.0,0.0,0.0,0.0,0.0,0.0,0.0,0.0,0.0,0.0,0.0,0.0,0.0,0.0,0.0,0.0,0.0,0.0,0.0,0.0,0.0,0.0,0.0,0.0,0.0,0.0,0.0,0.0,0.0,3.4214,3.5559,3.6215,3.5036,3.4587,3.4973,3.4115,3.3031,3.1903,0.0,0.0,0.0,0.0,0.0,0.0,0.0,0.0,0.0,0.0,0.0,0.0,0.0,0.0,0.0,0.0,0.0,0.0,0.0,0.0,0.0,0.0,0.0,0.0,0.0,0.0,0.0,0.0,0.0,0.0,0.0,0.0,0.0,0.0,0.0,0.0,0.0,0.0,3.7637,3.9248,0.0,0.0,0.0,0.0,0.0,0.0,0.0,0.0,4.1275,0.0,0.0,0.0,0.0,0.0,0.0,0.0,0.0,0.0,0.0,0.0,0.0,0.0,0.0,0.0,0.0,0.0,0.0,0.0,0.0,0.0,0.0,0.0,0.0,0.0,0.0,0.0,0.0,0.0,0.0,0.0,0.0,0.0,0.0,0.0,0.0,0.0,0.0,0.0,0.0,0.0,0.0,0.0,0.0,0.0,0.0,0.0,0.0,0.0,0.0,0.0,0.0,0.0,0.0,0.0,0.0,3.4594,3.5007,3.5559,3.6266,3.5784,3.5144,3.4323,3.4396,3.3299,3.0975,0.0,0.0,0.0,0.0,0.0,0.0,0.0,0.0,0.0,0.0,0.0,0.0,0.0,0.0,0.0,0.0,0.0,0.0,0.0,0.0,0.0,0.0,0.0,0.0,0.0,0.0,0.0,0.0,0.0,0.0,0.0,0.0,0.0,0.0,0.0,0.0,0.0,0.0,0.0,4.0953,4.1787,0.0,0.0,0.0,0.0,0.0,0.0,0.0,0.0,4.1673,0.0,0.0,0.0,0.0,0.0,0.0,0.0,0.0,0.0,0.0,0.0,0.0,0.0,0.0,0.0,0.0,0.0,0.0,0.0,0.0,0.0,0.0,0.0,0.0,0.0,0.0,0.0,0.0,0.0,0.0,0.0,0.0,0.0,0.0,0.0,0.0,0.0,0.0,0.0,0.0,0.0,0.0,0.0,0.0,0.0,0.0,0.0,0.0,0.0,0.0,0.0,0.0,0.0,0.0,0.0,3.4112,3.5203,3.5766,3.5714,3.5174,3.4467,3.3529,3.3104,3.215,0.0,0.0,0.0,0.0,0.0,0.0,0.0,0.0,0.0,0.0,0.0,0.0,0.0,0.0,0.0,0.0,0.0,0.0,0.0,0.0,0.0,0.0,0.0,0.0,0.0,0.0,0.0,0.0,0.0,0.0,0.0,0.0,0.0,0.0,0.0,0.0,0.0,0.0,0.0,0.0,4.1275,4.1958,4.2431,0.0,0.0,0.0,0.0,0.0,0.0,4.1465,4.1484,0.0,0.0,0.0,0.0,0.0,0.0,0.0,0.0,0.0,0.0,0.0,0.0,0.0,0.0,0.0,0.0,0.0,0.0,0.0,0.0,0.0,0.0,0.0,0.0,0.0,0.0,0.0,0.0,0.0,0.0,0.0,0.0,0.0,0.0,0.0,0.0,0.0,0.0,0.0,0.0,0.0,0.0,0.0,0.0,0.0,0.0,0.0,0.0,0.0,0.0,0.0,0.0,0.0,0.0,0.0,3.343,3.5238,3.5883,3.5278,3.4592,3.3813,3.298,3.1934,3.1129,0.0,0.0,0.0,0.0,0.0,0.0,0.0,0.0,0.0,0.0,0.0,0.0,0.0,0.0,0.0,0.0,0.0,0.0,0.0,0.0,0.0,0.0,0.0,0.0,0.0,0.0,0.0,0.0,0.0,0.0,0.0,0.0,0.0,0.0,0.0,0.0,0.0,0.0,0.0,0.0,0.0,4.2318,4.3284,4.245,0.0,0.0,0.0,0.0,4.1692,4.1711,0.0,0.0,0.0,0.0,0.0,0.0,0.0,0.0,0.0,0.0,0.0,0.0,0.0,0.0,0.0,0.0,0.0,0.0,0.0,0.0,0.0,0.0,0.0,0.0,0.0,0.0,0.0,0.0,0.0,0.0,0.0,0.0,0.0,0.0,0.0,0.0,0.0,0.0,0.0,0.0,0.0,0.0,0.0,0.0,0.0,0.0,0.0,0.0,0.0,0.0,0.0,0.0,0.0,0.0,0.0,0.0,3.4126,3.5096,3.5566,3.5439,3.4903,3.4154,3.3167,3.2404,3.156,0.0,0.0,0.0,0.0,0.0,0.0,0.0,0.0,0.0,0.0,0.0,0.0,0.0,0.0,0.0,0.0,0.0,0.0,0.0,0.0,0.0,0.0,0.0,0.0,0.0,0.0,0.0,0.0,0.0,0.0,0.0,0.0,0.0,0.0,0.0,0.0,0.0,0.0,0.0,0.0,0.0,4.4004,4.2735,4.3057,4.3133,0.0,0.0,4.3417,4.3417,4.3417,0.0,0.0,0.0,0.0,0.0,0.0,0.0,0.0,0.0,0.0,0.0,0.0,0.0,0.0,0.0,0.0,0.0,0.0,0.0,0.0,0.0,0.0,0.0,0.0,0.0,0.0,0.0,0.0,0.0,0.0,0.0,0.0,0.0,0.0,0.0,0.0,0.0,0.0,0.0,0.0,0.0,0.0,0.0,0.0,0.0,0.0,0.0,0.0,0.0,0.0,0.0,0.0,0.0,0.0,0.0,3.2774,3.4619,3.577,3.6134,3.5657,3.5037,3.4265,3.3404,3.2232,3.1094,0.0,0.0,0.0,0.0,0.0,0.0,0.0,0.0,0.0,0.0,0.0,0.0,0.0,0.0,0.0,0.0,0.0,0.0,0.0,0.0,0.0,0.0,0.0,0.0,0.0,0.0,0.0,0.0,0.0,0.0,0.0,0.0,0.0,0.0,0.0,0.0,0.0,0.0,0.0,0.0,0.0,0.0,4.3777,4.3758,0.0,0.0,0.0,4.3531,4.3038,0.0,0.0,0.0,0.0,0.0,0.0,0.0,0.0,0.0,0.0,0.0,0.0,0.0,0.0,0.0,0.0,0.0,0.0,0.0,0.0,0.0,0.0,0.0,0.0,0.0,0.0,0.0,0.0,0.0,0.0,0.0,0.0,0.0,0.0,0.0,0.0,0.0,0.0,0.0,0.0,0.0,0.0,0.0,0.0,0.0,0.0,0.0,0.0,0.0,0.0,0.0,0.0,0.0,0.0,0.0,0.0,0.0,3.4907,3.6332,3.6661,3.5887,3.5204,3.4446,3.36,3.2246,0.0,0.0,0.0,0.0,0.0,0.0,0.0,0.0,0.0,0.0,0.0,0.0,0.0,0.0,0.0,0.0,0.0,0.0,0.0,0.0,0.0,0.0,0.0,0.0,0.0,0.0,0.0,2.7966,0.0,0.0,0.0,0.0,0.0,0.0,0.0,0.0,0.0,0.0,0.0,0.0,0.0,0.0,4.3189,4.4421,4.4251,4.4004,0.0,0.0,4.3777,4.3133,4.3568,4.3436,0.0,0.0,0.0,0.0,0.0,0.0,0.0,0.0,0.0,0.0,0.0,0.0,0.0,0.0,0.0,0.0,0.0,0.0,0.0,0.0,0.0,0.0,0.0,0.0,0.0,0.0,0.0,0.0,0.0,0.0,0.0,0.0,0.0,0.0,0.0,0.0,0.0,0.0,0.0,0.0,0.0,0.0,0.0,0.0,0.0,0.0,0.0,0.0,0.0,0.0,0.0,0.0,0.0,0.0,3.3368,3.4907,3.6445,3.6887,3.6091,3.5492,3.4744,3.3792,3.296,3.1578,0.0,0.0,0.0,0.0,0.0,0.0,0.0,0.0,0.0,0.0,0.0,0.0,0.0,0.0,0.0,0.0,0.0,0.0,0.0,0.0,0.0,0.0,0.0,0.0,0.0,0.0,0.0,0.0,0.0,0.0,0.0,0.0,0.0,0.0,0.0,0.0,0.0,0.0,0.0,0.0,0.0,4.3644,4.3758,4.4364,4.4819,0.0,4.4819,4.48,4.4724,4.4762,4.4232,4.2602,0.0,0.0,0.0,0.0,0.0,0.0,0.0,0.0,0.0,0.0,0.0,0.0,0.0,0.0,0.0,0.0,0.0,0.0,0.0,0.0,0.0,0.0,0.0,0.0,0.0,0.0,0.0,0.0,0.0,0.0,0.0,0.0,0.0,0.0,0.0,0.0,0.0,0.0,0.0,0.0,0.0,0.0,0.0,0.0,0.0,0.0,0.0,0.0,0.0,0.0,0.0,0.0,0.0,3.4017,3.5118,3.7164,3.784,3.7022,3.5847,3.5027,3.4655,3.3446,3.1834,0.0,0.0,0.0,0.0,0.0,0.0,0.0,0.0,0.0,0.0,0.0,0.0,0.0,0.0,0.0,0.0,0.0,0.0,0.0,0.0,0.0,0.0,0.0,0.0,0.0,0.0,0.0,0.0,3.2255,3.3032,3.5022,0.0,0.0,0.0,0.0,0.0,0.0,0.0,0.0,0.0,0.0,4.444,4.444,4.516,0.0,0.0,4.4895,4.4895,4.4895,4.4895,4.4535,4.3379,4.3208,0.0,0.0,0.0,0.0,0.0,0.0,0.0,0.0,0.0,0.0,0.0,0.0,0.0,0.0,0.0,0.0,0.0,0.0,0.0,0.0,0.0,0.0,0.0,0.0,0.0,0.0,0.0,0.0,0.0,0.0,0.0,0.0,0.0,0.0,0.0,0.0,0.0,0.0,0.0,0.0,0.0,0.0,0.0,0.0,0.0,0.0,0.0,0.0,0.0,0.0,0.0,0.0,3.4472,3.5204,3.7577,3.8397,3.7631,3.6274,3.5453,3.5186,3.3955,3.2289,0.0,0.0,0.0,0.0,0.0,0.0,0.0,0.0,0.0,0.0,0.0,0.0,0.0,0.0,0.0,0.0,0.0,0.0,0.0,0.0,0.0,0.0,0.0,0.0,0.0,0.0,0.0,0.0,3.415,3.4908,3.6064,0.0,0.0,0.0,0.0,0.0,0.0,0.0,0.0,0.0,0.0,4.4895,4.4895,4.5426,4.5596,4.499,4.4895,4.4895,4.4895,4.5103,4.4933,4.3891,0.0,0.0,0.0,0.0,0.0,0.0,0.0,0.0,0.0,0.0,0.0,0.0,0.0,0.0,0.0,0.0,0.0,0.0,0.0,0.0,0.0,0.0,0.0,0.0,0.0,0.0,0.0,2.3448,0.0,0.0,2.1438,0.0,0.0,0.0,0.0,0.0,0.0,0.0,0.0,0.0,0.0,0.0,0.0,0.0,0.0,0.0,0.0,0.0,0.0,0.0,0.0,0.0,0.0,3.4508,3.5239,3.7612,3.8415,3.7612,3.6774,3.5989,3.5239,3.4472,3.3033,3.0826,0.0,0.0,0.0,0.0,0.0,0.0,0.0,0.0,0.0,0.0,0.0,0.0,0.0,0.0,0.0,0.0,0.0,0.0,0.0,0.0,0.0,0.0,0.0,0.0,0.0,0.0,3.3677,3.5173,3.6159,0.0,0.0,0.0,0.0,0.0,0.0,0.0,0.0,0.0,4.3682,4.4383,4.4914,4.4914,4.4933,4.5028,4.4952,4.4933,4.4933,4.4952,4.5615,4.5615,0.0,0.0,0.0,0.0,0.0,0.0,0.0,0.0,0.0,0.0,0.0,0.0,0.0,0.0,0.0,0.0,0.0,0.0,0.0,0.0,0.0,0.0,0.0,0.0,0.0,0.0,0.0,2.6247,2.5519,0.0,0.0,0.0,0.0,0.0,0.0,0.0,0.0,0.0,0.0,0.0,3.2434,3.41,0.0,0.0,0.0,0.0,0.0,0.0,0.0,0.0,0.0,0.0,0.0,0.0,3.5757,3.6096,3.8344,3.8915,3.763,3.6809,3.6006,3.5221,3.449,3.3086,3.088,0.0,0.0,0.0,0.0,0.0,0.0,0.0,0.0,0.0,0.0,0.0,0.0,0.0,0.0,0.0,0.0,0.0,0.0,0.0,0.0,0.0,0.0,0.0,0.0,0.0,3.5049,0.0,0.0,0.0,0.0,0.0,0.0,0.0,0.0,0.0,0.0,0.0,4.4497,4.4497,4.5672,4.6354,4.5843,4.6222,4.6563,0.0,0.0,0.0,0.0,0.0,0.0,0.0,0.0,0.0,0.0,0.0,0.0,0.0,0.0,5.1528,4.8761,4.734,4.6391,4.5923,0.0,0.0,0.0,0.0,0.0,0.0,0.0,0.0,0.0,0.0,0.0,0.0,0.0,0.0,2.8579,2.8077,2.6879,0.0,0.0,0.0,0.0,0.0,0.0,0.0,0.0,3.3874,3.4897,3.4857,3.6222,3.6517,0.0,3.6357,3.6119,0.0,0.0,0.0,0.0,0.0,0.0,0.0,0.0,3.6524,3.6899,3.8861,3.9165,3.7666,3.7077,3.6435,3.565,3.4983,3.3714,3.1833,3.185,3.125,0.0,0.0,0.0,0.0,0.0,0.0,0.0,0.0,0.0,0.0,0.0,0.0,0.0,0.0,0.0,0.0,0.0,0.0,0.0,0.0,0.0,0.0,0.0,3.6677,0.0,0.0,0.0,0.0,0.0,0.0,0.0,0.0,0.0,4.4156,4.535,4.6108,4.5824,4.698,4.7548,4.6733,0.0,0.0,0.0,0.0,0.0,0.0,0.0,4.7903,4.9118,4.9352,4.9594,5.0393,5.2047,5.3101,5.2513,0.0,0.0,5.1357,4.9862,4.8975,4.8762,4.8908,4.8933,4.8606,4.8911,4.923,0.0,0.0,0.0,0.0,3.0304,0.0,0.0,0.0,3.1059,3.1027,0.0,3.0247,0.0,0.0,0.0,0.0,3.0883,3.3244,0.0,0.0,3.6538,3.74,3.7484,3.7517,3.8044,3.899,3.9974,4.0169,3.9416,3.5603,0.0,0.0,0.0,0.0,0.0,0.0,3.6881,3.763,3.9129,3.9165,3.7648,3.7577,3.7202,3.6399,3.5867,3.4987,3.3777,3.4578,3.4127,3.1982,3.1151,0.0,0.0,0.0,0.0,0.0,0.0,0.0,0.0,0.0,0.0,0.0,0.0,0.0,0.0,0.0,0.0,0.0,0.0,0.0,0.0,3.6893,0.0,0.0,0.0,0.0,0.0,0.0,0.0,0.0,0.0,4.5975,4.5255,4.715,4.8382,4.7567,0.0,0.0,0.0,0.0,4.7453,4.7517,4.7498,4.782,4.8617,4.9375,4.9906,5.0001,0.0,0.0,5.1452,5.3309,5.4352,5.2798,5.3859,5.4901,5.4806,5.3297,5.2145,5.197,5.1305,5.0675,5.0405,5.1218,5.2058,3.492,0.0,0.0,0.0,0.0,3.3502,3.4184,3.5412,3.4392,3.3955,3.389,3.2692,0.0,0.0,0.0,0.0,0.0,0.0,3.512,3.6423,3.7785,3.8757,3.941,3.9911,4.0366,4.0806,4.1139,4.1209,4.0954,3.9329,3.7496,3.5669,0.0,0.0,0.0,0.0,3.8754,3.854,3.9414,3.9165,3.7594,3.7577,3.7202,3.6417,3.5867,3.5449,3.5059,3.5666,3.5459,3.422,3.3512,0.0,0.0,0.0,0.0,0.0,0.0,0.0,0.0,0.0,0.0,0.0,0.0,0.0,0.0,0.0,0.0,0.0,0.0,0.0,3.7602,3.7932,3.8978,0.0,0.0,0.0,0.0,0.0,0.0,0.0,0.0,0.0,4.842,4.8572,4.8818,0.0,0.0,4.8609,4.8363,4.8325,4.8567,4.9289,4.9409,0.0,4.9733,4.9961,5.0514,5.1694,5.3293,5.4322,5.4093,5.4544,5.475,5.4257,5.4579,5.4901,5.4882,5.4639,5.4211,5.3997,5.3697,5.3402,5.3196,5.3265,5.3174,3.7161,3.5994,3.5526,3.5526,3.5763,3.5633,3.6231,3.7258,3.64,3.6189,3.6384,3.525,3.436,3.3697,3.3048,0.0,0.0,0.0,3.6362,3.7807,3.8394,3.9105,3.9986,4.0334,4.0772,4.1088,4.1318,4.1453,4.1453,4.1086,3.9958,3.8061,0.0,0.0,3.829,3.9361,3.9682,3.9289,3.9682,3.9147,3.7612,3.7577,3.7202,3.6435,3.6496,3.6461,3.6282,3.696,3.7155,3.6685,3.5743,3.4606,0.0,0.0,0.0,0.0,0.0,0.0,0.0,0.0,0.0,0.0,0.0,3.3083,3.1431,0.0,0.0,0.0,3.6227,3.789,3.9736,4.0697,0.0,0.0,0.0,0.0,0.0,0.0,0.0,4.901,4.9682,5.0136,5.0619,5.0024,4.9673,4.9879,4.9462,4.9178,4.9159,0.0,4.9383,5.0006,5.0158,5.0321,5.0607,5.0737,5.1357,5.302,5.4415,5.5295,5.5314,5.5229,5.5094,5.5028,5.4952,5.4863,5.4773,5.4884,5.4895,5.4673,5.4444,5.4243,5.4106,5.3775,5.3493,3.8391,3.8278,3.7166,3.6682,3.6625,3.7292,3.7513,3.7404,3.7404,3.7776,3.8327,3.7711,3.7086,3.6527,3.6013,0.0,3.6592,3.7259,3.8057,3.8969,3.8655,3.8898,3.9662,3.9714,3.9986,4.0453,4.0977,4.1237,4.1237,4.1568,4.1306,4.0516,3.9388,3.9611,4.0962,4.0431,4.0075,4.0003,3.995,3.9165,3.763,3.7577,3.7274,3.6559,3.7502,3.7809,3.7387,3.8352,3.9032,3.9157,3.7726,3.6519,3.5646,0.0,0.0,0.0,0.0,0.0,0.0,0.0,0.0,0.0,0.0,0.0,0.0,0.0,0.0,0.0,3.9328,0.0,4.2198,4.4271,0.0,0.0,0.0,4.7065,4.7222,4.8565,4.9853,5.0684,0.0,0.0,5.1912,5.1362,5.0703,4.9957,4.9898,4.9879,4.9879,4.986,4.9879,4.9952,5.0089,5.0455,5.1027,5.1395,5.2081,5.357,5.479,5.5308,5.5303,5.5461,5.5369,5.5236,5.5037,5.4895,5.4704,5.4678,5.4585,5.4453,5.4127,5.3851,5.387,5.3549,5.3406,3.8391,3.8359,3.8075,3.7945,3.7961,3.8124,3.8149,3.8149,3.8132,3.823,3.8375,3.823,3.8051,3.7945,3.7767,3.7783,3.7945,3.8124,3.8342,3.8727,3.9115,3.9594,4.0086,4.0594,4.0977,4.129,4.1426,4.1498,4.1533,4.2139,4.2105,4.1576,4.1874,4.1616,4.092,4.1439,4.1413,4.0824,4.0217,3.9165,3.7648,3.7577,3.7578,3.761,3.8044,3.8323,3.8456,3.9457,4.0028,4.0067,3.9082,3.8154,3.7336,3.4216,0.0,0.0,0.0,0.0,0.0,0.0,0.0,0.0,0.0,3.7373,3.3552,0.0,4.0632,0.0,4.1231,4.2947,4.4646,4.4653,0.0,0.0,4.8265,4.849,5.0126,5.031,5.0839,5.2199,5.2619,5.2555,5.1987,5.1775,5.113,4.9744,4.9759,4.9879,4.9879,4.9879,4.9959,5.0089,5.0163,5.0264,5.0498,5.1075,5.1814,5.268,5.3779,5.446,5.4314,5.4918,5.5427,5.5358,5.5281,5.5183,5.5102,5.4836,5.461,5.4565,5.4364,5.4228,5.4177,5.3885,5.3571,3.8877,3.8861,3.8537,3.8391,3.8391,3.8391,3.8391,3.8391,3.8391,3.8391,3.8391,3.8391,3.8391,3.8391,3.8391,3.8391,3.8391,3.8391,3.8655,3.9077,3.9259,3.9697,4.04,4.0737,4.099,4.1163,4.1803,4.2068,4.203,4.2805,4.3082,4.2829,4.3377,4.3032,4.1881,4.2169,4.1895,4.1109,4.0324,3.9504,3.8647,3.8611,3.8525,3.8385,3.899,3.9097,3.8658,3.9656,4.0277,4.0364,3.9565,3.9082,3.8971,3.6575,3.481,0.0,0.0,0.0,0.0,0.0,0.0,0.0,0.0,0.0,0.0,0.0,4.3015,4.3334,4.4351,4.5754,4.7617,4.7863,4.8729,5.0647,5.0717,5.0962,5.188,5.2006,5.2356,5.3199,5.3364,5.3082,5.2351,5.227,5.1817,5.0544,5.0616,5.0562,4.9939,4.9816,4.9898,5.0139,5.024,5.0336,5.0486,5.1544,5.2464,5.2912,5.4079,5.497,5.4863,5.514,5.5394,5.5295,5.5064,5.4866,5.4765,5.4482,5.4265,5.4231,5.4196,5.4106,5.4089,5.3646,5.3219,3.959,3.9541,3.8926,3.8683,3.8651,3.8667,3.857,3.8391,3.8391,3.8391,3.8391,3.8391,3.8391,3.8391,3.8391,3.8391,3.8408,3.8489,3.8936,3.964,3.9454,3.9878,4.0837,4.0917,4.0934,4.1016,4.2248,4.2748,4.2579,4.3547,4.4003,4.3962,4.4269,4.4068,4.3288,4.2739,4.2002,4.1109,4.0431,4.0003,3.9896,3.9896,3.9611,3.906,3.9823,3.9748,3.8702,3.9651,4.0307,4.0531,3.9918,3.9918,4.0606,3.9027,3.7745,0.0,3.6994,0.0,0.0,0.0,0.0,0.0,0.0,0.0,0.0,4.3368,4.5611,4.7173,4.7849,4.8866,5.053,5.1917,5.2475,5.1844,5.3051,5.3645,5.2884,5.3385,5.3813,5.3813,5.3813,5.3497,5.2735,5.2696,5.2487,5.1628,5.1563,5.1279,5.0263,4.9975,5.0033,5.0152,5.0291,5.0466,5.0797,5.2022,5.2988,5.3297,5.4379,5.5652,5.5635,5.5568,5.5404,5.516,5.4838,5.4509,5.4231,5.4036,5.3907,5.3926,5.3907,5.387,5.3851,5.3479,5.3089,4.0302,4.0286,4.0156,4.0092,4.0092,4.0092,3.9444,3.8391,3.8391,3.8391,3.8391,3.8391,3.8391,3.8391,3.8391,3.8391,3.844,3.9007,3.952,4.0062,4.09,4.1564,4.2142,4.2549,4.2716,4.2733,4.297,4.3187,4.3328,4.416,4.4453,4.4243,4.489,4.4893,4.4306,0.0,0.0,0.0,4.0931,4.0574,3.995,3.9896,3.9958,4.0021,3.9767,0.0,3.9656,4.0707,4.1319,4.1367,4.1832,0.0,0.0,0.0,0.0,0.0,0.0,0.0,0.0,0.0,0.0,0.0,4.4259,4.3664,4.2605,4.6471,4.9201,4.948,5.0244,5.1082,5.2085,5.2995,5.3497,5.3423,5.4184,5.4463,5.3701,5.372,5.3813,5.3813,5.3813,5.3515,5.2772,5.2642,5.2363,5.1693,5.1452,5.1428,5.1316,5.099,5.0628,5.013,5.0302,5.039,5.0396,5.0931,5.1722,5.1924,5.2974,5.4053,5.4725,5.534,5.5602,5.5331,5.5179,5.4981,5.4685,5.443,5.4161,5.4212,5.3981,5.3851,5.4142,5.4099,5.4093,4.1031,4.0998,4.0642,4.0496,0.0,4.0496,4.0092,3.9444,3.9428,3.9428,3.9428,3.9428,3.9428,3.9428,3.9428,3.9428,3.9444,3.9816,4.0353,4.094,4.151,4.2219,4.2995,4.3229,4.3346,4.3363,4.3857,4.4063,4.4147,4.4995,4.5365,4.5235,4.5605,4.5552,4.5,4.3985,4.2912,4.1698,4.168,4.1502,4.1109,4.1074,4.0974,4.0697,4.1107,0.0,0.0,0.0,0.0,0.0,0.0,0.0,0.0,0.0,0.0,4.2092,4.1776,4.2092,4.3299,4.3782,4.4562,4.5788,4.6995,4.7144,4.59,4.8481,5.0488,5.1286,5.1751,5.2494,5.3645,5.3813,5.3961,5.4351,5.4407,5.424,5.3887,5.3813,5.3813,5.3813,5.3813,5.3627,5.3255,5.32,5.3051,5.2661,5.2587,5.2511,5.2292,5.1762,5.1247,5.1239,5.1557,5.1794,5.1832,5.2259,5.2588,5.3103,5.3897,5.4592,5.5012,5.5178,5.5231,5.5072,5.4798,5.4476,5.433,5.4161,5.4054,5.4054,5.3926,5.3926,5.4212,5.4177,5.4089,4.1759,4.1711,4.1112,4.0869,4.0869,4.0869,4.0869,4.0853,4.0594,0.0,0.0,4.0496,4.0496,4.0496,4.0496,4.0496,4.0513,4.0626,4.1114,4.1894,4.2011,4.2661,4.3709,4.3709,4.3776,4.386,4.4698,4.4995,4.4948,4.574,4.6137,4.6186,4.6186,4.5897,4.5293,4.4316,4.339,4.2709,4.243,4.2287,4.2287,4.2287,4.1984,4.1324,4.2336,4.2286,4.1063,4.2097,4.2526,4.2054,4.2166,4.2612,4.3392,4.3448,4.4061,4.5379,4.5509,4.5844,4.6661,4.6847,4.7051,4.733,4.9336,5.0265,4.9596,5.0302,5.1323,5.2698,5.2828,5.3404,5.4853,5.4426,5.4277,5.4946,5.4407,5.398,5.3831,5.3813,5.3813,5.3813,5.3813,5.3813,5.3775,5.3757,5.3813,5.3794,5.3721,5.3812,5.3357,5.2516,5.2035,5.2501,5.279,5.3186,5.334,5.359,5.4303,5.4281,5.4855,5.5432,5.5561,5.5224,5.4836,5.4836,5.4315,5.3963,5.3832,5.3832,5.3813,5.3813,5.3813,5.387,5.4125,5.4,5.3851,4.2472,4.2456,4.2359,4.2326,4.2326,4.2326,4.231,4.2229,4.1031,4.0496,4.0496,4.0496,4.0496,4.0496,4.0496,4.0496,4.0529,4.1128,4.1705,4.227,4.2831,4.358,4.4511,4.4565,4.4744,4.5096,4.5252,4.5442,4.5647,4.5784,4.5988,4.6186,4.6186,4.5817,4.5128,4.4864,4.453,4.4015,4.2881,4.2287,4.2287,4.2287,4.2234,4.2149,4.189,4.1759,4.1757,4.2246,4.2839,4.3652,4.4376,4.5138,4.59,4.5937,4.6085,4.6308,4.6327,4.668,4.7497,4.8166,4.9187,5.0599,5.1658,5.2197,5.2122,5.2828,5.3385,5.3627,5.359,5.3998,5.4871,5.4871,5.4816,5.5001,5.4909,5.4574,5.3887,5.3813,5.3813,5.3813,5.3813,5.3813,5.3813,5.3794,5.3832,5.387,5.4125,5.4307,5.4269,5.3432,5.2837,5.3037,5.3163,5.3223,5.3415,5.3072,5.3522,5.3986,5.4065,5.4466,5.5317,5.5091,5.4825,5.4825,5.4449,5.4125,5.387,5.3813,5.3813,5.3813,5.3813,5.3832,5.3889,5.3832,5.3963,4.2571,4.2571,4.2571,4.2571,4.2571,4.2571,4.2571,4.2585,4.1954,4.1662,4.1662,4.1646,4.1646,4.1646,4.1646,4.1646,4.1662,4.1986,4.2378,4.2861,4.3158,4.3781,4.4652,4.4708,4.4944,4.5371,4.5441,4.5459,4.5563,4.5615,4.5649,4.5752,4.5887,4.5795,4.5463,4.5141,4.4899,4.4642,4.3837,4.3444,4.3554,4.3554,4.3554,4.3536,4.345,4.3508,4.3645,4.4107,4.457,4.5094,4.5667,4.6122,4.6475,4.6513,4.6698,4.7125,4.7571,4.8166,4.8964,4.9782,5.0766,5.1955,5.2382,5.281,5.3237,5.359,5.3813,5.3813,5.3813,5.4351,5.5503,5.489,5.4723,5.5633,5.4946,5.4221,5.3905,5.3813,5.3813,5.3813,5.3813,5.3813,5.3813,5.3944,5.4054,5.4106,5.4495,5.4895,5.5037,5.4689,5.4338,5.4373,5.4463,5.4568,5.453,5.4425,5.4511,5.4894,5.48,5.4929,5.5404,5.5145,5.4836,5.4776,5.4416,5.4036,5.3813,5.3813,5.3813,5.3813,5.3813,5.3813,5.3813,5.3813,5.3926,4.2571,4.2571,4.2571,4.2571,4.2571,4.2571,4.2571,4.2571,4.2571,4.2571,4.2571,4.2571,4.2571,4.2571,4.2571,4.2571,4.2571,4.2571,4.2789,4.3125,4.3141,4.3663,4.4468,4.4541,4.4818,4.5371,4.5441,4.5441,4.5441,4.5441,4.5441,4.5423,4.5598,4.5684,4.5666,4.5294,4.5145,4.5141,4.4824,4.4597,4.4555,4.4555,4.4537,4.4624,4.4845,4.5029,4.5111,4.5605,4.6011,4.6268,4.6567,4.694,4.7274,4.7311,4.7664,4.8463,4.9113,4.9837,5.0618,5.1286,5.2011,5.2791,5.2884,5.3144,5.372,5.3813,5.3813,5.3813,5.3998,5.4704,5.58,5.5001,5.4686,5.6004,5.4816,5.3868,5.3813,5.3813,5.3813,5.3813,5.3813,5.3851,5.3926,5.4161,5.4364,5.4572,5.4981,5.5288,5.5389,5.5573,5.5596,5.5527,5.5573,5.5607,5.5684,5.5561,5.5519,5.5618,5.547,5.5384,5.5418,5.5145,5.4895,5.4836,5.4463,5.4125,5.3944,5.3944,5.3907,5.3832,5.3813,5.3813,5.3813,5.3813,5.3832,4.2571,4.2571,4.2571,4.2571,4.2571,4.2571,4.2571,4.2571,4.2571,4.2571,4.2571,4.2571,4.2571,4.2571,4.2571,4.2571,4.2571,4.2571,4.2618,4.268,4.268,4.3141,4.4121,4.4121,4.4558,4.5352,4.5492,4.551,4.551,4.5441,4.5441,4.5441,4.5423,4.5476,4.5441,4.539,4.5494,4.5732,4.5662,4.5211,4.4413,4.4324,4.4423,4.4563,4.4642,4.4778,4.516,4.543,4.6083,4.7003,4.7418,4.8259,4.9503,4.9745,5.0135,5.0915,5.1101,5.1528,5.2271,5.2457,5.2828,5.359,5.3664,5.3683,5.3794,5.3813,5.3813,5.3924,5.45,5.5243,5.6116,5.5447,5.5299,5.606,5.4871,5.3813,5.3813,5.3813,5.3813,5.3813,5.3813,5.3907,5.4161,5.4296,5.4572,5.5091,5.5243,5.5413,5.5596,5.566,5.5703,5.5662,5.5703,5.5703,5.5662,5.5485,5.5437,5.5364,5.5091,5.5145,5.5269,5.5145,5.4866,5.5083,5.4895,5.4541,5.4296,5.4246,5.4125,5.387,5.3813,5.3813,5.3813,5.3832,5.3926,4.2571,4.2571,4.2571,4.2571,4.2571,4.2571,4.2571,4.2571,4.2571,4.2571,4.2571,4.2571,4.2571,4.2571,4.2571,4.2571,4.2571,4.2571,4.2743,4.3035,4.3035,4.3717,4.5014,4.5105,4.5682,4.6645,4.6337,4.6113,4.6044,4.5648,4.5441,4.5441,4.5441,4.5441,4.5441,4.5441,4.5476,4.5563,4.5563,4.5439,4.5264,4.5351,4.5541,4.5772,4.5772,4.5909,4.6273,4.7161,4.7725,4.7732,4.8605,4.9429,5.006,5.0135,5.0525,5.1323,5.1862,5.2457,5.3255,5.3311,5.346,5.3794,5.3813,5.3813,5.3813,5.3813,5.398,5.4481,5.4816,5.5354,5.6134,5.5986,5.5912,5.6097,5.5206,5.4333,5.385,5.3813,5.3813,5.3813,5.3813,5.3926,5.4281,5.4654,5.5064,5.5437,5.5527,5.5573,5.5684,5.5684,5.5684,5.5684,5.5684,5.5684,5.5684,5.5599,5.5551,5.5508,5.5418,5.5418,5.5418,5.5295,5.5164,5.5307,5.5037,5.4727,5.433,5.4315,5.4212,5.3963,5.3813,5.3813,5.3813,5.3963,5.4142,4.2571,4.2571,4.2571,4.2571,4.2571,4.2571,4.2571,4.2571,4.2571,4.2571,4.2571,4.2571,4.2571,4.2571,4.2571,4.2571,4.2571,4.2571,4.2805,4.3096,4.3277,4.4202,4.5618,4.5913,4.6573,4.7434,4.7165,4.6924,4.682,4.613,4.5734,4.5734,4.5527,4.5441,4.5441,4.5441,4.5441,4.5441,4.5441,4.5528,4.5666,4.5905,4.6137,4.6464,4.6689,4.6802,4.6924,4.8302,4.8862,4.8415,4.9455,5.032,5.0766,5.0841,5.1212,5.1992,5.2587,5.3181,5.3775,5.3813,5.3813,5.3813,5.3813,5.3813,5.3813,5.3813,5.4054,5.4556,5.5076,5.5744,5.6487,5.6636,5.6543,5.6302,5.5522,5.4686,5.3943,5.3813,5.3813,5.3813,5.3813,5.3944,5.4281,5.4776,5.5198,5.5485,5.5573,5.566,5.5662,5.5684,5.5684,5.5684,5.5684,5.5684,5.5684,5.5684,5.5684,5.5684,5.5662,5.564,5.5684,5.5508,5.5432,5.548,5.5172,5.4962,5.4787,5.4635,5.443,5.4177,5.4054,5.4054,5.4142,5.4296,5.4397,4.2571,4.2571,4.2571,4.2571,4.2571,4.2571,4.2571,4.2508,4.2571,4.2571,4.2571,4.2571,4.2571,4.2571,4.2571,4.2571,4.2571,4.2571,4.2634,4.2791,4.3329,4.4207,4.5219,4.5915,4.676,4.7761,4.7696,4.7631,4.7562,4.6924,4.6562,4.6527,4.5889,4.5492,4.5492,4.551,4.5441,4.5441,4.5441,4.5441,4.5423,4.5476,4.5736,4.6259,4.6853,4.7002,4.685,4.7976,4.8835,4.9122,4.9786,5.0823,5.2197,5.2419,5.2753,5.3515,5.3683,5.3738,5.3794,5.3813,5.3813,5.3813,5.3813,5.3813,5.3813,5.3813,5.3905,5.3924,5.5336,5.6487,5.723,5.7416,5.7138,5.6432,5.5577,5.476,5.3943,5.385,5.3813,5.3794,5.3832,5.4,5.4281,5.4572,5.4981,5.5243,5.5339,5.5437,5.564,5.5684,5.5684,5.5684,5.5684,5.5684,5.5684,5.5684,5.5684,5.5684,5.5684,5.5684,5.5684,5.5684,5.5682,5.5682,5.5554,5.5442,5.5295,5.5138,5.4924,5.4716,5.456,5.4528,5.4262,5.4623,5.4654,4.198,4.198,4.198,4.198,4.198,4.198,4.198,4.198,4.2174,4.2318,4.2302,4.2492,4.2571,4.2571,4.2571,4.2571,4.2571,4.2571,4.2743,4.3052,4.3359,4.4257,4.5761,4.6422,4.7395,4.848,4.8478,4.8165,4.7717,4.7424,4.732,4.7286,4.7044,4.6682,4.6268,4.6182,4.5958,4.5492,4.5441,4.5441,4.5475,4.5441,4.5753,4.643,4.6359,4.6595,4.7054,4.8265,4.9098,4.9298,5.0216,5.1059,5.1867,5.2622,5.3286,5.3719,5.3813,5.3813,5.3813,5.3813,5.3813,5.3813,5.3813,5.3813,5.3813,5.3831,5.3998,5.463,5.5577,5.6617,5.7398,5.7955,5.7955,5.7138,5.632,5.5484,5.4704,5.4128,5.3813,5.3832,5.3963,5.4177,5.433,5.4758,5.5164,5.5288,5.5456,5.5573,5.5662,5.5684,5.5684,5.5684,5.5684,5.5684,5.5684,5.5684,5.5684,5.5684,5.5684,5.5684,5.5684,5.5684,5.5682,5.5682,5.5684,5.5618,5.5369,5.5083,5.4971,5.4746,5.4623,5.456,5.4177,5.4591,5.4623,4.1588,4.1588,4.1588,4.1588,4.1588,4.1588,4.1588,4.1588,4.1851,4.1916,4.1964,4.2174,4.2318,4.2238,4.2254,4.2318,4.2318,4.2508,4.2919,4.344,4.367,4.4673,4.6196,4.6965,4.7892,4.9052,4.921,4.8941,4.8441,4.7941,4.7855,4.8045,4.7648,4.7251,4.6993,4.6958,4.6665,4.6251,4.6165,4.6182,4.6165,4.6165,4.6406,4.6803,4.6567,4.676,4.756,4.867,4.9426,4.9758,5.0577,5.1383,5.2078,5.2964,5.3561,5.3756,5.3813,5.3813,5.3813,5.3813,5.3813,5.3813,5.3813,5.3813,5.3813,5.3813,5.4203,5.4946,5.58,5.6636,5.7435,5.8215,5.8364,5.7621,5.7008,5.6227,5.5169,5.4537,5.411,5.3888,5.3963,5.4142,5.4296,5.4697,5.5009,5.5262,5.548,5.5596,5.5682,5.5684,5.5684,5.5722,5.6011,5.5972,5.5953,5.5992,5.5895,5.5876,5.5703,5.5684,5.5684,5.5684,5.5684,5.5684,5.5662,5.5577,5.5369,5.5083,5.4836,5.4604,5.4604,5.4635,5.4528,5.4591,5.4697,4.1588,4.1522,4.1588,4.1522,4.1456,4.1522,4.1522,4.1522,4.1588,4.1588,4.1588,4.1654,4.172,4.1654,4.172,4.167,4.1881,4.2286,4.2799,4.3428,4.4204,4.5147,4.6338,4.7094,4.8039,4.9195,4.9691,4.9884,4.9735,4.8614,4.8269,4.8476,4.7614,4.7389,4.7734,4.7717,4.77,4.7545,4.7476,4.7562,4.7683,4.7527,4.7562,4.7717,4.7648,4.7847,4.8151,4.9083,4.973,5.014,5.0713,5.1762,5.2894,5.3425,5.3717,5.3756,5.3813,5.3813,5.3813,5.3813,5.3813,5.3813,5.3813,5.3813,5.3813,5.3887,5.424,5.4964,5.5874,5.6692,5.7453,5.8215,5.8438,5.7676,5.7453,5.6729,5.5614,5.5039,5.4723,5.4147,5.4,5.3981,5.4231,5.4514,5.4795,5.5325,5.5536,5.5729,5.6063,5.6145,5.5876,5.6011,5.6511,5.6819,5.6569,5.6338,5.6203,5.6069,5.5818,5.5684,5.5684,5.5684,5.5684,5.5684,5.5684,5.564,5.5596,5.532,5.5164,5.4962,5.4905,5.4806,5.4776,5.4836,5.5064,4.0867,4.0867,4.0867,4.0867,4.0851,4.0867,4.0851,4.0851,4.1122,4.1256,4.1339,4.1522,4.1588,4.1588,4.1588,4.1841,4.2236,4.2039,4.2043,4.2377,4.2983,4.3968,4.5077,4.6075,4.7469,4.8972,4.9376,4.9666,4.9849,4.9476,4.9441,4.9476,4.9148,4.8769,4.8476,4.8476,4.8269,4.7769,4.7717,4.7717,4.7717,4.7734,4.7958,4.8407,4.8476,4.8756,4.9331,4.9201,4.9493,5.0274,5.0523,5.1197,5.2354,5.2722,5.3083,5.3699,5.3813,5.3813,5.3813,5.3813,5.3813,5.3813,5.3813,5.3813,5.3887,5.4351,5.4741,5.5169,5.6265,5.7268,5.7583,5.8234,5.8531,5.8364,5.7843,5.7379,5.6617,5.5689,5.5299,5.5375,5.4708,5.4495,5.4912,5.5082,5.5294,5.5954,5.6275,5.6614,5.7216,5.7258,5.7492,5.7569,5.7819,5.7742,5.7473,5.7357,5.7357,5.6857,5.6357,5.6011,5.5915,5.5684,5.5684,5.5684,5.5684,5.5662,5.564,5.5508,5.5295,5.5243,5.5138,5.5056,5.4971,5.5083,5.5217,4.0524,4.0524,4.0524,4.0524,4.0524,4.0524,4.0524,4.0524,4.0715,4.0867,4.0919,4.1055,4.1205,4.1189,4.1189,4.1424,4.1784,4.1377,4.133,4.1664,4.2327,4.3273,4.4521,4.5772,4.7193,4.8647,4.9118,4.9453,4.9976,4.9735,4.9717,4.9924,4.9717,4.9476,4.9269,4.9252,4.8993,4.8614,4.8596,4.8562,4.8562,4.8562,4.8803,4.92,4.9252,4.951,4.9942,4.951,4.9533,5.0159,5.0436,5.1052,5.1892,5.2112,5.2463,5.2938,5.3345,5.3444,5.3502,5.3678,5.3813,5.3831,5.4073,5.4258,5.4407,5.5001,5.554,5.6097,5.6859,5.7621,5.7973,5.8364,5.8679,5.8698,5.8289,5.7843,5.7435,5.632,5.5763,5.5914,5.5529,5.5471,5.5736,5.5899,5.6035,5.6644,5.7066,5.7354,5.7968,5.8135,5.8296,5.8473,5.8588,5.8454,5.83,5.8357,5.8531,5.7838,5.703,5.6646,5.6395,5.5915,5.5684,5.564,5.5618,5.5618,5.5554,5.5326,5.5145,5.5191,5.5288,5.513,5.5028,5.5083,5.5217,4.0524,4.0524,4.0524,4.0524,4.0524,4.0524,4.0524,4.0524,4.0524,4.0524,4.0524,4.0593,4.0608,4.0524,4.0593,4.0685,4.0601,4.0624,4.1125,4.1728,4.2394,4.3289,4.4772,4.618,4.734,4.8208,4.8855,4.9394,4.9825,4.9367,4.9269,4.9873,4.9441,4.9269,4.9769,4.9976,4.989,4.9786,4.9855,4.9838,4.9838,4.989,4.9907,4.9942,4.9924,4.9942,4.9976,4.9924,4.9942,5.0092,5.0512,5.0893,5.1363,5.1679,5.182,5.2076,5.2544,5.2937,5.3109,5.3706,5.4034,5.4201,5.476,5.5094,5.5187,5.5874,5.6562,5.7156,5.7509,5.7918,5.8475,5.8679,5.8698,5.8698,5.8605,5.8271,5.7658,5.6878,5.658,5.6525,5.6453,5.6441,5.6665,5.6751,5.688,5.7258,5.7644,5.7925,5.8253,5.8635,5.8523,5.8838,5.9358,5.9358,5.9261,5.9358,5.9415,5.8627,5.7761,5.7165,5.6646,5.6088,5.5703,5.564,5.5596,5.5554,5.5508,5.5326,5.5275,5.5345,5.5295,5.5138,5.5138,5.5243,5.5295,4.0524,4.0524,4.0524,4.0524,4.0524,4.0524,4.0524,4.0524,4.0524,4.0524,4.0524,4.0524,4.0524,4.0524,4.0539,4.0801,4.1032,4.0739,4.1232,4.2125,4.1928,4.3167,4.4871,4.6032,4.6844,4.7489,4.8208,4.8855,4.9376,4.9485,4.9711,4.9993,4.9786,4.9752,4.9993,5.0011,5.0011,5.0011,5.0011,5.0011,5.0011,5.0011,5.0011,5.0011,5.0011,5.0011,5.0011,5.0011,5.0011,4.9993,5.0149,5.053,5.0929,5.1121,5.1361,5.179,5.2363,5.3032,5.3577,5.4147,5.4788,5.5439,5.5625,5.5967,5.6004,5.671,5.723,5.7602,5.7992,5.8438,5.8661,5.8698,5.8698,5.8698,5.8698,5.8605,5.8289,5.7713,5.7398,5.7825,5.7189,5.7117,5.7359,5.7369,5.7404,5.7964,5.8452,5.8814,5.9136,5.9594,5.9723,6.0031,6.0377,6.0339,6.0319,6.0396,6.0127,5.9358,5.8473,5.7588,5.6915,5.6165,5.5857,5.5662,5.564,5.564,5.564,5.5577,5.5577,5.5508,5.5508,5.5418,5.5485,5.5554,5.5554,4.0524,4.0524,4.0524,4.0524,4.0524,4.0524,4.0524,4.0524,4.0524,4.0524,4.0524,4.0524,4.0524,4.0524,4.0539,4.0739,4.1063,4.0724,4.1324,4.2479,4.2802,4.3681,4.4747,4.5539,4.6214,4.6828,4.7339,4.7998,4.8589,4.9178,4.9453,4.9666,4.986,4.9993,4.9993,5.0011,5.0011,5.0011,5.0011,5.0011,5.0011,5.0011,5.0011,5.0011,5.0011,5.0011,5.0011,5.0011,5.0011,4.9993,4.9993,5.0189,5.0457,5.0495,5.0696,5.1139,5.1611,5.2294,5.3057,5.3745,5.4507,5.5354,5.5932,5.638,5.6691,5.7386,5.8011,5.8103,5.8475,5.8642,5.8698,5.8698,5.8698,5.8698,5.8698,5.8698,5.8698,5.7955,5.7955,5.8219,5.808,5.7677,5.8237,5.7978,5.8178,5.865,5.9083,5.9558,6.0045,6.0533,6.08,6.08,6.08,6.0646,6.0589,6.0627,6.0165,5.9473,5.8184,5.7453,5.6838,5.6069,5.5895,5.5684,5.5684,5.5684,5.5684,5.5684,5.5662,5.564,5.5684,5.5684,5.5684,5.5684,5.5684,4.0524,4.0524,4.0524,4.0524,4.0524,4.0524,4.0524,4.0524,4.0524,4.0524,4.0524,4.0524,4.0524,4.0524,4.0524,4.0555,4.057,4.0555,4.1417,4.2602,4.3587,4.4474,4.4429,4.5028,4.5624,4.6253,4.6378,4.7001,4.7721,4.8222,4.8618,4.89,4.9333,4.9725,4.9649,4.9725,4.9877,4.9993,5.0011,5.0011,5.0011,5.0011,5.0011,5.0011,5.0011,5.0011,5.0011,5.0011,5.0011,5.0011,5.0011,4.9993,5.0051,4.9993,5.0051,5.0298,5.0871,5.16,5.2236,5.32,5.3873,5.4967,5.6041,5.6612,5.7103,5.7901,5.8484,5.8484,5.8638,5.8614,5.8614,5.8656,5.8656,5.8577,5.8558,5.8526,5.8526,5.8066,5.7918,5.8568,5.8661,5.8679,5.8698,5.8739,5.8769,5.8728,5.9254,5.9728,6.0132,6.0508,6.069,6.08,6.08,6.0781,6.0762,6.0781,6.0089,5.9319,5.7665,5.6684,5.6299,5.5818,5.5761,5.5684,5.5684,5.5684,5.5684,5.5684,5.5684,5.5684,5.5684,5.5684,5.5684,5.5684,5.5684,4.0524,4.0524,4.0524,4.0524,4.0524,4.0524,4.0524,4.0524,4.0524,4.0524,4.0524,4.0524,4.0524,4.0524,4.0524,4.0524,4.0539,4.0632,4.1294,4.2648,4.3972,4.454,4.4567,4.4977,4.529,4.564,4.6182,4.6588,4.6916,4.7306,4.7622,4.777,4.803,4.8222,4.8866,4.9023,4.9299,4.986,5.0011,5.0011,5.0011,5.0011,5.0011,5.0011,5.0011,5.0011,5.0011,5.0011,5.0011,5.0011,5.0011,5.0011,5.0011,5.0045,5.008,5.0316,5.1081,5.1997,5.2883,5.3868,5.5041,5.5755,5.6468,5.7284,5.7397,5.7976,5.8418,5.848,5.848,5.848,5.848,5.8548,5.8548,5.8394,5.7981,5.7851,5.8277,5.8386,5.8396,5.8582,5.8656,5.8698,5.8698,5.8656,5.8762,5.8887,5.9271,5.9725,6.0082,6.0418,6.0564,6.0661,6.0531,6.0473,6.0339,6.0165,5.9454,5.8781,5.7338,5.6242,5.5857,5.5684,5.5684,5.5684,5.5684,5.5684,5.5684,5.5684,5.5684,5.5684,5.5684,5.5684,5.5684,5.5684,5.5684,4.0401,4.0401,4.0455,4.0524,4.0524,4.0524,4.0524,4.0524,4.0524,4.0524,4.0524,4.0524,4.0524,4.0524,4.0524,4.0524,4.0632,4.0924,4.1586,4.2648,4.3664,4.4249,4.4556,4.4814,4.4949,4.5024,4.5348,4.5697,4.5969,4.6362,4.6763,4.6968,4.7104,4.7835,4.8413,4.8539,4.9084,4.9725,4.9935,5.0011,5.0011,5.0011,5.0011,5.0011,5.0011,5.0011,5.0011,5.0011,5.0011,5.0011,5.0011,5.0011,5.0097,5.0321,5.0493,5.069,5.1436,5.2381,5.3271,5.3958,5.4662,5.5667,5.6277,5.6598,5.6978,5.751,5.7941,5.8051,5.8223,5.8411,5.8411,5.8437,5.8418,5.8363,5.8005,5.795,5.8227,5.819,5.8159,5.84,5.8566,5.8548,5.8548,5.8535,5.8706,5.8812,5.8951,5.9424,5.9873,6.0154,6.0323,6.0364,6.0219,6.0069,5.9877,5.9435,5.8665,5.7953,5.703,5.6222,5.5742,5.5684,5.5684,5.5684,5.5684,5.5684,5.5684,5.5684,5.5684,5.5684,5.5684,5.5684,5.5684,5.5684,5.5684,4.0036,4.0036,4.0076,4.0146,4.0161,4.0231,4.0316,4.0385,4.0455,4.0524,4.0524,4.0524,4.0524,4.0524,4.0524,4.0524,4.0709,4.1247,4.1925,4.2648,4.3325,4.4002,4.4433,4.4648,4.4648,4.4572,4.4708,4.4933,4.5216,4.5478,4.5809,4.615,4.6555,4.7155,4.7917,4.8286,4.8742,4.953,4.9801,4.9877,4.9935,4.9935,4.9935,5.0011,5.0011,5.0011,5.0011,5.0011,5.0011,5.0011,5.0011,5.0011,5.0183,5.0666,5.1218,5.1252,5.2037,5.2693,5.3255,5.3635,5.4139,5.4896,5.5385,5.5698,5.6112,5.6807,5.7364,5.7671,5.7895,5.8349,5.8349,5.8349,5.8349,5.8349,5.8349,5.8349,5.822,5.7666,5.7832,5.827,5.8455,5.848,5.8326,5.8295,5.8512,5.8681,5.8783,5.9024,5.9463,5.9718,5.9779,6.0037,5.9911,5.9858,5.9685,5.8627,5.7857,5.7453,5.6665,5.6145,5.5684,5.5684,5.5684,5.5684,5.5684,5.5684,5.5684,5.5684,5.5684,5.5684,5.5684,5.5684,5.5684,5.5684,5.5684,3.8972,3.8957,3.8635,3.8487,3.8635,3.9421,3.9753,3.9895,4.0231,4.0455,4.0455,4.0455,4.047,4.047,4.0524,4.0524,4.0693,4.1278,4.1955,4.2617,4.3264,4.3925,4.4464,4.4572,4.4572,4.4572,4.4572,4.4648,4.4723,4.4783,4.5052,4.4993,4.5126,4.5865,4.6952,4.734,4.8013,4.9057,4.9411,4.9547,4.959,4.9784,4.986,4.9935,5.0011,5.0011,5.0011,5.0011,5.0011,5.0011,5.0011,5.0011,5.0235,5.0787,5.1407,5.1977,5.2735,5.3339,5.3529,5.3977,5.4287,5.4665,5.5044,5.5385,5.5716,5.6456,5.6997,5.7382,5.7755,5.8133,5.8088,5.8179,5.8152,5.8106,5.8088,5.8088,5.8051,5.7941,5.7902,5.8268,5.8367,5.8238,5.7998,5.7659,5.7518,5.7568,5.7582,5.8072,5.8698,5.8883,5.8942,5.9269,5.9588,5.9569,5.9531,5.8146,5.7107,5.7049,5.6511,5.6011,5.5684,5.5684,5.5684,5.5684,5.5684,5.5684,5.5684,5.5684,5.5684,5.5684,5.5684,5.5684,5.5684,5.5684,5.5684,3.789,3.789,3.7814,3.78,3.789,3.8279,3.859,3.8679,3.9247,3.955,3.9707,4.0091,4.0401,4.0401,4.047,4.0524,4.0709,4.1263,4.1955,4.2617,4.3264,4.3925,4.4526,4.4572,4.4572,4.4572,4.4572,4.4572,4.4572,4.4648,4.4572,4.4648,4.4572,4.5184,4.608,4.647,4.7071,4.8094,4.8652,4.8934,4.9118,4.9376,4.9725,4.9801,4.9935,5.0011,5.0011,5.0011,5.0011,5.0011,5.0011,5.0218,5.0631,5.1218,5.1821,5.2321,5.3287,5.396,5.396,5.4339,5.4477,5.4494,5.4772,5.4896,5.5122,5.5698,5.6456,5.7065,5.7284,5.7774,5.7997,5.8042,5.8061,5.8042,5.7978,5.7978,5.7978,5.7978,5.8088,5.8123,5.7773,5.7508,5.7306,5.7,5.6565,5.6427,5.6437,5.708,5.7912,5.8091,5.8188,5.8889,5.9269,5.9011,5.88,5.7588,5.6665,5.6569,5.6357,5.5876,5.5684,5.5684,5.5684,5.5684,5.5684,5.5684,5.5684,5.5684,5.5684,5.5684,5.5684,5.5684,5.5684,5.5684,5.5684,3.6894,3.6894,3.6972,3.6986,3.7063,3.7295,3.7372,3.7434,3.813,3.8502,3.8576,3.9262,3.9722,3.9879,4.0161,4.0401,4.0532,4.1263,4.1955,4.2633,4.3264,4.3925,4.4418,4.4572,4.4572,4.4572,4.4572,4.4572,4.4572,4.4572,4.4572,4.4572,4.4572,4.5008,4.5608,4.5953,4.6346,4.6968,4.7655,4.8063,4.8319,4.8917,4.9453,4.9573,4.9784,4.9935,5.0011,5.0011,5.0011,5.0011,5.0045,5.0252,5.089,5.1718,5.2183,5.2442,5.3684,5.4339,5.4494,5.4477,5.4512,5.4512,5.4512,5.4512,5.4683,5.5224,5.5925,5.6791,5.7166,5.7449,5.7886,5.7978,5.7997,5.7997,5.7978,5.7978,5.7978,5.7978,5.7978,5.7767,5.7171,5.695,5.694,5.6004,5.5515,5.5594,5.5628,5.6273,5.7059,5.7371,5.7699,5.8616,5.8928,5.8508,5.7934,5.6992,5.6376,5.6299,5.6107,5.5761,5.5684,5.5684,5.5703,5.5722,5.5684,5.5684,5.5684,5.5684,5.5684,5.5684,5.5684,5.5684,5.5684,5.5684,5.5684,3.5896,3.5816,3.5535,3.5386,3.5535,3.6308,3.6688,3.6766,3.7295,3.7663,3.7587,3.7814,3.819,3.8576,3.9364,3.995,4.0491,4.1198,4.1919,4.2521,4.3297,4.4002,4.4495,4.4556,4.4572,4.4572,4.4572,4.4572,4.4572,4.4572,4.4572,4.4572,4.4632,4.4933,4.5494,4.5551,4.6095,4.6657,4.6949,4.7053,4.7373,4.8111,4.8635,4.89,4.9359,4.986,4.9993,5.0011,5.0011,5.0011,5.0011,5.0045,5.0355,5.1494,5.2063,5.2632,5.3494,5.4512,5.4494,5.4512,5.4512,5.4512,5.4512,5.4512,5.462,5.5018,5.5773,5.6946,5.7065,5.7284,5.7726,5.7997,5.7978,5.7978,5.7978,5.7978,5.7978,5.7978,5.7978,5.774,5.7262,5.6987,5.6822,5.5574,5.4571,5.4686,5.4944,5.5689,5.6519,5.7127,5.7523,5.85,5.8572,5.8135,5.7466,5.6489,5.6104,5.6049,5.6069,5.5838,5.5761,5.578,5.5761,5.5761,5.5722,5.5703,5.5684,5.5684,5.5684,5.5684,5.5684,5.5684,5.5684,5.5684,5.5684,3.5269,3.495,3.4799,3.4729,3.4729,3.5196,3.5345,3.5507,3.6122,3.6517,3.6582,3.7127,3.751,3.7814,3.8279,3.8707,3.9447,4.0649,4.1625,4.2485,4.3425,4.4264,4.4495,4.4572,4.4572,4.4572,4.4572,4.4572,4.4572,4.4572,4.4572,4.4572,4.4572,4.4723,4.5142,4.5067,4.52,4.5551,4.5985,4.6378,4.6984,4.7704,4.8319,4.8509,4.9239,4.9708,4.9918,5.0011,5.0011,5.0011,5.0011,5.0011,5.0218,5.0976,5.1718,5.2304,5.3218,5.4011,5.4408,5.4494,5.4512,5.4512,5.4512,5.4512,5.4575,5.479,5.5224,5.6037,5.6474,5.6912,5.7449,5.7774,5.7932,5.7978,5.7932,5.7978,5.7978,5.7978,5.7923,5.7648,5.7373,5.7097,5.6693,5.5666,5.4785,5.4687,5.4999,5.5628,5.6811,5.8034,5.8297,5.853,5.8259,5.7743,5.7056,5.6249,5.5907,5.5929,5.6588,5.6319,5.5972,5.5895,5.6088,5.5915,5.5742,5.5722,5.5703,5.5703,5.5722,5.5703,5.5684,5.5761,5.5818,5.5684,5.5684,3.4803,3.441,3.4397,3.4397,3.4397,3.4397,3.4397,3.4481,3.5101,3.5345,3.5575,3.6281,3.683,3.7127,3.7309,3.7725,3.8231,3.9927,4.0911,4.198,4.3243,4.4113,4.4373,4.4419,4.4435,4.4496,4.4496,4.4496,4.4572,4.4572,4.4572,4.4572,4.4572,4.4648,4.4572,4.4632,4.4783,4.4783,4.5216,4.5697,4.6166,4.6968,4.7456,4.7982,4.8635,4.9376,4.9649,4.9801,4.9877,5.0011,4.9935,4.9918,5.0131,5.0769,5.1528,5.2201,5.308,5.3804,5.427,5.4512,5.4512,5.4512,5.4512,5.4512,5.4512,5.4512,5.479,5.5502,5.583,5.6312,5.6843,5.7401,5.7613,5.7774,5.7886,5.7932,5.7978,5.7978,5.7978,5.785,5.7556,5.7171,5.6638,5.5776,5.517,5.484,5.5085,5.565,5.7004,5.8596,5.8793,5.8787,5.8291,5.7676,5.687,5.6261,5.5861,5.5884,5.6563,5.6819,5.6492,5.6607,5.6934,5.6588,5.6069,5.5818,5.5838,5.5799,5.578,5.5992,5.6145,5.6011,5.5953,5.5799,5.5684,3.4437,3.4397,3.4397,3.4397,3.4397,3.4397,3.4397,3.4397,3.4481,3.4564,3.4716,3.5059,3.5683,3.607,3.6452,3.6808,3.7605,3.9098,3.9953,4.1,4.2303,4.3106,4.344,4.3684,4.396,4.4129,4.4159,4.4297,4.4572,4.4541,4.4556,4.4572,4.4572,4.4572,4.4572,4.4572,4.4572,4.4572,4.4783,4.4783,4.5126,4.5681,4.6166,4.647,4.7423,4.8366,4.8726,4.9178,4.9666,4.9877,4.9801,4.9784,5.0056,5.0676,5.1399,5.2183,5.2977,5.3718,5.4287,5.4512,5.4512,5.4512,5.4512,5.4512,5.4512,5.4512,5.479,5.5224,5.5502,5.583,5.6367,5.6809,5.7284,5.7613,5.7821,5.7932,5.7978,5.7978,5.7978,5.7978,5.7776,5.7446,5.7079,5.6345,5.5904,5.5592,5.5948,5.6515,5.7646,5.8953,5.903,5.8939,5.8418,5.7742,5.6879,5.6309,5.5792,5.6088,5.6767,5.7024,5.703,5.7319,5.7877,5.7338,5.6857,5.6415,5.6107,5.6376,5.6569,5.6607,5.653,5.6107,5.5953,5.5876,5.5761,3.4737,3.4397,3.4397,3.4397,3.4397,3.4397,3.4397,3.4397,3.4397,3.4397,3.4397,3.4577,3.4812,3.5032,3.5141,3.5574,3.6266,3.7428,3.8319,3.913,4.0163,4.1277,4.1733,4.2147,4.2303,4.288,4.3274,4.3594,4.3806,4.4159,4.4465,4.4572,4.4572,4.4572,4.4572,4.4572,4.4572,4.4572,4.4572,4.4572,4.4723,4.5274,4.5753,4.5992,4.6799,4.777,4.8366,4.8652,4.9135,4.9488,4.953,4.9666,4.9904,5.0599,5.1382,5.2183,5.2977,5.3736,5.4339,5.4512,5.4512,5.4512,5.4512,5.4512,5.4512,5.4512,5.4575,5.4852,5.5182,5.556,5.6221,5.6809,5.7284,5.7546,5.7774,5.7867,5.7932,5.7932,5.7978,5.7978,5.796,5.7831,5.7464,5.706,5.6693,5.6418,5.6867,5.7413,5.8393,5.9103,5.9152,5.9049,5.8585,5.7877,5.7015,5.6351,5.5725,5.6309,5.697,5.7363,5.7697,5.8473,5.88,5.8223,5.7761,5.7473,5.73,5.7319,5.7338,5.73,5.6665,5.5876,5.5838,5.5972,5.5818,3.4776,3.441,3.4397,3.4397,3.4397,3.4397,3.4397,3.4397,3.4397,3.4397,3.4397,3.4397,3.4397,3.4397,3.441,3.4638,3.5332,3.6197,3.688,3.7742,3.8668,3.9449,4.0051,4.0573,4.1107,4.161,4.2289,4.2773,4.3439,4.3777,4.4189,4.4495,4.4572,4.4572,4.4572,4.4572,4.4572,4.4572,4.4572,4.4572,4.4723,4.5067,4.5348,4.5536,4.6205,4.6815,4.7373,4.7721,4.8336,4.881,4.9135,4.9333,4.9787,5.0429,5.1305,5.214,5.2959,5.3718,5.4287,5.4512,5.4512,5.4512,5.4512,5.4512,5.4512,5.4512,5.4575,5.4575,5.4957,5.5343,5.583,5.6148,5.6474,5.6634,5.7333,5.7613,5.7708,5.7755,5.7867,5.7978,5.796,5.796,5.7831,5.7464,5.7116,5.6932,5.7289,5.7707,5.8382,5.8951,5.9206,5.9064,5.8749,5.7985,5.716,5.6601,5.6173,5.651,5.721,5.8031,5.8577,5.9311,5.9531,5.8934,5.8588,5.8531,5.828,5.7953,5.7896,5.7915,5.7223,5.6511,5.6126,5.6222,5.5838,3.4424,3.4397,3.4397,3.4397,3.4397,3.4397,3.4397,3.4397,3.4397,3.4397,3.4397,3.4397,3.4397,3.4397,3.4397,3.4476,3.4669,3.5343,3.5981,3.6634,3.7138,3.8092,3.88,3.9312,3.9547,4.0426,4.1111,4.1942,4.2924,4.3152,4.3654,4.4173,4.431,4.4479,4.4541,4.4572,4.4572,4.4572,4.4572,4.4572,4.4648,4.4708,4.4783,4.4993,4.5405,4.5953,4.6362,4.671,4.7406,4.8144,4.8208,4.8589,4.9402,5.0249,5.1123,5.2123,5.2959,5.3718,5.4408,5.4477,5.4512,5.4512,5.4512,5.4512,5.4512,5.4512,5.4512,5.4512,5.4603,5.4603,5.4834,5.5164,5.5543,5.6093,5.6843,5.7333,5.7449,5.7755,5.7914,5.7978,5.7978,5.7978,5.7978,5.785,5.7483,5.7409,5.7685,5.8039,5.8484,5.8893,5.9174,5.9001,5.8783,5.8224,5.7466,5.6912,5.6658,5.6958,5.7544,5.8457,5.924,5.9898,5.9907,5.9508,5.9431,5.9392,5.8892,5.8396,5.8454,5.8473,5.8088,5.7492,5.6973,5.6357,5.5915,3.4397,3.4397,3.4397,3.4397,3.4397,3.4397,3.4397,3.4397,3.4397,3.4397,3.4397,3.4397,3.4397,3.4397,3.4397,3.4397,3.4481,3.4564,3.5093,3.5229,3.5695,3.6035,3.6741,3.7348,3.7676,3.8345,3.9284,4.0199,4.0649,4.1746,4.2513,4.3057,4.3712,4.4172,4.4449,4.4572,4.4572,4.4572,4.4572,4.4572,4.4572,4.4572,4.4572,4.4587,4.4933,4.5258,4.5665,4.5969,4.6518,4.7272,4.7255,4.7786,4.869,4.9565,5.0623,5.1861,5.2898,5.3718,5.4287,5.4512,5.4512,5.4512,5.4512,5.4512,5.4512,5.4512,5.4512,5.4448,5.4431,5.454,5.4905,5.5069,5.5467,5.6019,5.6616,5.6997,5.7333,5.7708,5.7978,5.7978,5.7978,5.7978,5.7978,5.7978,5.7703,5.7538,5.774,5.785,5.8194,5.8791,5.9213,5.8936,5.8685,5.8273,5.781,5.7428,5.7332,5.7614,5.8279,5.9147,5.9875,6.0405,6.0416,6.0095,6.0176,6.0215,5.9758,5.9358,5.9127,5.8954,5.8242,5.7473,5.6646,5.6126,5.5818,3.3139,3.3139,3.3139,3.3407,3.3771,3.4217,3.4397,3.4397,3.4397,3.4397,3.4397,3.4397,3.4397,3.4397,3.4397,3.4397,3.4397,3.4397,3.4397,3.4397,3.441,3.4865,3.5249,3.5588,3.6287,3.6786,3.7636,3.8611,3.9218,4.05,4.149,4.2284,4.284,4.3223,4.3743,4.405,4.4572,4.4572,4.4572,4.4572,4.4572,4.4572,4.4572,4.4572,4.4708,4.4858,4.5216,4.5421,4.564,4.6182,4.6588,4.7001,4.7919,4.9005,5.0109,5.1339,5.2609,5.3461,5.4097,5.4367,5.4385,5.4385,5.4448,5.4512,5.4512,5.4512,5.4512,5.4448,5.4367,5.4523,5.4782,5.4905,5.5189,5.5794,5.6295,5.6739,5.7216,5.766,5.7978,5.7978,5.7978,5.7978,5.7978,5.7978,5.7886,5.7813,5.774,5.785,5.7951,5.8535,5.9103,5.9037,5.8981,5.8844,5.8536,5.8135,5.8116,5.8288,5.8915,5.9618,6.0085,6.0527,6.0616,6.0685,6.0575,6.0503,6.0565,6.0319,5.955,5.8684,5.778,5.7011,5.6222,5.5915,5.5703,3.0808,3.0808,3.0808,3.1529,3.2624,3.3602,3.4134,3.4397,3.4397,3.4397,3.4397,3.4397,3.4397,3.4397,3.4397,3.4397,3.4397,3.4397,3.4397,3.4397,3.4397,3.4564,3.4716,3.5196,3.5426,3.5883,3.6549,3.738,3.8118,3.903,4.0232,4.1489,4.1921,4.2343,4.2904,4.3589,4.4141,4.4125,4.4295,4.4295,4.431,4.451,4.4556,4.4572,4.4648,4.4648,4.4783,4.4783,4.5142,4.5494,4.5769,4.671,4.767,4.8745,4.9675,5.0725,5.213,5.3019,5.3721,5.3969,5.4141,5.4188,5.4367,5.4448,5.4512,5.4512,5.4512,5.4512,5.4431,5.4431,5.454,5.4648,5.4772,5.5385,5.5999,5.6528,5.7116,5.7498,5.7867,5.7978,5.7978,5.7978,5.7978,5.7978,5.7978,5.7905,5.7813,5.7795,5.7931,5.8271,5.8802,5.925,5.9275,5.9559,5.9234,5.8661,5.8612,5.8689,5.9136,5.9764,6.0212,6.0552,6.0604,6.0635,6.0685,6.0613,6.0354,5.9954,5.9396,5.8492,5.7588,5.6973,5.6338,5.5915,5.5684,3.0808,3.0808,3.0808,3.0998,3.1352,3.1704,3.2771,3.4217,3.4397,3.4397,3.4397,3.4397,3.4397,3.4397,3.4397,3.4397,3.4397,3.4397,3.4397,3.4397,3.4397,3.4397,3.4481,3.4716,3.4799,3.5114,3.5615,3.6232,3.6581,3.7423,3.8768,4.0114,4.074,4.1291,4.2099,4.2898,4.3021,4.3325,4.3602,4.3864,4.4064,4.4295,4.4418,4.4556,4.4572,4.4572,4.4572,4.4572,4.4783,4.4918,4.5421,4.6111,4.6285,4.767,4.8946,5.0492,5.1538,5.2438,5.3041,5.3276,5.3413,5.3755,5.3973,5.4303,5.4385,5.4379,5.4379,5.4431,5.4367,5.4303,5.4286,5.4414,5.4648,5.5147,5.5755,5.6312,5.6843,5.7382,5.7708,5.7932,5.7932,5.7978,5.7978,5.7978,5.796,5.7923,5.785,5.7758,5.7884,5.8196,5.8516,5.9009,5.9204,5.9387,5.9378,5.8911,5.9005,5.9128,5.9529,5.9882,6.0261,6.0499,6.0552,6.061,6.0685,6.033,5.9858,5.9608,5.9704,5.8473,5.755,5.6992,5.6472,5.603,5.5722,2.9396,2.9396,2.9396,2.967,3.0203,3.0641,3.1716,3.2955,3.3505,3.3869,3.4397,3.4397,3.4397,3.4397,3.4397,3.4397,3.4397,3.4397,3.4397,3.4397,3.4397,3.4397,3.4397,3.4397,3.4481,3.4634,3.4799,3.5209,3.5494,3.6531,3.7949,3.9059,3.955,4.0334,4.1043,4.1366,4.1484,4.1924,4.2529,4.3202,4.3633,4.3972,4.4233,4.4526,4.4541,4.4572,4.4572,4.4572,4.4572,4.4572,4.5142,4.564,4.6182,4.7638,4.8895,5.0249,5.0771,5.1486,5.2064,5.2299,5.2571,5.2908,5.316,5.3169,5.3541,5.3742,5.4016,5.4239,5.4175,5.4093,5.4093,5.4158,5.4551,5.4948,5.5507,5.6019,5.6634,5.7166,5.7565,5.7839,5.795,5.7978,5.7978,5.7978,5.7941,5.7868,5.7611,5.7317,5.7608,5.8048,5.839,5.8814,5.8933,5.9057,5.9039,5.9087,5.922,5.9365,5.9701,6.0017,6.0342,6.0499,6.0578,6.0655,6.071,6.0392,6.0089,6.03,6.0223,5.8973,5.8011,5.7665,5.7011,5.6088,5.5838,2.7357,2.7441,2.7367,2.8081,2.898,2.9931,3.0551,3.0819,3.1816,3.298,3.3771,3.4134,3.405,3.3966,3.4063,3.4314,3.4314,3.4397,3.4397,3.4397,3.4397,3.4397,3.4397,3.4397,3.4397,3.4397,3.4481,3.4634,3.4868,3.5736,3.6766,3.8037,3.8693,3.9297,3.9736,3.9998,4.0288,4.0771,4.1587,4.2421,4.3125,4.351,4.3864,4.4356,4.451,4.4572,4.4572,4.4572,4.4572,4.4572,4.4933,4.5494,4.6657,4.7572,4.8723,4.9312,4.95,5.0133,5.0686,5.1034,5.138,5.1592,5.1634,5.1953,5.2431,5.3207,5.3665,5.3854,5.3789,5.3977,5.4045,5.411,5.4379,5.472,5.5249,5.5674,5.6186,5.6717,5.7145,5.7491,5.7859,5.7905,5.7978,5.7978,5.7978,5.785,5.7685,5.7281,5.7095,5.7642,5.7775,5.8182,5.8368,5.8501,5.8832,5.8952,5.9345,5.9549,5.9785,5.9981,6.0159,6.0379,6.0629,6.068,6.0734,6.0757,6.0666,6.0723,6.0492,5.9646,5.8838,5.8511,5.7723,5.6684,5.5992,2.7272,2.7272,2.7272,2.7526,2.7726,2.7977,2.8691,2.9521,2.9784,3.0574,3.1629,3.2091,3.2636,3.3066,3.3458,3.381,3.423,3.4314,3.4397,3.4397,3.4397,3.4397,3.4397,3.4397,3.4397,3.4397,3.4397,3.4397,3.4634,3.5019,3.5494,3.6294,3.7063,3.7738,3.8649,3.8899,3.9379,3.9884,4.0603,4.1372,4.1878,4.299,4.3725,4.4002,4.4156,4.4526,4.4572,4.4572,4.4572,4.4648,4.5216,4.5913,4.6811,4.6673,4.6945,4.7433,4.7917,4.8663,4.9359,4.9839,5.0267,5.0947,5.1227,5.1312,5.1732,5.2622,5.316,5.3297,5.3468,5.3707,5.3844,5.3909,5.3956,5.4367,5.4704,5.5129,5.5615,5.6129,5.6605,5.7123,5.7639,5.7831,5.7905,5.7978,5.7978,5.796,5.7923,5.7593,5.6859,5.6853,5.6515,5.6867,5.7472,5.773,5.8146,5.8559,5.8747,5.9229,5.9477,5.9715,5.9981,6.0332,6.0655,6.0704,6.0734,6.0757,6.08,6.0781,6.0435,5.9896,5.9569,5.9204,5.8684,5.7761,5.6838,2.7272,2.7272,2.7272,2.7272,2.7272,2.7272,2.7715,2.8269,2.8258,2.862,2.9498,3.0563,3.1464,3.1904,3.2562,3.3104,3.3602,3.4134,3.423,3.4397,3.4314,3.4397,3.4397,3.4397,3.4397,3.4397,3.4397,3.4397,3.4481,3.495,3.5426,3.5669,3.6122,3.6724,3.78,3.8204,3.8767,3.9307,3.9839,4.038,4.0924,4.2165,4.3294,4.3602,4.411,4.4464,4.4572,4.4572,4.4572,4.4783,4.5274,4.5697,4.6253,4.6394,4.6534,4.6913,4.7319,4.767,4.8332,4.8893,4.9385,5.0092,5.0287,5.0164,5.0232,5.1048,5.1779,5.1949,5.2204,5.2377,5.2377,5.2442,5.249,5.2729,5.2946,5.3194,5.4185,5.5098,5.5819,5.6616,5.705,5.7427,5.7574,5.7978,5.7868,5.7354,5.7428,5.6822,5.6271,5.5996,5.5619,5.547,5.6076,5.6543,5.6751,5.732,5.7903,5.8444,5.9043,5.9709,6.0112,6.0441,6.068,6.0729,6.0757,6.0757,6.08,6.08,6.0742,6.0377,6.0108,5.9858,5.93,5.8819,5.8107,2.7272,2.7272,2.7272,2.7272,2.7272,2.7272,2.7357,2.7357,2.7357,2.7357,2.7704,2.9487,3.0281,3.092,3.1476,3.2016,3.2451,3.2882,3.342,3.3953,3.4037,3.4134,3.423,3.4397,3.4397,3.4397,3.4397,3.4397,3.4384,3.4868,3.5264,3.5655,3.6122,3.6646,3.6972,3.7539,3.8173,3.8708,3.9307,3.9925,4.0685,4.1556,4.256,4.3402,4.4048,4.4433,4.4526,4.4572,4.4572,4.4783,4.5067,4.5348,4.5624,4.5825,4.6253,4.6534,4.688,4.7388,4.8001,4.8473,4.8807,4.9075,4.9001,4.9086,4.9255,4.9644,5.0371,5.071,5.0947,5.1268,5.1285,5.1285,5.1349,5.1346,5.1503,5.1634,5.2835,5.3915,5.4738,5.5662,5.6284,5.6747,5.7317,5.7694,5.7437,5.695,5.6326,5.5574,5.506,5.5005,5.4798,5.4564,5.4717,5.5061,5.5441,5.6197,5.6995,5.7631,5.8276,5.9346,6.0208,6.0349,6.054,6.0753,6.0757,6.0757,6.08,6.08,6.0742,6.0685,6.0531,6.0281,6.0069,5.9608,5.9358,2.7272,2.7272,2.7272,2.7272,2.7262,2.7262,2.7272,2.7262,2.7241,2.7272,2.7369,2.7589,2.8423,2.9407,2.9977,3.0508,3.1199,3.1629,3.2091,3.255,3.3079,3.3518,3.3966,3.423,3.4397,3.4397,3.4397,3.4397,3.4384,3.4551,3.4716,3.4786,3.4799,3.5332,3.6042,3.6674,3.7448,3.8069,3.8841,3.9538,4.0178,4.1015,4.1976,4.2756,4.3402,4.4002,4.4387,4.4541,4.4572,4.4632,4.4708,4.4858,4.4993,4.52,4.5494,4.5913,4.6253,4.6864,4.7339,4.7819,4.8177,4.8798,4.8861,4.894,4.9041,4.912,4.961,4.9763,5.0135,5.0845,5.098,5.098,5.098,5.0985,5.1072,5.115,5.1708,5.2412,5.3118,5.4169,5.5129,5.5866,5.6704,5.6942,5.6868,5.6355,5.5959,5.5207,5.4491,5.4234,5.4032,5.3885,5.372,5.3995,5.4509,5.5324,5.608,5.6749,5.7524,5.8573,5.9457,6.0093,6.0321,6.043,6.0666,6.0734,6.0757,6.0734,6.0781,6.0742,6.0762,6.0646,6.0492,6.0358,6.005]}]]